<?xml version="1.0" encoding="UTF-8" standalone="no" ?>
<gpx xmlns="http://www.topografix.com/GPX/1/1" xmlns:xsi="http://www.w3.org/2001/XMLSchema-instance" xsi:schemaLocation="http://www.topografix.com/GPX/1/1 http://www.topografix.com/GPX/1/1/gpx.xsd" version="1.1" creator="VisuGPX - https://www.visugpx.com">
  <metadata>
    <name>tHiBaLdUs : Trail aux étoiles 2010 jusqu\'au ravito 1</name>
    <desc><![CDATA[Distance = 17,5 kms / Dénivelé positif = 570 m]]></desc>
  </metadata>
  <trk>
    <name><![CDATA[tHiBaLdUs : Trail aux étoiles 2010 jusqu\'au ravito 1_1]]></name>
    <trkseg>
      <trkpt lat="43.99038" lon="3.60207">
        <ele>248</ele>
        <time>2010-03-06T23:56:43Z</time>
      </trkpt>
      <trkpt lat="43.99039" lon="3.60224">
        <ele>248</ele>
        <time>2010-03-06T23:56:48Z</time>
      </trkpt>
      <trkpt lat="43.99038" lon="3.60241">
        <ele>247</ele>
        <time>2010-03-06T23:56:53Z</time>
      </trkpt>
      <trkpt lat="43.99035" lon="3.60254">
        <ele>244</ele>
        <time>2010-03-06T23:56:58Z</time>
      </trkpt>
      <trkpt lat="43.99033" lon="3.60262">
        <ele>244</ele>
        <time>2010-03-06T23:57:03Z</time>
      </trkpt>
      <trkpt lat="43.9902" lon="3.60273">
        <ele>243</ele>
        <time>2010-03-06T23:57:08Z</time>
      </trkpt>
      <trkpt lat="43.99011" lon="3.60285">
        <ele>243</ele>
        <time>2010-03-06T23:57:13Z</time>
      </trkpt>
      <trkpt lat="43.99004" lon="3.60298">
        <ele>242</ele>
        <time>2010-03-06T23:57:18Z</time>
      </trkpt>
      <trkpt lat="43.98999" lon="3.60309">
        <ele>240</ele>
        <time>2010-03-06T23:57:23Z</time>
      </trkpt>
      <trkpt lat="43.98992" lon="3.60322">
        <ele>240</ele>
        <time>2010-03-06T23:57:28Z</time>
      </trkpt>
      <trkpt lat="43.98982" lon="3.60338">
        <ele>238</ele>
        <time>2010-03-06T23:57:33Z</time>
      </trkpt>
      <trkpt lat="43.98975" lon="3.60352">
        <ele>238</ele>
        <time>2010-03-06T23:57:38Z</time>
      </trkpt>
      <trkpt lat="43.98967" lon="3.60364">
        <ele>238</ele>
        <time>2010-03-06T23:57:43Z</time>
      </trkpt>
      <trkpt lat="43.98959" lon="3.60372">
        <ele>238</ele>
        <time>2010-03-06T23:57:48Z</time>
      </trkpt>
      <trkpt lat="43.98954" lon="3.60388">
        <ele>238</ele>
        <time>2010-03-06T23:57:53Z</time>
      </trkpt>
      <trkpt lat="43.98951" lon="3.60407">
        <ele>237</ele>
        <time>2010-03-06T23:57:58Z</time>
      </trkpt>
      <trkpt lat="43.9895" lon="3.60426">
        <ele>236</ele>
        <time>2010-03-06T23:58:03Z</time>
      </trkpt>
      <trkpt lat="43.98949" lon="3.60441">
        <ele>235</ele>
        <time>2010-03-06T23:58:08Z</time>
      </trkpt>
      <trkpt lat="43.98946" lon="3.60458">
        <ele>235</ele>
        <time>2010-03-06T23:58:13Z</time>
      </trkpt>
      <trkpt lat="43.98942" lon="3.60477">
        <ele>234</ele>
        <time>2010-03-06T23:58:18Z</time>
      </trkpt>
      <trkpt lat="43.98938" lon="3.60494">
        <ele>233</ele>
        <time>2010-03-06T23:58:23Z</time>
      </trkpt>
      <trkpt lat="43.98865" lon="3.60546">
        <ele>229</ele>
        <time>2010-03-06T23:58:28Z</time>
      </trkpt>
      <trkpt lat="43.98863" lon="3.60562">
        <ele>228</ele>
        <time>2010-03-06T23:58:33Z</time>
      </trkpt>
      <trkpt lat="43.98855" lon="3.60584">
        <ele>227</ele>
        <time>2010-03-06T23:58:38Z</time>
      </trkpt>
      <trkpt lat="43.98854" lon="3.60602">
        <ele>227</ele>
        <time>2010-03-06T23:58:43Z</time>
      </trkpt>
      <trkpt lat="43.98856" lon="3.6061">
        <ele>227</ele>
        <time>2010-03-06T23:58:48Z</time>
      </trkpt>
      <trkpt lat="43.98831" lon="3.60595">
        <ele>228</ele>
        <time>2010-03-06T23:58:53Z</time>
      </trkpt>
      <trkpt lat="43.98822" lon="3.60591">
        <ele>228</ele>
        <time>2010-03-06T23:58:58Z</time>
      </trkpt>
      <trkpt lat="43.98808" lon="3.6059">
        <ele>227</ele>
        <time>2010-03-06T23:59:03Z</time>
      </trkpt>
      <trkpt lat="43.98797" lon="3.60588">
        <ele>227</ele>
        <time>2010-03-06T23:59:08Z</time>
      </trkpt>
      <trkpt lat="43.98783" lon="3.6059">
        <ele>227</ele>
        <time>2010-03-06T23:59:13Z</time>
      </trkpt>
      <trkpt lat="43.98773" lon="3.6059">
        <ele>227</ele>
        <time>2010-03-06T23:59:18Z</time>
      </trkpt>
      <trkpt lat="43.98761" lon="3.6059">
        <ele>227</ele>
        <time>2010-03-06T23:59:23Z</time>
      </trkpt>
      <trkpt lat="43.98747" lon="3.60592">
        <ele>227</ele>
        <time>2010-03-06T23:59:28Z</time>
      </trkpt>
      <trkpt lat="43.98735" lon="3.60594">
        <ele>227</ele>
        <time>2010-03-06T23:59:33Z</time>
      </trkpt>
      <trkpt lat="43.98728" lon="3.60596">
        <ele>227</ele>
        <time>2010-03-06T23:59:38Z</time>
      </trkpt>
      <trkpt lat="43.98724" lon="3.60599">
        <ele>226</ele>
        <time>2010-03-06T23:59:43Z</time>
      </trkpt>
      <trkpt lat="43.98704" lon="3.60599">
        <ele>226</ele>
        <time>2010-03-06T23:59:48Z</time>
      </trkpt>
      <trkpt lat="43.98686" lon="3.606">
        <ele>226</ele>
        <time>2010-03-06T23:59:53Z</time>
      </trkpt>
      <trkpt lat="43.98674" lon="3.60597">
        <ele>226</ele>
        <time>2010-03-06T23:59:58Z</time>
      </trkpt>
      <trkpt lat="43.98666" lon="3.6059">
        <ele>226</ele>
        <time>2010-03-06T00:00:03Z</time>
      </trkpt>
      <trkpt lat="43.98663" lon="3.60575">
        <ele>226</ele>
        <time>2010-03-06T00:00:08Z</time>
      </trkpt>
      <trkpt lat="43.98663" lon="3.60555">
        <ele>226</ele>
        <time>2010-03-06T00:00:13Z</time>
      </trkpt>
      <trkpt lat="43.98657" lon="3.60543">
        <ele>226</ele>
        <time>2010-03-06T00:00:18Z</time>
      </trkpt>
      <trkpt lat="43.98645" lon="3.60536">
        <ele>226</ele>
        <time>2010-03-06T00:00:23Z</time>
      </trkpt>
      <trkpt lat="43.98637" lon="3.60531">
        <ele>226</ele>
        <time>2010-03-06T00:00:28Z</time>
      </trkpt>
      <trkpt lat="43.98625" lon="3.60525">
        <ele>226</ele>
        <time>2010-03-06T00:00:33Z</time>
      </trkpt>
      <trkpt lat="43.98612" lon="3.60516">
        <ele>226</ele>
        <time>2010-03-06T00:00:38Z</time>
      </trkpt>
      <trkpt lat="43.98603" lon="3.60506">
        <ele>227</ele>
        <time>2010-03-06T00:00:43Z</time>
      </trkpt>
      <trkpt lat="43.98596" lon="3.60498">
        <ele>227</ele>
        <time>2010-03-06T00:00:48Z</time>
      </trkpt>
      <trkpt lat="43.98587" lon="3.60487">
        <ele>227</ele>
        <time>2010-03-06T00:00:53Z</time>
      </trkpt>
      <trkpt lat="43.98577" lon="3.60473">
        <ele>228</ele>
        <time>2010-03-06T00:00:58Z</time>
      </trkpt>
      <trkpt lat="43.98569" lon="3.60461">
        <ele>228</ele>
        <time>2010-03-06T00:01:03Z</time>
      </trkpt>
      <trkpt lat="43.98557" lon="3.60452">
        <ele>228</ele>
        <time>2010-03-06T00:01:08Z</time>
      </trkpt>
      <trkpt lat="43.98548" lon="3.60452">
        <ele>228</ele>
        <time>2010-03-06T00:01:13Z</time>
      </trkpt>
      <trkpt lat="43.98535" lon="3.60446">
        <ele>229</ele>
        <time>2010-03-06T00:01:18Z</time>
      </trkpt>
      <trkpt lat="43.98524" lon="3.60439">
        <ele>229</ele>
        <time>2010-03-06T00:01:23Z</time>
      </trkpt>
      <trkpt lat="43.98514" lon="3.60435">
        <ele>229</ele>
        <time>2010-03-06T00:01:28Z</time>
      </trkpt>
      <trkpt lat="43.98506" lon="3.60426">
        <ele>229</ele>
        <time>2010-03-06T00:01:33Z</time>
      </trkpt>
      <trkpt lat="43.98504" lon="3.60414">
        <ele>230</ele>
        <time>2010-03-06T00:01:38Z</time>
      </trkpt>
      <trkpt lat="43.98493" lon="3.60403">
        <ele>230</ele>
        <time>2010-03-06T00:01:43Z</time>
      </trkpt>
      <trkpt lat="43.98482" lon="3.60396">
        <ele>229</ele>
        <time>2010-03-06T00:01:48Z</time>
      </trkpt>
      <trkpt lat="43.98472" lon="3.60388">
        <ele>229</ele>
        <time>2010-03-06T00:01:53Z</time>
      </trkpt>
      <trkpt lat="43.98464" lon="3.60384">
        <ele>229</ele>
        <time>2010-03-06T00:01:58Z</time>
      </trkpt>
      <trkpt lat="43.98451" lon="3.60382">
        <ele>229</ele>
        <time>2010-03-06T00:02:03Z</time>
      </trkpt>
      <trkpt lat="43.98437" lon="3.60375">
        <ele>229</ele>
        <time>2010-03-06T00:02:08Z</time>
      </trkpt>
      <trkpt lat="43.98425" lon="3.60367">
        <ele>229</ele>
        <time>2010-03-06T00:02:13Z</time>
      </trkpt>
      <trkpt lat="43.98416" lon="3.6036">
        <ele>228</ele>
        <time>2010-03-06T00:02:18Z</time>
      </trkpt>
      <trkpt lat="43.98408" lon="3.60352">
        <ele>228</ele>
        <time>2010-03-06T00:02:23Z</time>
      </trkpt>
      <trkpt lat="43.98395" lon="3.60342">
        <ele>228</ele>
        <time>2010-03-06T00:02:28Z</time>
      </trkpt>
      <trkpt lat="43.98385" lon="3.60335">
        <ele>228</ele>
        <time>2010-03-06T00:02:33Z</time>
      </trkpt>
      <trkpt lat="43.98375" lon="3.60326">
        <ele>229</ele>
        <time>2010-03-06T00:02:38Z</time>
      </trkpt>
      <trkpt lat="43.98366" lon="3.60321">
        <ele>229</ele>
        <time>2010-03-06T00:02:43Z</time>
      </trkpt>
      <trkpt lat="43.98356" lon="3.60316">
        <ele>229</ele>
        <time>2010-03-06T00:02:48Z</time>
      </trkpt>
      <trkpt lat="43.98342" lon="3.60312">
        <ele>229</ele>
        <time>2010-03-06T00:02:53Z</time>
      </trkpt>
      <trkpt lat="43.98331" lon="3.60309">
        <ele>229</ele>
        <time>2010-03-06T00:02:58Z</time>
      </trkpt>
      <trkpt lat="43.98323" lon="3.60299">
        <ele>229</ele>
        <time>2010-03-06T00:03:03Z</time>
      </trkpt>
      <trkpt lat="43.98314" lon="3.60292">
        <ele>229</ele>
        <time>2010-03-06T00:03:08Z</time>
      </trkpt>
      <trkpt lat="43.983" lon="3.60285">
        <ele>230</ele>
        <time>2010-03-06T00:03:13Z</time>
      </trkpt>
      <trkpt lat="43.9829" lon="3.60276">
        <ele>230</ele>
        <time>2010-03-06T00:03:18Z</time>
      </trkpt>
      <trkpt lat="43.98282" lon="3.60273">
        <ele>230</ele>
        <time>2010-03-06T00:03:23Z</time>
      </trkpt>
      <trkpt lat="43.98276" lon="3.60281">
        <ele>230</ele>
        <time>2010-03-06T00:03:28Z</time>
      </trkpt>
      <trkpt lat="43.98267" lon="3.60291">
        <ele>230</ele>
        <time>2010-03-06T00:03:33Z</time>
      </trkpt>
      <trkpt lat="43.98254" lon="3.60303">
        <ele>229</ele>
        <time>2010-03-06T00:03:38Z</time>
      </trkpt>
      <trkpt lat="43.98245" lon="3.60315">
        <ele>229</ele>
        <time>2010-03-06T00:03:43Z</time>
      </trkpt>
      <trkpt lat="43.98241" lon="3.60329">
        <ele>229</ele>
        <time>2010-03-06T00:03:48Z</time>
      </trkpt>
      <trkpt lat="43.98235" lon="3.60339">
        <ele>229</ele>
        <time>2010-03-06T00:03:53Z</time>
      </trkpt>
      <trkpt lat="43.9823" lon="3.60353">
        <ele>229</ele>
        <time>2010-03-06T00:03:58Z</time>
      </trkpt>
      <trkpt lat="43.98223" lon="3.60371">
        <ele>229</ele>
        <time>2010-03-06T00:04:03Z</time>
      </trkpt>
      <trkpt lat="43.98221" lon="3.60388">
        <ele>229</ele>
        <time>2010-03-06T00:04:08Z</time>
      </trkpt>
      <trkpt lat="43.98218" lon="3.604">
        <ele>229</ele>
        <time>2010-03-06T00:04:13Z</time>
      </trkpt>
      <trkpt lat="43.98213" lon="3.60416">
        <ele>229</ele>
        <time>2010-03-06T00:04:18Z</time>
      </trkpt>
      <trkpt lat="43.98206" lon="3.6043">
        <ele>231</ele>
        <time>2010-03-06T00:04:23Z</time>
      </trkpt>
      <trkpt lat="43.98194" lon="3.6043">
        <ele>231</ele>
        <time>2010-03-06T00:04:28Z</time>
      </trkpt>
      <trkpt lat="43.98183" lon="3.60423">
        <ele>231</ele>
        <time>2010-03-06T00:04:33Z</time>
      </trkpt>
      <trkpt lat="43.98174" lon="3.60416">
        <ele>230</ele>
        <time>2010-03-06T00:04:38Z</time>
      </trkpt>
      <trkpt lat="43.98163" lon="3.60406">
        <ele>232</ele>
        <time>2010-03-06T00:04:43Z</time>
      </trkpt>
      <trkpt lat="43.98152" lon="3.60393">
        <ele>233</ele>
        <time>2010-03-06T00:04:48Z</time>
      </trkpt>
      <trkpt lat="43.98145" lon="3.60383">
        <ele>234</ele>
        <time>2010-03-06T00:04:53Z</time>
      </trkpt>
      <trkpt lat="43.98137" lon="3.60374">
        <ele>234</ele>
        <time>2010-03-06T00:04:58Z</time>
      </trkpt>
      <trkpt lat="43.98133" lon="3.60367">
        <ele>234</ele>
        <time>2010-03-06T00:05:03Z</time>
      </trkpt>
      <trkpt lat="43.98121" lon="3.60361">
        <ele>234</ele>
        <time>2010-03-06T00:05:08Z</time>
      </trkpt>
      <trkpt lat="43.9811" lon="3.60356">
        <ele>234</ele>
        <time>2010-03-06T00:05:13Z</time>
      </trkpt>
      <trkpt lat="43.981" lon="3.60348">
        <ele>234</ele>
        <time>2010-03-06T00:05:18Z</time>
      </trkpt>
      <trkpt lat="43.98093" lon="3.60338">
        <ele>233</ele>
        <time>2010-03-06T00:05:23Z</time>
      </trkpt>
      <trkpt lat="43.98086" lon="3.60324">
        <ele>232</ele>
        <time>2010-03-06T00:05:28Z</time>
      </trkpt>
      <trkpt lat="43.98077" lon="3.60309">
        <ele>233</ele>
        <time>2010-03-06T00:05:33Z</time>
      </trkpt>
      <trkpt lat="43.98069" lon="3.60295">
        <ele>233</ele>
        <time>2010-03-06T00:05:38Z</time>
      </trkpt>
      <trkpt lat="43.9806" lon="3.60281">
        <ele>233</ele>
        <time>2010-03-06T00:05:43Z</time>
      </trkpt>
      <trkpt lat="43.98056" lon="3.6027">
        <ele>233</ele>
        <time>2010-03-06T00:05:48Z</time>
      </trkpt>
      <trkpt lat="43.98048" lon="3.60253">
        <ele>233</ele>
        <time>2010-03-06T00:05:53Z</time>
      </trkpt>
      <trkpt lat="43.98042" lon="3.6024">
        <ele>231</ele>
        <time>2010-03-06T00:05:58Z</time>
      </trkpt>
      <trkpt lat="43.98036" lon="3.60226">
        <ele>231</ele>
        <time>2010-03-06T00:06:03Z</time>
      </trkpt>
      <trkpt lat="43.9803" lon="3.60215">
        <ele>231</ele>
        <time>2010-03-06T00:06:08Z</time>
      </trkpt>
      <trkpt lat="43.98023" lon="3.60202">
        <ele>231</ele>
        <time>2010-03-06T00:06:13Z</time>
      </trkpt>
      <trkpt lat="43.98015" lon="3.60185">
        <ele>231</ele>
        <time>2010-03-06T00:06:18Z</time>
      </trkpt>
      <trkpt lat="43.9801" lon="3.60171">
        <ele>231</ele>
        <time>2010-03-06T00:06:23Z</time>
      </trkpt>
      <trkpt lat="43.98006" lon="3.60157">
        <ele>231</ele>
        <time>2010-03-06T00:06:28Z</time>
      </trkpt>
      <trkpt lat="43.97999" lon="3.60148">
        <ele>232</ele>
        <time>2010-03-06T00:06:33Z</time>
      </trkpt>
      <trkpt lat="43.97988" lon="3.60137">
        <ele>233</ele>
        <time>2010-03-06T00:06:38Z</time>
      </trkpt>
      <trkpt lat="43.97977" lon="3.60127">
        <ele>233</ele>
        <time>2010-03-06T00:06:43Z</time>
      </trkpt>
      <trkpt lat="43.97969" lon="3.60118">
        <ele>233</ele>
        <time>2010-03-06T00:06:48Z</time>
      </trkpt>
      <trkpt lat="43.97961" lon="3.60112">
        <ele>233</ele>
        <time>2010-03-06T00:06:53Z</time>
      </trkpt>
      <trkpt lat="43.97952" lon="3.60103">
        <ele>233</ele>
        <time>2010-03-06T00:06:58Z</time>
      </trkpt>
      <trkpt lat="43.9794" lon="3.60093">
        <ele>233</ele>
        <time>2010-03-06T00:07:03Z</time>
      </trkpt>
      <trkpt lat="43.97928" lon="3.60085">
        <ele>232</ele>
        <time>2010-03-06T00:07:08Z</time>
      </trkpt>
      <trkpt lat="43.97919" lon="3.60075">
        <ele>231</ele>
        <time>2010-03-06T00:07:13Z</time>
      </trkpt>
      <trkpt lat="43.97909" lon="3.60066">
        <ele>233</ele>
        <time>2010-03-06T00:07:18Z</time>
      </trkpt>
      <trkpt lat="43.97902" lon="3.60062">
        <ele>233</ele>
        <time>2010-03-06T00:07:23Z</time>
      </trkpt>
      <trkpt lat="43.97889" lon="3.60057">
        <ele>233</ele>
        <time>2010-03-06T00:07:28Z</time>
      </trkpt>
      <trkpt lat="43.97878" lon="3.6005">
        <ele>234</ele>
        <time>2010-03-06T00:07:33Z</time>
      </trkpt>
      <trkpt lat="43.97871" lon="3.60043">
        <ele>234</ele>
        <time>2010-03-06T00:07:38Z</time>
      </trkpt>
      <trkpt lat="43.97863" lon="3.60035">
        <ele>234</ele>
        <time>2010-03-06T00:07:43Z</time>
      </trkpt>
      <trkpt lat="43.97849" lon="3.60026">
        <ele>234</ele>
        <time>2010-03-06T00:07:48Z</time>
      </trkpt>
      <trkpt lat="43.9784" lon="3.60016">
        <ele>234</ele>
        <time>2010-03-06T00:07:53Z</time>
      </trkpt>
      <trkpt lat="43.9783" lon="3.60009">
        <ele>235</ele>
        <time>2010-03-06T00:07:58Z</time>
      </trkpt>
      <trkpt lat="43.97821" lon="3.60003">
        <ele>235</ele>
        <time>2010-03-06T00:08:03Z</time>
      </trkpt>
      <trkpt lat="43.97812" lon="3.59996">
        <ele>235</ele>
        <time>2010-03-06T00:08:08Z</time>
      </trkpt>
      <trkpt lat="43.97801" lon="3.59986">
        <ele>235</ele>
        <time>2010-03-06T00:08:13Z</time>
      </trkpt>
      <trkpt lat="43.97791" lon="3.59978">
        <ele>236</ele>
        <time>2010-03-06T00:08:18Z</time>
      </trkpt>
      <trkpt lat="43.97782" lon="3.59969">
        <ele>236</ele>
        <time>2010-03-06T00:08:23Z</time>
      </trkpt>
      <trkpt lat="43.97777" lon="3.59961">
        <ele>236</ele>
        <time>2010-03-06T00:08:28Z</time>
      </trkpt>
      <trkpt lat="43.97773" lon="3.59943">
        <ele>236</ele>
        <time>2010-03-06T00:08:33Z</time>
      </trkpt>
      <trkpt lat="43.97768" lon="3.59931">
        <ele>237</ele>
        <time>2010-03-06T00:08:38Z</time>
      </trkpt>
      <trkpt lat="43.97761" lon="3.59927">
        <ele>237</ele>
        <time>2010-03-06T00:08:43Z</time>
      </trkpt>
      <trkpt lat="43.97755" lon="3.59933">
        <ele>237</ele>
        <time>2010-03-06T00:08:48Z</time>
      </trkpt>
      <trkpt lat="43.97751" lon="3.59947">
        <ele>237</ele>
        <time>2010-03-06T00:08:53Z</time>
      </trkpt>
      <trkpt lat="43.97745" lon="3.59965">
        <ele>237</ele>
        <time>2010-03-06T00:08:58Z</time>
      </trkpt>
      <trkpt lat="43.97741" lon="3.5998">
        <ele>237</ele>
        <time>2010-03-06T00:09:03Z</time>
      </trkpt>
      <trkpt lat="43.97735" lon="3.59995">
        <ele>237</ele>
        <time>2010-03-06T00:09:08Z</time>
      </trkpt>
      <trkpt lat="43.97729" lon="3.60005">
        <ele>239</ele>
        <time>2010-03-06T00:09:13Z</time>
      </trkpt>
      <trkpt lat="43.97716" lon="3.60017">
        <ele>240</ele>
        <time>2010-03-06T00:09:18Z</time>
      </trkpt>
      <trkpt lat="43.97702" lon="3.60019">
        <ele>240</ele>
        <time>2010-03-06T00:09:23Z</time>
      </trkpt>
      <trkpt lat="43.97688" lon="3.60018">
        <ele>240</ele>
        <time>2010-03-06T00:09:28Z</time>
      </trkpt>
      <trkpt lat="43.97679" lon="3.60014">
        <ele>240</ele>
        <time>2010-03-06T00:09:33Z</time>
      </trkpt>
      <trkpt lat="43.97668" lon="3.60009">
        <ele>239</ele>
        <time>2010-03-06T00:09:38Z</time>
      </trkpt>
      <trkpt lat="43.97656" lon="3.60013">
        <ele>243</ele>
        <time>2010-03-06T00:09:43Z</time>
      </trkpt>
      <trkpt lat="43.97658" lon="3.60024">
        <ele>245</ele>
        <time>2010-03-06T00:09:48Z</time>
      </trkpt>
      <trkpt lat="43.97661" lon="3.60038">
        <ele>246</ele>
        <time>2010-03-06T00:09:53Z</time>
      </trkpt>
      <trkpt lat="43.97664" lon="3.6005">
        <ele>247</ele>
        <time>2010-03-06T00:09:58Z</time>
      </trkpt>
      <trkpt lat="43.97662" lon="3.60065">
        <ele>247</ele>
        <time>2010-03-06T00:10:03Z</time>
      </trkpt>
      <trkpt lat="43.97655" lon="3.60079">
        <ele>247</ele>
        <time>2010-03-06T00:10:08Z</time>
      </trkpt>
      <trkpt lat="43.97654" lon="3.60093">
        <ele>251</ele>
        <time>2010-03-06T00:10:13Z</time>
      </trkpt>
      <trkpt lat="43.97651" lon="3.60103">
        <ele>252</ele>
        <time>2010-03-06T00:10:18Z</time>
      </trkpt>
      <trkpt lat="43.97642" lon="3.6011">
        <ele>254</ele>
        <time>2010-03-06T00:10:23Z</time>
      </trkpt>
      <trkpt lat="43.97633" lon="3.60116">
        <ele>255</ele>
        <time>2010-03-06T00:10:28Z</time>
      </trkpt>
      <trkpt lat="43.97626" lon="3.60114">
        <ele>255</ele>
        <time>2010-03-06T00:10:33Z</time>
      </trkpt>
      <trkpt lat="43.97618" lon="3.60113">
        <ele>255</ele>
        <time>2010-03-06T00:10:38Z</time>
      </trkpt>
      <trkpt lat="43.97612" lon="3.60116">
        <ele>255</ele>
        <time>2010-03-06T00:10:43Z</time>
      </trkpt>
      <trkpt lat="43.97605" lon="3.60109">
        <ele>256</ele>
        <time>2010-03-06T00:10:48Z</time>
      </trkpt>
      <trkpt lat="43.97594" lon="3.60112">
        <ele>256</ele>
        <time>2010-03-06T00:10:53Z</time>
      </trkpt>
      <trkpt lat="43.97589" lon="3.60115">
        <ele>256</ele>
        <time>2010-03-06T00:10:58Z</time>
      </trkpt>
      <trkpt lat="43.97582" lon="3.6012">
        <ele>259</ele>
        <time>2010-03-06T00:11:03Z</time>
      </trkpt>
      <trkpt lat="43.9758" lon="3.60127">
        <ele>259</ele>
        <time>2010-03-06T00:11:08Z</time>
      </trkpt>
      <trkpt lat="43.9757" lon="3.60135">
        <ele>259</ele>
        <time>2010-03-06T00:11:13Z</time>
      </trkpt>
      <trkpt lat="43.97564" lon="3.60141">
        <ele>259</ele>
        <time>2010-03-06T00:11:18Z</time>
      </trkpt>
      <trkpt lat="43.97559" lon="3.60146">
        <ele>259</ele>
        <time>2010-03-06T00:11:23Z</time>
      </trkpt>
      <trkpt lat="43.97553" lon="3.60152">
        <ele>259</ele>
        <time>2010-03-06T00:11:28Z</time>
      </trkpt>
      <trkpt lat="43.9755" lon="3.60159">
        <ele>259</ele>
        <time>2010-03-06T00:11:33Z</time>
      </trkpt>
      <trkpt lat="43.9754" lon="3.60165">
        <ele>259</ele>
        <time>2010-03-06T00:11:38Z</time>
      </trkpt>
      <trkpt lat="43.9753" lon="3.60171">
        <ele>259</ele>
        <time>2010-03-06T00:11:43Z</time>
      </trkpt>
      <trkpt lat="43.97522" lon="3.60174">
        <ele>260</ele>
        <time>2010-03-06T00:11:48Z</time>
      </trkpt>
      <trkpt lat="43.97516" lon="3.60179">
        <ele>260</ele>
        <time>2010-03-06T00:11:53Z</time>
      </trkpt>
      <trkpt lat="43.97513" lon="3.60188">
        <ele>260</ele>
        <time>2010-03-06T00:11:58Z</time>
      </trkpt>
      <trkpt lat="43.97507" lon="3.60195">
        <ele>259</ele>
        <time>2010-03-06T00:12:03Z</time>
      </trkpt>
      <trkpt lat="43.97508" lon="3.6021">
        <ele>259</ele>
        <time>2010-03-06T00:12:08Z</time>
      </trkpt>
      <trkpt lat="43.97502" lon="3.6022">
        <ele>258</ele>
        <time>2010-03-06T00:12:13Z</time>
      </trkpt>
      <trkpt lat="43.97496" lon="3.60232">
        <ele>258</ele>
        <time>2010-03-06T00:12:18Z</time>
      </trkpt>
      <trkpt lat="43.97493" lon="3.60247">
        <ele>258</ele>
        <time>2010-03-06T00:12:23Z</time>
      </trkpt>
      <trkpt lat="43.9749" lon="3.60256">
        <ele>260</ele>
        <time>2010-03-06T00:12:28Z</time>
      </trkpt>
      <trkpt lat="43.97487" lon="3.60265">
        <ele>261</ele>
        <time>2010-03-06T00:12:33Z</time>
      </trkpt>
      <trkpt lat="43.97482" lon="3.6027">
        <ele>262</ele>
        <time>2010-03-06T00:12:38Z</time>
      </trkpt>
      <trkpt lat="43.97484" lon="3.60283">
        <ele>263</ele>
        <time>2010-03-06T00:12:43Z</time>
      </trkpt>
      <trkpt lat="43.9749" lon="3.60294">
        <ele>264</ele>
        <time>2010-03-06T00:12:48Z</time>
      </trkpt>
      <trkpt lat="43.97497" lon="3.60307">
        <ele>265</ele>
        <time>2010-03-06T00:12:53Z</time>
      </trkpt>
      <trkpt lat="43.97502" lon="3.60318">
        <ele>265</ele>
        <time>2010-03-06T00:12:58Z</time>
      </trkpt>
      <trkpt lat="43.97511" lon="3.60328">
        <ele>265</ele>
        <time>2010-03-06T00:13:03Z</time>
      </trkpt>
      <trkpt lat="43.97524" lon="3.60339">
        <ele>271</ele>
        <time>2010-03-06T00:13:08Z</time>
      </trkpt>
      <trkpt lat="43.97535" lon="3.60345">
        <ele>271</ele>
        <time>2010-03-06T00:13:13Z</time>
      </trkpt>
      <trkpt lat="43.97545" lon="3.60351">
        <ele>270</ele>
        <time>2010-03-06T00:13:18Z</time>
      </trkpt>
      <trkpt lat="43.97554" lon="3.60354">
        <ele>270</ele>
        <time>2010-03-06T00:13:23Z</time>
      </trkpt>
      <trkpt lat="43.97564" lon="3.60362">
        <ele>270</ele>
        <time>2010-03-06T00:13:28Z</time>
      </trkpt>
      <trkpt lat="43.97578" lon="3.6037">
        <ele>270</ele>
        <time>2010-03-06T00:13:33Z</time>
      </trkpt>
      <trkpt lat="43.97588" lon="3.60381">
        <ele>267</ele>
        <time>2010-03-06T00:13:38Z</time>
      </trkpt>
      <trkpt lat="43.97595" lon="3.60388">
        <ele>268</ele>
        <time>2010-03-06T00:13:43Z</time>
      </trkpt>
      <trkpt lat="43.97602" lon="3.60401">
        <ele>269</ele>
        <time>2010-03-06T00:13:48Z</time>
      </trkpt>
      <trkpt lat="43.97611" lon="3.60417">
        <ele>272</ele>
        <time>2010-03-06T00:13:53Z</time>
      </trkpt>
      <trkpt lat="43.97619" lon="3.6043">
        <ele>272</ele>
        <time>2010-03-06T00:13:58Z</time>
      </trkpt>
      <trkpt lat="43.97627" lon="3.60442">
        <ele>272</ele>
        <time>2010-03-06T00:14:03Z</time>
      </trkpt>
      <trkpt lat="43.97631" lon="3.60454">
        <ele>273</ele>
        <time>2010-03-06T00:14:08Z</time>
      </trkpt>
      <trkpt lat="43.97635" lon="3.6047">
        <ele>273</ele>
        <time>2010-03-06T00:14:13Z</time>
      </trkpt>
      <trkpt lat="43.97635" lon="3.60491">
        <ele>273</ele>
        <time>2010-03-06T00:14:18Z</time>
      </trkpt>
      <trkpt lat="43.97633" lon="3.60509">
        <ele>277</ele>
        <time>2010-03-06T00:14:23Z</time>
      </trkpt>
      <trkpt lat="43.97633" lon="3.60528">
        <ele>277</ele>
        <time>2010-03-06T00:14:28Z</time>
      </trkpt>
      <trkpt lat="43.97636" lon="3.60536">
        <ele>277</ele>
        <time>2010-03-06T00:14:33Z</time>
      </trkpt>
      <trkpt lat="43.97648" lon="3.60529">
        <ele>276</ele>
        <time>2010-03-06T00:14:38Z</time>
      </trkpt>
      <trkpt lat="43.97656" lon="3.60517">
        <ele>274</ele>
        <time>2010-03-06T00:14:43Z</time>
      </trkpt>
      <trkpt lat="43.97661" lon="3.60506">
        <ele>271</ele>
        <time>2010-03-06T00:14:48Z</time>
      </trkpt>
      <trkpt lat="43.97666" lon="3.60497">
        <ele>270</ele>
        <time>2010-03-06T00:14:53Z</time>
      </trkpt>
      <trkpt lat="43.97672" lon="3.60486">
        <ele>275</ele>
        <time>2010-03-06T00:14:58Z</time>
      </trkpt>
      <trkpt lat="43.97681" lon="3.60474">
        <ele>278</ele>
        <time>2010-03-06T00:15:03Z</time>
      </trkpt>
      <trkpt lat="43.97685" lon="3.60463">
        <ele>279</ele>
        <time>2010-03-06T00:15:08Z</time>
      </trkpt>
      <trkpt lat="43.97687" lon="3.60454">
        <ele>279</ele>
        <time>2010-03-06T00:15:13Z</time>
      </trkpt>
      <trkpt lat="43.97688" lon="3.60447">
        <ele>278</ele>
        <time>2010-03-06T00:15:18Z</time>
      </trkpt>
      <trkpt lat="43.9769" lon="3.60436">
        <ele>278</ele>
        <time>2010-03-06T00:15:23Z</time>
      </trkpt>
      <trkpt lat="43.97692" lon="3.6043">
        <ele>278</ele>
        <time>2010-03-06T00:15:28Z</time>
      </trkpt>
      <trkpt lat="43.97693" lon="3.60423">
        <ele>277</ele>
        <time>2010-03-06T00:15:33Z</time>
      </trkpt>
      <trkpt lat="43.97693" lon="3.60417">
        <ele>277</ele>
        <time>2010-03-06T00:15:38Z</time>
      </trkpt>
      <trkpt lat="43.97691" lon="3.60408">
        <ele>275</ele>
        <time>2010-03-06T00:15:43Z</time>
      </trkpt>
      <trkpt lat="43.97691" lon="3.604">
        <ele>275</ele>
        <time>2010-03-06T00:15:48Z</time>
      </trkpt>
      <trkpt lat="43.97692" lon="3.60392">
        <ele>276</ele>
        <time>2010-03-06T00:15:53Z</time>
      </trkpt>
      <trkpt lat="43.97691" lon="3.60384">
        <ele>276</ele>
        <time>2010-03-06T00:15:58Z</time>
      </trkpt>
      <trkpt lat="43.97691" lon="3.6038">
        <ele>276</ele>
        <time>2010-03-06T00:16:03Z</time>
      </trkpt>
      <trkpt lat="43.97697" lon="3.60381">
        <ele>277</ele>
        <time>2010-03-06T00:16:08Z</time>
      </trkpt>
      <trkpt lat="43.97703" lon="3.60377">
        <ele>277</ele>
        <time>2010-03-06T00:16:13Z</time>
      </trkpt>
      <trkpt lat="43.97707" lon="3.60374">
        <ele>278</ele>
        <time>2010-03-06T00:16:18Z</time>
      </trkpt>
      <trkpt lat="43.9771" lon="3.6037">
        <ele>278</ele>
        <time>2010-03-06T00:16:23Z</time>
      </trkpt>
      <trkpt lat="43.97715" lon="3.60367">
        <ele>279</ele>
        <time>2010-03-06T00:16:28Z</time>
      </trkpt>
      <trkpt lat="43.97719" lon="3.60362">
        <ele>279</ele>
        <time>2010-03-06T00:16:33Z</time>
      </trkpt>
      <trkpt lat="43.97723" lon="3.60358">
        <ele>279</ele>
        <time>2010-03-06T00:16:38Z</time>
      </trkpt>
      <trkpt lat="43.97728" lon="3.60355">
        <ele>280</ele>
        <time>2010-03-06T00:16:43Z</time>
      </trkpt>
      <trkpt lat="43.97731" lon="3.60352">
        <ele>280</ele>
        <time>2010-03-06T00:16:48Z</time>
      </trkpt>
      <trkpt lat="43.97736" lon="3.60351">
        <ele>281</ele>
        <time>2010-03-06T00:16:53Z</time>
      </trkpt>
      <trkpt lat="43.97742" lon="3.6035">
        <ele>281</ele>
        <time>2010-03-06T00:16:58Z</time>
      </trkpt>
      <trkpt lat="43.97748" lon="3.60349">
        <ele>282</ele>
        <time>2010-03-06T00:17:03Z</time>
      </trkpt>
      <trkpt lat="43.97757" lon="3.60348">
        <ele>286</ele>
        <time>2010-03-06T00:17:08Z</time>
      </trkpt>
      <trkpt lat="43.97766" lon="3.60347">
        <ele>287</ele>
        <time>2010-03-06T00:17:13Z</time>
      </trkpt>
      <trkpt lat="43.97777" lon="3.60347">
        <ele>287</ele>
        <time>2010-03-06T00:17:18Z</time>
      </trkpt>
      <trkpt lat="43.97787" lon="3.60348">
        <ele>288</ele>
        <time>2010-03-06T00:17:23Z</time>
      </trkpt>
      <trkpt lat="43.97791" lon="3.60358">
        <ele>288</ele>
        <time>2010-03-06T00:17:28Z</time>
      </trkpt>
      <trkpt lat="43.97794" lon="3.60366">
        <ele>289</ele>
        <time>2010-03-06T00:17:33Z</time>
      </trkpt>
      <trkpt lat="43.97798" lon="3.6037">
        <ele>289</ele>
        <time>2010-03-06T00:17:38Z</time>
      </trkpt>
      <trkpt lat="43.97806" lon="3.60378">
        <ele>290</ele>
        <time>2010-03-06T00:17:43Z</time>
      </trkpt>
      <trkpt lat="43.97812" lon="3.60387">
        <ele>290</ele>
        <time>2010-03-06T00:17:48Z</time>
      </trkpt>
      <trkpt lat="43.97807" lon="3.60395">
        <ele>291</ele>
        <time>2010-03-06T00:17:53Z</time>
      </trkpt>
      <trkpt lat="43.978" lon="3.60399">
        <ele>291</ele>
        <time>2010-03-06T00:17:58Z</time>
      </trkpt>
      <trkpt lat="43.97795" lon="3.60405">
        <ele>291</ele>
        <time>2010-03-06T00:18:03Z</time>
      </trkpt>
      <trkpt lat="43.97795" lon="3.60413">
        <ele>291</ele>
        <time>2010-03-06T00:18:08Z</time>
      </trkpt>
      <trkpt lat="43.97796" lon="3.60414">
        <ele>291</ele>
        <time>2010-03-06T00:18:13Z</time>
      </trkpt>
      <trkpt lat="43.97801" lon="3.60415">
        <ele>291</ele>
        <time>2010-03-06T00:18:18Z</time>
      </trkpt>
      <trkpt lat="43.97805" lon="3.6042">
        <ele>300</ele>
        <time>2010-03-06T00:18:23Z</time>
      </trkpt>
      <trkpt lat="43.97809" lon="3.60423">
        <ele>300</ele>
        <time>2010-03-06T00:18:28Z</time>
      </trkpt>
      <trkpt lat="43.97813" lon="3.60427">
        <ele>300</ele>
        <time>2010-03-06T00:18:33Z</time>
      </trkpt>
      <trkpt lat="43.97818" lon="3.60432">
        <ele>300</ele>
        <time>2010-03-06T00:18:38Z</time>
      </trkpt>
      <trkpt lat="43.97824" lon="3.60436">
        <ele>301</ele>
        <time>2010-03-06T00:18:43Z</time>
      </trkpt>
      <trkpt lat="43.97835" lon="3.60442">
        <ele>302</ele>
        <time>2010-03-06T00:18:48Z</time>
      </trkpt>
      <trkpt lat="43.97845" lon="3.60447">
        <ele>303</ele>
        <time>2010-03-06T00:18:53Z</time>
      </trkpt>
      <trkpt lat="43.97854" lon="3.60452">
        <ele>304</ele>
        <time>2010-03-06T00:18:58Z</time>
      </trkpt>
      <trkpt lat="43.97859" lon="3.60456">
        <ele>304</ele>
        <time>2010-03-06T00:19:03Z</time>
      </trkpt>
      <trkpt lat="43.97864" lon="3.60461">
        <ele>305</ele>
        <time>2010-03-06T00:19:08Z</time>
      </trkpt>
      <trkpt lat="43.9787" lon="3.60466">
        <ele>305</ele>
        <time>2010-03-06T00:19:13Z</time>
      </trkpt>
      <trkpt lat="43.97875" lon="3.60472">
        <ele>305</ele>
        <time>2010-03-06T00:19:18Z</time>
      </trkpt>
      <trkpt lat="43.9788" lon="3.60476">
        <ele>305</ele>
        <time>2010-03-06T00:19:23Z</time>
      </trkpt>
      <trkpt lat="43.97889" lon="3.60483">
        <ele>306</ele>
        <time>2010-03-06T00:19:28Z</time>
      </trkpt>
      <trkpt lat="43.97898" lon="3.60496">
        <ele>307</ele>
        <time>2010-03-06T00:19:33Z</time>
      </trkpt>
      <trkpt lat="43.97903" lon="3.60512">
        <ele>316</ele>
        <time>2010-03-06T00:19:38Z</time>
      </trkpt>
      <trkpt lat="43.97907" lon="3.60518">
        <ele>317</ele>
        <time>2010-03-06T00:19:43Z</time>
      </trkpt>
      <trkpt lat="43.9791" lon="3.60524">
        <ele>317</ele>
        <time>2010-03-06T00:19:48Z</time>
      </trkpt>
      <trkpt lat="43.97913" lon="3.60531">
        <ele>319</ele>
        <time>2010-03-06T00:19:53Z</time>
      </trkpt>
      <trkpt lat="43.97919" lon="3.60537">
        <ele>308</ele>
        <time>2010-03-06T00:19:58Z</time>
      </trkpt>
      <trkpt lat="43.97923" lon="3.60542">
        <ele>309</ele>
        <time>2010-03-06T00:20:03Z</time>
      </trkpt>
      <trkpt lat="43.97927" lon="3.60547">
        <ele>309</ele>
        <time>2010-03-06T00:20:08Z</time>
      </trkpt>
      <trkpt lat="43.9793" lon="3.60553">
        <ele>310</ele>
        <time>2010-03-06T00:20:13Z</time>
      </trkpt>
      <trkpt lat="43.97936" lon="3.60561">
        <ele>310</ele>
        <time>2010-03-06T00:20:18Z</time>
      </trkpt>
      <trkpt lat="43.9794" lon="3.60571">
        <ele>311</ele>
        <time>2010-03-06T00:20:23Z</time>
      </trkpt>
      <trkpt lat="43.97943" lon="3.60579">
        <ele>311</ele>
        <time>2010-03-06T00:20:28Z</time>
      </trkpt>
      <trkpt lat="43.97947" lon="3.60589">
        <ele>316</ele>
        <time>2010-03-06T00:20:33Z</time>
      </trkpt>
      <trkpt lat="43.97946" lon="3.60596">
        <ele>316</ele>
        <time>2010-03-06T00:20:38Z</time>
      </trkpt>
      <trkpt lat="43.97937" lon="3.60591">
        <ele>318</ele>
        <time>2010-03-06T00:20:43Z</time>
      </trkpt>
      <trkpt lat="43.9793" lon="3.60588">
        <ele>320</ele>
        <time>2010-03-06T00:20:48Z</time>
      </trkpt>
      <trkpt lat="43.97924" lon="3.60586">
        <ele>322</ele>
        <time>2010-03-06T00:20:53Z</time>
      </trkpt>
      <trkpt lat="43.97919" lon="3.60584">
        <ele>324</ele>
        <time>2010-03-06T00:20:58Z</time>
      </trkpt>
      <trkpt lat="43.97914" lon="3.60581">
        <ele>325</ele>
        <time>2010-03-06T00:21:03Z</time>
      </trkpt>
      <trkpt lat="43.97907" lon="3.60579">
        <ele>324</ele>
        <time>2010-03-06T00:21:08Z</time>
      </trkpt>
      <trkpt lat="43.97901" lon="3.60577">
        <ele>324</ele>
        <time>2010-03-06T00:21:13Z</time>
      </trkpt>
      <trkpt lat="43.97896" lon="3.60576">
        <ele>324</ele>
        <time>2010-03-06T00:21:18Z</time>
      </trkpt>
      <trkpt lat="43.97892" lon="3.60573">
        <ele>324</ele>
        <time>2010-03-06T00:21:23Z</time>
      </trkpt>
      <trkpt lat="43.97887" lon="3.6057">
        <ele>324</ele>
        <time>2010-03-06T00:21:28Z</time>
      </trkpt>
      <trkpt lat="43.97876" lon="3.60565">
        <ele>324</ele>
        <time>2010-03-06T00:21:33Z</time>
      </trkpt>
      <trkpt lat="43.97867" lon="3.6056">
        <ele>325</ele>
        <time>2010-03-06T00:21:38Z</time>
      </trkpt>
      <trkpt lat="43.97862" lon="3.60558">
        <ele>325</ele>
        <time>2010-03-06T00:21:43Z</time>
      </trkpt>
      <trkpt lat="43.97854" lon="3.60557">
        <ele>326</ele>
        <time>2010-03-06T00:21:48Z</time>
      </trkpt>
      <trkpt lat="43.97844" lon="3.60558">
        <ele>327</ele>
        <time>2010-03-06T00:21:53Z</time>
      </trkpt>
      <trkpt lat="43.97835" lon="3.60562">
        <ele>328</ele>
        <time>2010-03-06T00:21:58Z</time>
      </trkpt>
      <trkpt lat="43.97829" lon="3.60564">
        <ele>325</ele>
        <time>2010-03-06T00:22:03Z</time>
      </trkpt>
      <trkpt lat="43.97824" lon="3.60568">
        <ele>326</ele>
        <time>2010-03-06T00:22:08Z</time>
      </trkpt>
      <trkpt lat="43.97818" lon="3.60573">
        <ele>325</ele>
        <time>2010-03-06T00:22:13Z</time>
      </trkpt>
      <trkpt lat="43.97817" lon="3.60576">
        <ele>326</ele>
        <time>2010-03-06T00:22:18Z</time>
      </trkpt>
      <trkpt lat="43.97823" lon="3.60578">
        <ele>328</ele>
        <time>2010-03-06T00:22:23Z</time>
      </trkpt>
      <trkpt lat="43.97827" lon="3.60578">
        <ele>330</ele>
        <time>2010-03-06T00:22:28Z</time>
      </trkpt>
      <trkpt lat="43.97835" lon="3.6058">
        <ele>334</ele>
        <time>2010-03-06T00:22:33Z</time>
      </trkpt>
      <trkpt lat="43.97847" lon="3.60583">
        <ele>331</ele>
        <time>2010-03-06T00:22:38Z</time>
      </trkpt>
      <trkpt lat="43.97857" lon="3.60589">
        <ele>335</ele>
        <time>2010-03-06T00:22:43Z</time>
      </trkpt>
      <trkpt lat="43.97866" lon="3.60598">
        <ele>334</ele>
        <time>2010-03-06T00:22:48Z</time>
      </trkpt>
      <trkpt lat="43.97867" lon="3.60603">
        <ele>334</ele>
        <time>2010-03-06T00:22:53Z</time>
      </trkpt>
      <trkpt lat="43.97863" lon="3.60608">
        <ele>335</ele>
        <time>2010-03-06T00:22:58Z</time>
      </trkpt>
      <trkpt lat="43.97862" lon="3.60612">
        <ele>335</ele>
        <time>2010-03-06T00:23:03Z</time>
      </trkpt>
      <trkpt lat="43.97858" lon="3.60615">
        <ele>335</ele>
        <time>2010-03-06T00:23:08Z</time>
      </trkpt>
      <trkpt lat="43.97857" lon="3.60622">
        <ele>336</ele>
        <time>2010-03-06T00:23:13Z</time>
      </trkpt>
      <trkpt lat="43.97856" lon="3.60624">
        <ele>336</ele>
        <time>2010-03-06T00:23:18Z</time>
      </trkpt>
      <trkpt lat="43.97854" lon="3.6063">
        <ele>336</ele>
        <time>2010-03-06T00:23:23Z</time>
      </trkpt>
      <trkpt lat="43.97848" lon="3.60635">
        <ele>337</ele>
        <time>2010-03-06T00:23:28Z</time>
      </trkpt>
      <trkpt lat="43.97844" lon="3.60641">
        <ele>338</ele>
        <time>2010-03-06T00:23:33Z</time>
      </trkpt>
      <trkpt lat="43.97844" lon="3.60648">
        <ele>339</ele>
        <time>2010-03-06T00:23:38Z</time>
      </trkpt>
      <trkpt lat="43.97845" lon="3.60655">
        <ele>340</ele>
        <time>2010-03-06T00:23:43Z</time>
      </trkpt>
      <trkpt lat="43.97842" lon="3.60669">
        <ele>343</ele>
        <time>2010-03-06T00:23:48Z</time>
      </trkpt>
      <trkpt lat="43.97839" lon="3.60682">
        <ele>343</ele>
        <time>2010-03-06T00:23:53Z</time>
      </trkpt>
      <trkpt lat="43.97839" lon="3.60693">
        <ele>343</ele>
        <time>2010-03-06T00:23:58Z</time>
      </trkpt>
      <trkpt lat="43.97839" lon="3.60702">
        <ele>343</ele>
        <time>2010-03-06T00:24:03Z</time>
      </trkpt>
      <trkpt lat="43.97835" lon="3.60713">
        <ele>343</ele>
        <time>2010-03-06T00:24:08Z</time>
      </trkpt>
      <trkpt lat="43.97836" lon="3.60723">
        <ele>344</ele>
        <time>2010-03-06T00:24:13Z</time>
      </trkpt>
      <trkpt lat="43.97834" lon="3.6073">
        <ele>345</ele>
        <time>2010-03-06T00:24:18Z</time>
      </trkpt>
      <trkpt lat="43.97832" lon="3.60737">
        <ele>343</ele>
        <time>2010-03-06T00:24:23Z</time>
      </trkpt>
      <trkpt lat="43.97833" lon="3.60749">
        <ele>351</ele>
        <time>2010-03-06T00:24:28Z</time>
      </trkpt>
      <trkpt lat="43.97828" lon="3.60761">
        <ele>347</ele>
        <time>2010-03-06T00:24:33Z</time>
      </trkpt>
      <trkpt lat="43.97825" lon="3.60769">
        <ele>345</ele>
        <time>2010-03-06T00:24:38Z</time>
      </trkpt>
      <trkpt lat="43.97825" lon="3.60781">
        <ele>344</ele>
        <time>2010-03-06T00:24:43Z</time>
      </trkpt>
      <trkpt lat="43.97822" lon="3.60786">
        <ele>344</ele>
        <time>2010-03-06T00:24:48Z</time>
      </trkpt>
      <trkpt lat="43.97818" lon="3.60797">
        <ele>344</ele>
        <time>2010-03-06T00:24:53Z</time>
      </trkpt>
      <trkpt lat="43.97818" lon="3.60812">
        <ele>346</ele>
        <time>2010-03-06T00:24:58Z</time>
      </trkpt>
      <trkpt lat="43.97812" lon="3.60828">
        <ele>347</ele>
        <time>2010-03-06T00:25:03Z</time>
      </trkpt>
      <trkpt lat="43.9781" lon="3.6084">
        <ele>350</ele>
        <time>2010-03-06T00:25:08Z</time>
      </trkpt>
      <trkpt lat="43.97805" lon="3.60853">
        <ele>349</ele>
        <time>2010-03-06T00:25:13Z</time>
      </trkpt>
      <trkpt lat="43.97807" lon="3.60868">
        <ele>349</ele>
        <time>2010-03-06T00:25:18Z</time>
      </trkpt>
      <trkpt lat="43.97804" lon="3.6088">
        <ele>349</ele>
        <time>2010-03-06T00:25:23Z</time>
      </trkpt>
      <trkpt lat="43.978" lon="3.60889">
        <ele>349</ele>
        <time>2010-03-06T00:25:28Z</time>
      </trkpt>
      <trkpt lat="43.97798" lon="3.60895">
        <ele>349</ele>
        <time>2010-03-06T00:25:33Z</time>
      </trkpt>
      <trkpt lat="43.97796" lon="3.60901">
        <ele>349</ele>
        <time>2010-03-06T00:25:38Z</time>
      </trkpt>
      <trkpt lat="43.97796" lon="3.60912">
        <ele>350</ele>
        <time>2010-03-06T00:25:43Z</time>
      </trkpt>
      <trkpt lat="43.97787" lon="3.60924">
        <ele>353</ele>
        <time>2010-03-06T00:25:48Z</time>
      </trkpt>
      <trkpt lat="43.97781" lon="3.60935">
        <ele>353</ele>
        <time>2010-03-06T00:25:53Z</time>
      </trkpt>
      <trkpt lat="43.97783" lon="3.6095">
        <ele>354</ele>
        <time>2010-03-06T00:25:58Z</time>
      </trkpt>
      <trkpt lat="43.9778" lon="3.6096">
        <ele>355</ele>
        <time>2010-03-06T00:26:03Z</time>
      </trkpt>
      <trkpt lat="43.97774" lon="3.60969">
        <ele>356</ele>
        <time>2010-03-06T00:26:08Z</time>
      </trkpt>
      <trkpt lat="43.97773" lon="3.60979">
        <ele>356</ele>
        <time>2010-03-06T00:26:13Z</time>
      </trkpt>
      <trkpt lat="43.97772" lon="3.60988">
        <ele>357</ele>
        <time>2010-03-06T00:26:18Z</time>
      </trkpt>
      <trkpt lat="43.97769" lon="3.60998">
        <ele>358</ele>
        <time>2010-03-06T00:26:23Z</time>
      </trkpt>
      <trkpt lat="43.97769" lon="3.61008">
        <ele>360</ele>
        <time>2010-03-06T00:26:28Z</time>
      </trkpt>
      <trkpt lat="43.97766" lon="3.61015">
        <ele>360</ele>
        <time>2010-03-06T00:26:33Z</time>
      </trkpt>
      <trkpt lat="43.97761" lon="3.61022">
        <ele>360</ele>
        <time>2010-03-06T00:26:38Z</time>
      </trkpt>
      <trkpt lat="43.97758" lon="3.61028">
        <ele>360</ele>
        <time>2010-03-06T00:26:43Z</time>
      </trkpt>
      <trkpt lat="43.97761" lon="3.61036">
        <ele>360</ele>
        <time>2010-03-06T00:26:48Z</time>
      </trkpt>
      <trkpt lat="43.9776" lon="3.61043">
        <ele>360</ele>
        <time>2010-03-06T00:26:53Z</time>
      </trkpt>
      <trkpt lat="43.97759" lon="3.6105">
        <ele>361</ele>
        <time>2010-03-06T00:26:58Z</time>
      </trkpt>
      <trkpt lat="43.97758" lon="3.61057">
        <ele>362</ele>
        <time>2010-03-06T00:27:03Z</time>
      </trkpt>
      <trkpt lat="43.97755" lon="3.61063">
        <ele>363</ele>
        <time>2010-03-06T00:27:08Z</time>
      </trkpt>
      <trkpt lat="43.97751" lon="3.61071">
        <ele>366</ele>
        <time>2010-03-06T00:27:13Z</time>
      </trkpt>
      <trkpt lat="43.97749" lon="3.61083">
        <ele>370</ele>
        <time>2010-03-06T00:27:18Z</time>
      </trkpt>
      <trkpt lat="43.97744" lon="3.61095">
        <ele>367</ele>
        <time>2010-03-06T00:27:23Z</time>
      </trkpt>
      <trkpt lat="43.97742" lon="3.61105">
        <ele>366</ele>
        <time>2010-03-06T00:27:28Z</time>
      </trkpt>
      <trkpt lat="43.97739" lon="3.61114">
        <ele>365</ele>
        <time>2010-03-06T00:27:33Z</time>
      </trkpt>
      <trkpt lat="43.97737" lon="3.61128">
        <ele>365</ele>
        <time>2010-03-06T00:27:38Z</time>
      </trkpt>
      <trkpt lat="43.97734" lon="3.61141">
        <ele>365</ele>
        <time>2010-03-06T00:27:43Z</time>
      </trkpt>
      <trkpt lat="43.97731" lon="3.61148">
        <ele>366</ele>
        <time>2010-03-06T00:27:48Z</time>
      </trkpt>
      <trkpt lat="43.97728" lon="3.61155">
        <ele>366</ele>
        <time>2010-03-06T00:27:53Z</time>
      </trkpt>
      <trkpt lat="43.97724" lon="3.61162">
        <ele>366</ele>
        <time>2010-03-06T00:27:58Z</time>
      </trkpt>
      <trkpt lat="43.97721" lon="3.61169">
        <ele>371</ele>
        <time>2010-03-06T00:28:03Z</time>
      </trkpt>
      <trkpt lat="43.97719" lon="3.61178">
        <ele>371</ele>
        <time>2010-03-06T00:28:08Z</time>
      </trkpt>
      <trkpt lat="43.97716" lon="3.61187">
        <ele>372</ele>
        <time>2010-03-06T00:28:13Z</time>
      </trkpt>
      <trkpt lat="43.97711" lon="3.61197">
        <ele>372</ele>
        <time>2010-03-06T00:28:18Z</time>
      </trkpt>
      <trkpt lat="43.97708" lon="3.61206">
        <ele>373</ele>
        <time>2010-03-06T00:28:23Z</time>
      </trkpt>
      <trkpt lat="43.97706" lon="3.61215">
        <ele>373</ele>
        <time>2010-03-06T00:28:28Z</time>
      </trkpt>
      <trkpt lat="43.97703" lon="3.61221">
        <ele>374</ele>
        <time>2010-03-06T00:28:33Z</time>
      </trkpt>
      <trkpt lat="43.977" lon="3.61229">
        <ele>375</ele>
        <time>2010-03-06T00:28:38Z</time>
      </trkpt>
      <trkpt lat="43.97698" lon="3.61233">
        <ele>376</ele>
        <time>2010-03-06T00:28:43Z</time>
      </trkpt>
      <trkpt lat="43.97693" lon="3.61238">
        <ele>377</ele>
        <time>2010-03-06T00:28:48Z</time>
      </trkpt>
      <trkpt lat="43.97688" lon="3.61246">
        <ele>379</ele>
        <time>2010-03-06T00:28:53Z</time>
      </trkpt>
      <trkpt lat="43.97686" lon="3.61251">
        <ele>383</ele>
        <time>2010-03-06T00:28:58Z</time>
      </trkpt>
      <trkpt lat="43.97685" lon="3.61263">
        <ele>383</ele>
        <time>2010-03-06T00:29:03Z</time>
      </trkpt>
      <trkpt lat="43.97683" lon="3.61271">
        <ele>382</ele>
        <time>2010-03-06T00:29:08Z</time>
      </trkpt>
      <trkpt lat="43.97682" lon="3.61286">
        <ele>382</ele>
        <time>2010-03-06T00:29:13Z</time>
      </trkpt>
      <trkpt lat="43.97681" lon="3.61298">
        <ele>383</ele>
        <time>2010-03-06T00:29:18Z</time>
      </trkpt>
      <trkpt lat="43.97678" lon="3.61313">
        <ele>385</ele>
        <time>2010-03-06T00:29:23Z</time>
      </trkpt>
      <trkpt lat="43.97674" lon="3.61326">
        <ele>388</ele>
        <time>2010-03-06T00:29:28Z</time>
      </trkpt>
      <trkpt lat="43.97673" lon="3.6134">
        <ele>390</ele>
        <time>2010-03-06T00:29:33Z</time>
      </trkpt>
      <trkpt lat="43.97673" lon="3.61354">
        <ele>388</ele>
        <time>2010-03-06T00:29:38Z</time>
      </trkpt>
      <trkpt lat="43.97675" lon="3.61366">
        <ele>387</ele>
        <time>2010-03-06T00:29:43Z</time>
      </trkpt>
      <trkpt lat="43.97677" lon="3.61379">
        <ele>386</ele>
        <time>2010-03-06T00:29:48Z</time>
      </trkpt>
      <trkpt lat="43.97678" lon="3.61389">
        <ele>387</ele>
        <time>2010-03-06T00:29:53Z</time>
      </trkpt>
      <trkpt lat="43.9768" lon="3.61402">
        <ele>387</ele>
        <time>2010-03-06T00:29:58Z</time>
      </trkpt>
      <trkpt lat="43.97685" lon="3.61413">
        <ele>387</ele>
        <time>2010-03-06T00:30:03Z</time>
      </trkpt>
      <trkpt lat="43.97686" lon="3.6142">
        <ele>392</ele>
        <time>2010-03-06T00:30:08Z</time>
      </trkpt>
      <trkpt lat="43.97687" lon="3.61429">
        <ele>392</ele>
        <time>2010-03-06T00:30:13Z</time>
      </trkpt>
      <trkpt lat="43.97691" lon="3.61436">
        <ele>392</ele>
        <time>2010-03-06T00:30:18Z</time>
      </trkpt>
      <trkpt lat="43.97695" lon="3.61442">
        <ele>392</ele>
        <time>2010-03-06T00:30:23Z</time>
      </trkpt>
      <trkpt lat="43.97698" lon="3.61448">
        <ele>393</ele>
        <time>2010-03-06T00:30:28Z</time>
      </trkpt>
      <trkpt lat="43.97699" lon="3.61455">
        <ele>393</ele>
        <time>2010-03-06T00:30:33Z</time>
      </trkpt>
      <trkpt lat="43.97701" lon="3.61465">
        <ele>394</ele>
        <time>2010-03-06T00:30:38Z</time>
      </trkpt>
      <trkpt lat="43.97701" lon="3.61471">
        <ele>394</ele>
        <time>2010-03-06T00:30:43Z</time>
      </trkpt>
      <trkpt lat="43.97704" lon="3.61475">
        <ele>395</ele>
        <time>2010-03-06T00:30:48Z</time>
      </trkpt>
      <trkpt lat="43.97707" lon="3.61481">
        <ele>395</ele>
        <time>2010-03-06T00:30:53Z</time>
      </trkpt>
      <trkpt lat="43.97717" lon="3.61482">
        <ele>396</ele>
        <time>2010-03-06T00:30:58Z</time>
      </trkpt>
      <trkpt lat="43.97724" lon="3.61489">
        <ele>397</ele>
        <time>2010-03-06T00:31:03Z</time>
      </trkpt>
      <trkpt lat="43.97725" lon="3.61494">
        <ele>398</ele>
        <time>2010-03-06T00:31:08Z</time>
      </trkpt>
      <trkpt lat="43.97724" lon="3.61498">
        <ele>398</ele>
        <time>2010-03-06T00:31:13Z</time>
      </trkpt>
      <trkpt lat="43.97717" lon="3.61502">
        <ele>405</ele>
        <time>2010-03-06T00:31:18Z</time>
      </trkpt>
      <trkpt lat="43.97711" lon="3.61505">
        <ele>404</ele>
        <time>2010-03-06T00:31:23Z</time>
      </trkpt>
      <trkpt lat="43.97706" lon="3.61512">
        <ele>404</ele>
        <time>2010-03-06T00:31:28Z</time>
      </trkpt>
      <trkpt lat="43.97704" lon="3.61522">
        <ele>404</ele>
        <time>2010-03-06T00:31:33Z</time>
      </trkpt>
      <trkpt lat="43.97702" lon="3.6153">
        <ele>404</ele>
        <time>2010-03-06T00:31:38Z</time>
      </trkpt>
      <trkpt lat="43.97701" lon="3.61541">
        <ele>405</ele>
        <time>2010-03-06T00:31:43Z</time>
      </trkpt>
      <trkpt lat="43.97702" lon="3.61551">
        <ele>405</ele>
        <time>2010-03-06T00:31:48Z</time>
      </trkpt>
      <trkpt lat="43.977" lon="3.6156">
        <ele>405</ele>
        <time>2010-03-06T00:31:53Z</time>
      </trkpt>
      <trkpt lat="43.97698" lon="3.61567">
        <ele>405</ele>
        <time>2010-03-06T00:31:58Z</time>
      </trkpt>
      <trkpt lat="43.97696" lon="3.61576">
        <ele>405</ele>
        <time>2010-03-06T00:32:03Z</time>
      </trkpt>
      <trkpt lat="43.97697" lon="3.61586">
        <ele>410</ele>
        <time>2010-03-06T00:32:08Z</time>
      </trkpt>
      <trkpt lat="43.977" lon="3.61596">
        <ele>412</ele>
        <time>2010-03-06T00:32:13Z</time>
      </trkpt>
      <trkpt lat="43.97702" lon="3.61605">
        <ele>413</ele>
        <time>2010-03-06T00:32:18Z</time>
      </trkpt>
      <trkpt lat="43.97704" lon="3.61611">
        <ele>413</ele>
        <time>2010-03-06T00:32:23Z</time>
      </trkpt>
      <trkpt lat="43.97703" lon="3.61621">
        <ele>414</ele>
        <time>2010-03-06T00:32:28Z</time>
      </trkpt>
      <trkpt lat="43.97703" lon="3.61631">
        <ele>414</ele>
        <time>2010-03-06T00:32:33Z</time>
      </trkpt>
      <trkpt lat="43.97702" lon="3.6164">
        <ele>414</ele>
        <time>2010-03-06T00:32:38Z</time>
      </trkpt>
      <trkpt lat="43.97701" lon="3.61649">
        <ele>415</ele>
        <time>2010-03-06T00:32:43Z</time>
      </trkpt>
      <trkpt lat="43.977" lon="3.61656">
        <ele>415</ele>
        <time>2010-03-06T00:32:48Z</time>
      </trkpt>
      <trkpt lat="43.97698" lon="3.61665">
        <ele>415</ele>
        <time>2010-03-06T00:32:53Z</time>
      </trkpt>
      <trkpt lat="43.97697" lon="3.61673">
        <ele>418</ele>
        <time>2010-03-06T00:32:58Z</time>
      </trkpt>
      <trkpt lat="43.97697" lon="3.61681">
        <ele>418</ele>
        <time>2010-03-06T00:33:03Z</time>
      </trkpt>
      <trkpt lat="43.97697" lon="3.61688">
        <ele>418</ele>
        <time>2010-03-06T00:33:08Z</time>
      </trkpt>
      <trkpt lat="43.97696" lon="3.61698">
        <ele>419</ele>
        <time>2010-03-06T00:33:13Z</time>
      </trkpt>
      <trkpt lat="43.97691" lon="3.61707">
        <ele>419</ele>
        <time>2010-03-06T00:33:18Z</time>
      </trkpt>
      <trkpt lat="43.97688" lon="3.61713">
        <ele>420</ele>
        <time>2010-03-06T00:33:23Z</time>
      </trkpt>
      <trkpt lat="43.97685" lon="3.6172">
        <ele>421</ele>
        <time>2010-03-06T00:33:28Z</time>
      </trkpt>
      <trkpt lat="43.97681" lon="3.61725">
        <ele>422</ele>
        <time>2010-03-06T00:33:33Z</time>
      </trkpt>
      <trkpt lat="43.97672" lon="3.61738">
        <ele>425</ele>
        <time>2010-03-06T00:33:38Z</time>
      </trkpt>
      <trkpt lat="43.97664" lon="3.61748">
        <ele>428</ele>
        <time>2010-03-06T00:33:43Z</time>
      </trkpt>
      <trkpt lat="43.97653" lon="3.61757">
        <ele>431</ele>
        <time>2010-03-06T00:33:48Z</time>
      </trkpt>
      <trkpt lat="43.97643" lon="3.61763">
        <ele>432</ele>
        <time>2010-03-06T00:33:53Z</time>
      </trkpt>
      <trkpt lat="43.9763" lon="3.61771">
        <ele>432</ele>
        <time>2010-03-06T00:33:58Z</time>
      </trkpt>
      <trkpt lat="43.97623" lon="3.61779">
        <ele>432</ele>
        <time>2010-03-06T00:34:03Z</time>
      </trkpt>
      <trkpt lat="43.97613" lon="3.61784">
        <ele>432</ele>
        <time>2010-03-06T00:34:08Z</time>
      </trkpt>
      <trkpt lat="43.97603" lon="3.61789">
        <ele>433</ele>
        <time>2010-03-06T00:34:13Z</time>
      </trkpt>
      <trkpt lat="43.97595" lon="3.61792">
        <ele>433</ele>
        <time>2010-03-06T00:34:18Z</time>
      </trkpt>
      <trkpt lat="43.97581" lon="3.61795">
        <ele>433</ele>
        <time>2010-03-06T00:34:23Z</time>
      </trkpt>
      <trkpt lat="43.97569" lon="3.61801">
        <ele>434</ele>
        <time>2010-03-06T00:34:28Z</time>
      </trkpt>
      <trkpt lat="43.97558" lon="3.61803">
        <ele>435</ele>
        <time>2010-03-06T00:34:33Z</time>
      </trkpt>
      <trkpt lat="43.9755" lon="3.61805">
        <ele>435</ele>
        <time>2010-03-06T00:34:38Z</time>
      </trkpt>
      <trkpt lat="43.97539" lon="3.61807">
        <ele>435</ele>
        <time>2010-03-06T00:34:43Z</time>
      </trkpt>
      <trkpt lat="43.97526" lon="3.61808">
        <ele>436</ele>
        <time>2010-03-06T00:34:48Z</time>
      </trkpt>
      <trkpt lat="43.97514" lon="3.6181">
        <ele>437</ele>
        <time>2010-03-06T00:34:53Z</time>
      </trkpt>
      <trkpt lat="43.97506" lon="3.61799">
        <ele>435</ele>
        <time>2010-03-06T00:34:58Z</time>
      </trkpt>
      <trkpt lat="43.97505" lon="3.61788">
        <ele>433</ele>
        <time>2010-03-06T00:35:03Z</time>
      </trkpt>
      <trkpt lat="43.975" lon="3.61771">
        <ele>429</ele>
        <time>2010-03-06T00:35:08Z</time>
      </trkpt>
      <trkpt lat="43.97494" lon="3.61758">
        <ele>429</ele>
        <time>2010-03-06T00:35:13Z</time>
      </trkpt>
      <trkpt lat="43.97487" lon="3.61746">
        <ele>421</ele>
        <time>2010-03-06T00:35:18Z</time>
      </trkpt>
      <trkpt lat="43.97484" lon="3.61735">
        <ele>420</ele>
        <time>2010-03-06T00:35:23Z</time>
      </trkpt>
      <trkpt lat="43.9748" lon="3.6172">
        <ele>418</ele>
        <time>2010-03-06T00:35:28Z</time>
      </trkpt>
      <trkpt lat="43.97476" lon="3.61702">
        <ele>415</ele>
        <time>2010-03-06T00:35:33Z</time>
      </trkpt>
      <trkpt lat="43.97469" lon="3.61688">
        <ele>414</ele>
        <time>2010-03-06T00:35:38Z</time>
      </trkpt>
      <trkpt lat="43.97459" lon="3.61679">
        <ele>414</ele>
        <time>2010-03-06T00:35:43Z</time>
      </trkpt>
      <trkpt lat="43.97449" lon="3.61678">
        <ele>414</ele>
        <time>2010-03-06T00:35:48Z</time>
      </trkpt>
      <trkpt lat="43.97439" lon="3.61684">
        <ele>414</ele>
        <time>2010-03-06T00:35:53Z</time>
      </trkpt>
      <trkpt lat="43.97429" lon="3.61691">
        <ele>415</ele>
        <time>2010-03-06T00:35:58Z</time>
      </trkpt>
      <trkpt lat="43.9742" lon="3.617">
        <ele>417</ele>
        <time>2010-03-06T00:36:03Z</time>
      </trkpt>
      <trkpt lat="43.9741" lon="3.61709">
        <ele>416</ele>
        <time>2010-03-06T00:36:08Z</time>
      </trkpt>
      <trkpt lat="43.97402" lon="3.61717">
        <ele>417</ele>
        <time>2010-03-06T00:36:13Z</time>
      </trkpt>
      <trkpt lat="43.97388" lon="3.61727">
        <ele>417</ele>
        <time>2010-03-06T00:36:18Z</time>
      </trkpt>
      <trkpt lat="43.97379" lon="3.61737">
        <ele>417</ele>
        <time>2010-03-06T00:36:23Z</time>
      </trkpt>
      <trkpt lat="43.97369" lon="3.61748">
        <ele>416</ele>
        <time>2010-03-06T00:36:28Z</time>
      </trkpt>
      <trkpt lat="43.97365" lon="3.61758">
        <ele>428</ele>
        <time>2010-03-06T00:36:33Z</time>
      </trkpt>
      <trkpt lat="43.97356" lon="3.61765">
        <ele>427</ele>
        <time>2010-03-06T00:36:38Z</time>
      </trkpt>
      <trkpt lat="43.97343" lon="3.61768">
        <ele>425</ele>
        <time>2010-03-06T00:36:43Z</time>
      </trkpt>
      <trkpt lat="43.97333" lon="3.61773">
        <ele>417</ele>
        <time>2010-03-06T00:36:48Z</time>
      </trkpt>
      <trkpt lat="43.97323" lon="3.6178">
        <ele>417</ele>
        <time>2010-03-06T00:36:53Z</time>
      </trkpt>
      <trkpt lat="43.97314" lon="3.61785">
        <ele>417</ele>
        <time>2010-03-06T00:36:58Z</time>
      </trkpt>
      <trkpt lat="43.97301" lon="3.61788">
        <ele>417</ele>
        <time>2010-03-06T00:37:03Z</time>
      </trkpt>
      <trkpt lat="43.9729" lon="3.61793">
        <ele>416</ele>
        <time>2010-03-06T00:37:08Z</time>
      </trkpt>
      <trkpt lat="43.97279" lon="3.61798">
        <ele>415</ele>
        <time>2010-03-06T00:37:13Z</time>
      </trkpt>
      <trkpt lat="43.9727" lon="3.618">
        <ele>415</ele>
        <time>2010-03-06T00:37:18Z</time>
      </trkpt>
      <trkpt lat="43.9726" lon="3.61796">
        <ele>414</ele>
        <time>2010-03-06T00:37:23Z</time>
      </trkpt>
      <trkpt lat="43.97249" lon="3.61785">
        <ele>404</ele>
        <time>2010-03-06T00:37:28Z</time>
      </trkpt>
      <trkpt lat="43.97244" lon="3.6177">
        <ele>404</ele>
        <time>2010-03-06T00:37:33Z</time>
      </trkpt>
      <trkpt lat="43.97235" lon="3.61758">
        <ele>404</ele>
        <time>2010-03-06T00:37:38Z</time>
      </trkpt>
      <trkpt lat="43.97227" lon="3.61752">
        <ele>404</ele>
        <time>2010-03-06T00:37:43Z</time>
      </trkpt>
      <trkpt lat="43.97214" lon="3.61746">
        <ele>402</ele>
        <time>2010-03-06T00:37:48Z</time>
      </trkpt>
      <trkpt lat="43.97202" lon="3.61743">
        <ele>401</ele>
        <time>2010-03-06T00:37:53Z</time>
      </trkpt>
      <trkpt lat="43.97193" lon="3.61743">
        <ele>401</ele>
        <time>2010-03-06T00:37:58Z</time>
      </trkpt>
      <trkpt lat="43.97182" lon="3.61744">
        <ele>400</ele>
        <time>2010-03-06T00:38:03Z</time>
      </trkpt>
      <trkpt lat="43.9717" lon="3.61744">
        <ele>400</ele>
        <time>2010-03-06T00:38:08Z</time>
      </trkpt>
      <trkpt lat="43.97157" lon="3.6175">
        <ele>398</ele>
        <time>2010-03-06T00:38:13Z</time>
      </trkpt>
      <trkpt lat="43.97146" lon="3.61751">
        <ele>396</ele>
        <time>2010-03-06T00:38:18Z</time>
      </trkpt>
      <trkpt lat="43.97134" lon="3.61747">
        <ele>396</ele>
        <time>2010-03-06T00:38:23Z</time>
      </trkpt>
      <trkpt lat="43.97126" lon="3.61743">
        <ele>395</ele>
        <time>2010-03-06T00:38:28Z</time>
      </trkpt>
      <trkpt lat="43.97111" lon="3.6174">
        <ele>395</ele>
        <time>2010-03-06T00:38:33Z</time>
      </trkpt>
      <trkpt lat="43.97099" lon="3.61742">
        <ele>394</ele>
        <time>2010-03-06T00:38:38Z</time>
      </trkpt>
      <trkpt lat="43.97088" lon="3.6174">
        <ele>394</ele>
        <time>2010-03-06T00:38:43Z</time>
      </trkpt>
      <trkpt lat="43.9708" lon="3.61738">
        <ele>391</ele>
        <time>2010-03-06T00:38:48Z</time>
      </trkpt>
      <trkpt lat="43.97075" lon="3.61745">
        <ele>391</ele>
        <time>2010-03-06T00:38:53Z</time>
      </trkpt>
      <trkpt lat="43.9708" lon="3.61759">
        <ele>390</ele>
        <time>2010-03-06T00:38:58Z</time>
      </trkpt>
      <trkpt lat="43.97086" lon="3.61765">
        <ele>392</ele>
        <time>2010-03-06T00:39:03Z</time>
      </trkpt>
      <trkpt lat="43.97096" lon="3.61767">
        <ele>392</ele>
        <time>2010-03-06T00:39:08Z</time>
      </trkpt>
      <trkpt lat="43.97104" lon="3.61768">
        <ele>392</ele>
        <time>2010-03-06T00:39:13Z</time>
      </trkpt>
      <trkpt lat="43.97118" lon="3.61772">
        <ele>393</ele>
        <time>2010-03-06T00:39:18Z</time>
      </trkpt>
      <trkpt lat="43.97128" lon="3.61785">
        <ele>392</ele>
        <time>2010-03-06T00:39:23Z</time>
      </trkpt>
      <trkpt lat="43.97136" lon="3.618">
        <ele>392</ele>
        <time>2010-03-06T00:39:28Z</time>
      </trkpt>
      <trkpt lat="43.97143" lon="3.61815">
        <ele>392</ele>
        <time>2010-03-06T00:39:33Z</time>
      </trkpt>
      <trkpt lat="43.97147" lon="3.61828">
        <ele>392</ele>
        <time>2010-03-06T00:39:38Z</time>
      </trkpt>
      <trkpt lat="43.97146" lon="3.61847">
        <ele>389</ele>
        <time>2010-03-06T00:39:43Z</time>
      </trkpt>
      <trkpt lat="43.97137" lon="3.61862">
        <ele>388</ele>
        <time>2010-03-06T00:39:48Z</time>
      </trkpt>
      <trkpt lat="43.97129" lon="3.61877">
        <ele>388</ele>
        <time>2010-03-06T00:39:53Z</time>
      </trkpt>
      <trkpt lat="43.97126" lon="3.6189">
        <ele>388</ele>
        <time>2010-03-06T00:39:58Z</time>
      </trkpt>
      <trkpt lat="43.97126" lon="3.61906">
        <ele>388</ele>
        <time>2010-03-06T00:40:03Z</time>
      </trkpt>
      <trkpt lat="43.97137" lon="3.61919">
        <ele>388</ele>
        <time>2010-03-06T00:40:08Z</time>
      </trkpt>
      <trkpt lat="43.97149" lon="3.61925">
        <ele>387</ele>
        <time>2010-03-06T00:40:13Z</time>
      </trkpt>
      <trkpt lat="43.97162" lon="3.61933">
        <ele>387</ele>
        <time>2010-03-06T00:40:18Z</time>
      </trkpt>
      <trkpt lat="43.9717" lon="3.61941">
        <ele>389</ele>
        <time>2010-03-06T00:40:23Z</time>
      </trkpt>
      <trkpt lat="43.97179" lon="3.61953">
        <ele>389</ele>
        <time>2010-03-06T00:40:28Z</time>
      </trkpt>
      <trkpt lat="43.97191" lon="3.61967">
        <ele>389</ele>
        <time>2010-03-06T00:40:33Z</time>
      </trkpt>
      <trkpt lat="43.97199" lon="3.61979">
        <ele>390</ele>
        <time>2010-03-06T00:40:38Z</time>
      </trkpt>
      <trkpt lat="43.97201" lon="3.61991">
        <ele>389</ele>
        <time>2010-03-06T00:40:43Z</time>
      </trkpt>
      <trkpt lat="43.97192" lon="3.62003">
        <ele>383</ele>
        <time>2010-03-06T00:40:48Z</time>
      </trkpt>
      <trkpt lat="43.97177" lon="3.62002">
        <ele>381</ele>
        <time>2010-03-06T00:40:53Z</time>
      </trkpt>
      <trkpt lat="43.97166" lon="3.62003">
        <ele>380</ele>
        <time>2010-03-06T00:40:58Z</time>
      </trkpt>
      <trkpt lat="43.97163" lon="3.62017">
        <ele>382</ele>
        <time>2010-03-06T00:41:03Z</time>
      </trkpt>
      <trkpt lat="43.97165" lon="3.62022">
        <ele>382</ele>
        <time>2010-03-06T00:41:08Z</time>
      </trkpt>
      <trkpt lat="43.97176" lon="3.62028">
        <ele>382</ele>
        <time>2010-03-06T00:41:13Z</time>
      </trkpt>
      <trkpt lat="43.97188" lon="3.62044">
        <ele>382</ele>
        <time>2010-03-06T00:41:18Z</time>
      </trkpt>
      <trkpt lat="43.97192" lon="3.62059">
        <ele>382</ele>
        <time>2010-03-06T00:41:23Z</time>
      </trkpt>
      <trkpt lat="43.97197" lon="3.62069">
        <ele>382</ele>
        <time>2010-03-06T00:41:28Z</time>
      </trkpt>
      <trkpt lat="43.97203" lon="3.62084">
        <ele>376</ele>
        <time>2010-03-06T00:41:33Z</time>
      </trkpt>
      <trkpt lat="43.97208" lon="3.62102">
        <ele>375</ele>
        <time>2010-03-06T00:41:38Z</time>
      </trkpt>
      <trkpt lat="43.97215" lon="3.62114">
        <ele>375</ele>
        <time>2010-03-06T00:41:43Z</time>
      </trkpt>
      <trkpt lat="43.97222" lon="3.62125">
        <ele>374</ele>
        <time>2010-03-06T00:41:48Z</time>
      </trkpt>
      <trkpt lat="43.97228" lon="3.62132">
        <ele>373</ele>
        <time>2010-03-06T00:41:53Z</time>
      </trkpt>
      <trkpt lat="43.97231" lon="3.62146">
        <ele>371</ele>
        <time>2010-03-06T00:41:58Z</time>
      </trkpt>
      <trkpt lat="43.97218" lon="3.62138">
        <ele>373</ele>
        <time>2010-03-06T00:42:03Z</time>
      </trkpt>
      <trkpt lat="43.97208" lon="3.6213">
        <ele>373</ele>
        <time>2010-03-06T00:42:08Z</time>
      </trkpt>
      <trkpt lat="43.97201" lon="3.62127">
        <ele>373</ele>
        <time>2010-03-06T00:42:13Z</time>
      </trkpt>
      <trkpt lat="43.97201" lon="3.62134">
        <ele>373</ele>
        <time>2010-03-06T00:42:18Z</time>
      </trkpt>
      <trkpt lat="43.97209" lon="3.62148">
        <ele>372</ele>
        <time>2010-03-06T00:42:23Z</time>
      </trkpt>
      <trkpt lat="43.97213" lon="3.62164">
        <ele>371</ele>
        <time>2010-03-06T00:42:28Z</time>
      </trkpt>
      <trkpt lat="43.97206" lon="3.62181">
        <ele>362</ele>
        <time>2010-03-06T00:42:33Z</time>
      </trkpt>
      <trkpt lat="43.97202" lon="3.62191">
        <ele>361</ele>
        <time>2010-03-06T00:42:38Z</time>
      </trkpt>
      <trkpt lat="43.97197" lon="3.62203">
        <ele>360</ele>
        <time>2010-03-06T00:42:43Z</time>
      </trkpt>
      <trkpt lat="43.97192" lon="3.6222">
        <ele>359</ele>
        <time>2010-03-06T00:42:48Z</time>
      </trkpt>
      <trkpt lat="43.97186" lon="3.62232">
        <ele>357</ele>
        <time>2010-03-06T00:42:53Z</time>
      </trkpt>
      <trkpt lat="43.97181" lon="3.62244">
        <ele>355</ele>
        <time>2010-03-06T00:42:58Z</time>
      </trkpt>
      <trkpt lat="43.97179" lon="3.62254">
        <ele>351</ele>
        <time>2010-03-06T00:43:03Z</time>
      </trkpt>
      <trkpt lat="43.97176" lon="3.62272">
        <ele>350</ele>
        <time>2010-03-06T00:43:08Z</time>
      </trkpt>
      <trkpt lat="43.97182" lon="3.62286">
        <ele>349</ele>
        <time>2010-03-06T00:43:13Z</time>
      </trkpt>
      <trkpt lat="43.97179" lon="3.62301">
        <ele>348</ele>
        <time>2010-03-06T00:43:18Z</time>
      </trkpt>
      <trkpt lat="43.97174" lon="3.62311">
        <ele>346</ele>
        <time>2010-03-06T00:43:23Z</time>
      </trkpt>
      <trkpt lat="43.97168" lon="3.62325">
        <ele>343</ele>
        <time>2010-03-06T00:43:28Z</time>
      </trkpt>
      <trkpt lat="43.97162" lon="3.62342">
        <ele>338</ele>
        <time>2010-03-06T00:43:33Z</time>
      </trkpt>
      <trkpt lat="43.9716" lon="3.62358">
        <ele>336</ele>
        <time>2010-03-06T00:43:38Z</time>
      </trkpt>
      <trkpt lat="43.9716" lon="3.62371">
        <ele>336</ele>
        <time>2010-03-06T00:43:43Z</time>
      </trkpt>
      <trkpt lat="43.97161" lon="3.62378">
        <ele>336</ele>
        <time>2010-03-06T00:43:48Z</time>
      </trkpt>
      <trkpt lat="43.97162" lon="3.62387">
        <ele>337</ele>
        <time>2010-03-06T00:43:53Z</time>
      </trkpt>
      <trkpt lat="43.97165" lon="3.62394">
        <ele>337</ele>
        <time>2010-03-06T00:43:58Z</time>
      </trkpt>
      <trkpt lat="43.97171" lon="3.62402">
        <ele>342</ele>
        <time>2010-03-06T00:44:03Z</time>
      </trkpt>
      <trkpt lat="43.97173" lon="3.6241">
        <ele>342</ele>
        <time>2010-03-06T00:44:08Z</time>
      </trkpt>
      <trkpt lat="43.97175" lon="3.62422">
        <ele>340</ele>
        <time>2010-03-06T00:44:13Z</time>
      </trkpt>
      <trkpt lat="43.97179" lon="3.62439">
        <ele>339</ele>
        <time>2010-03-06T00:44:18Z</time>
      </trkpt>
      <trkpt lat="43.97176" lon="3.62454">
        <ele>338</ele>
        <time>2010-03-06T00:44:23Z</time>
      </trkpt>
      <trkpt lat="43.97176" lon="3.6247">
        <ele>337</ele>
        <time>2010-03-06T00:44:28Z</time>
      </trkpt>
      <trkpt lat="43.97178" lon="3.62481">
        <ele>337</ele>
        <time>2010-03-06T00:44:33Z</time>
      </trkpt>
      <trkpt lat="43.97184" lon="3.62492">
        <ele>337</ele>
        <time>2010-03-06T00:44:38Z</time>
      </trkpt>
      <trkpt lat="43.97193" lon="3.62493">
        <ele>337</ele>
        <time>2010-03-06T00:44:43Z</time>
      </trkpt>
      <trkpt lat="43.97203" lon="3.62497">
        <ele>336</ele>
        <time>2010-03-06T00:44:48Z</time>
      </trkpt>
      <trkpt lat="43.97212" lon="3.62501">
        <ele>330</ele>
        <time>2010-03-06T00:44:53Z</time>
      </trkpt>
      <trkpt lat="43.97219" lon="3.6251">
        <ele>329</ele>
        <time>2010-03-06T00:44:58Z</time>
      </trkpt>
      <trkpt lat="43.97231" lon="3.62513">
        <ele>328</ele>
        <time>2010-03-06T00:45:03Z</time>
      </trkpt>
      <trkpt lat="43.97241" lon="3.6252">
        <ele>328</ele>
        <time>2010-03-06T00:45:08Z</time>
      </trkpt>
      <trkpt lat="43.97244" lon="3.6253">
        <ele>328</ele>
        <time>2010-03-06T00:45:13Z</time>
      </trkpt>
      <trkpt lat="43.97249" lon="3.62532">
        <ele>327</ele>
        <time>2010-03-06T00:45:18Z</time>
      </trkpt>
      <trkpt lat="43.97254" lon="3.62532">
        <ele>322</ele>
        <time>2010-03-06T00:45:23Z</time>
      </trkpt>
      <trkpt lat="43.97257" lon="3.62534">
        <ele>322</ele>
        <time>2010-03-06T00:45:28Z</time>
      </trkpt>
      <trkpt lat="43.97261" lon="3.62531">
        <ele>322</ele>
        <time>2010-03-06T00:45:33Z</time>
      </trkpt>
      <trkpt lat="43.97266" lon="3.62531">
        <ele>321</ele>
        <time>2010-03-06T00:45:38Z</time>
      </trkpt>
      <trkpt lat="43.97271" lon="3.62533">
        <ele>321</ele>
        <time>2010-03-06T00:45:43Z</time>
      </trkpt>
      <trkpt lat="43.97276" lon="3.62535">
        <ele>320</ele>
        <time>2010-03-06T00:45:48Z</time>
      </trkpt>
      <trkpt lat="43.97281" lon="3.62541">
        <ele>319</ele>
        <time>2010-03-06T00:45:53Z</time>
      </trkpt>
      <trkpt lat="43.97285" lon="3.62547">
        <ele>319</ele>
        <time>2010-03-06T00:45:58Z</time>
      </trkpt>
      <trkpt lat="43.97288" lon="3.62551">
        <ele>318</ele>
        <time>2010-03-06T00:46:03Z</time>
      </trkpt>
      <trkpt lat="43.97291" lon="3.62554">
        <ele>318</ele>
        <time>2010-03-06T00:46:08Z</time>
      </trkpt>
      <trkpt lat="43.97294" lon="3.62557">
        <ele>317</ele>
        <time>2010-03-06T00:46:13Z</time>
      </trkpt>
      <trkpt lat="43.97303" lon="3.6256">
        <ele>316</ele>
        <time>2010-03-06T00:46:18Z</time>
      </trkpt>
      <trkpt lat="43.97307" lon="3.62565">
        <ele>315</ele>
        <time>2010-03-06T00:46:23Z</time>
      </trkpt>
      <trkpt lat="43.97312" lon="3.62568">
        <ele>314</ele>
        <time>2010-03-06T00:46:28Z</time>
      </trkpt>
      <trkpt lat="43.97319" lon="3.62573">
        <ele>312</ele>
        <time>2010-03-06T00:46:33Z</time>
      </trkpt>
      <trkpt lat="43.97325" lon="3.6258">
        <ele>310</ele>
        <time>2010-03-06T00:46:38Z</time>
      </trkpt>
      <trkpt lat="43.9733" lon="3.62586">
        <ele>306</ele>
        <time>2010-03-06T00:46:43Z</time>
      </trkpt>
      <trkpt lat="43.97333" lon="3.62593">
        <ele>306</ele>
        <time>2010-03-06T00:46:48Z</time>
      </trkpt>
      <trkpt lat="43.97334" lon="3.62607">
        <ele>301</ele>
        <time>2010-03-06T00:46:53Z</time>
      </trkpt>
      <trkpt lat="43.97341" lon="3.62622">
        <ele>299</ele>
        <time>2010-03-06T00:46:58Z</time>
      </trkpt>
      <trkpt lat="43.97348" lon="3.62638">
        <ele>298</ele>
        <time>2010-03-06T00:47:03Z</time>
      </trkpt>
      <trkpt lat="43.97352" lon="3.62652">
        <ele>297</ele>
        <time>2010-03-06T00:47:08Z</time>
      </trkpt>
      <trkpt lat="43.9736" lon="3.62661">
        <ele>296</ele>
        <time>2010-03-06T00:47:13Z</time>
      </trkpt>
      <trkpt lat="43.97374" lon="3.62671">
        <ele>291</ele>
        <time>2010-03-06T00:47:18Z</time>
      </trkpt>
      <trkpt lat="43.97386" lon="3.62677">
        <ele>290</ele>
        <time>2010-03-06T00:47:23Z</time>
      </trkpt>
      <trkpt lat="43.97398" lon="3.62681">
        <ele>289</ele>
        <time>2010-03-06T00:47:28Z</time>
      </trkpt>
      <trkpt lat="43.97407" lon="3.62686">
        <ele>289</ele>
        <time>2010-03-06T00:47:33Z</time>
      </trkpt>
      <trkpt lat="43.97418" lon="3.62694">
        <ele>287</ele>
        <time>2010-03-06T00:47:38Z</time>
      </trkpt>
      <trkpt lat="43.9743" lon="3.62706">
        <ele>287</ele>
        <time>2010-03-06T00:47:43Z</time>
      </trkpt>
      <trkpt lat="43.97438" lon="3.62719">
        <ele>287</ele>
        <time>2010-03-06T00:47:48Z</time>
      </trkpt>
      <trkpt lat="43.97447" lon="3.62729">
        <ele>287</ele>
        <time>2010-03-06T00:47:53Z</time>
      </trkpt>
      <trkpt lat="43.97455" lon="3.62733">
        <ele>288</ele>
        <time>2010-03-06T00:47:58Z</time>
      </trkpt>
      <trkpt lat="43.97467" lon="3.62742">
        <ele>288</ele>
        <time>2010-03-06T00:48:03Z</time>
      </trkpt>
      <trkpt lat="43.97477" lon="3.62747">
        <ele>288</ele>
        <time>2010-03-06T00:48:08Z</time>
      </trkpt>
      <trkpt lat="43.97486" lon="3.62753">
        <ele>292</ele>
        <time>2010-03-06T00:48:13Z</time>
      </trkpt>
      <trkpt lat="43.97489" lon="3.62759">
        <ele>292</ele>
        <time>2010-03-06T00:48:18Z</time>
      </trkpt>
      <trkpt lat="43.97493" lon="3.62766">
        <ele>293</ele>
        <time>2010-03-06T00:48:23Z</time>
      </trkpt>
      <trkpt lat="43.97499" lon="3.62765">
        <ele>292</ele>
        <time>2010-03-06T00:48:28Z</time>
      </trkpt>
      <trkpt lat="43.97506" lon="3.62766">
        <ele>293</ele>
        <time>2010-03-06T00:48:33Z</time>
      </trkpt>
      <trkpt lat="43.97513" lon="3.62767">
        <ele>293</ele>
        <time>2010-03-06T00:48:38Z</time>
      </trkpt>
      <trkpt lat="43.97517" lon="3.62768">
        <ele>293</ele>
        <time>2010-03-06T00:48:43Z</time>
      </trkpt>
      <trkpt lat="43.97525" lon="3.62771">
        <ele>293</ele>
        <time>2010-03-06T00:48:48Z</time>
      </trkpt>
      <trkpt lat="43.97532" lon="3.62773">
        <ele>293</ele>
        <time>2010-03-06T00:48:53Z</time>
      </trkpt>
      <trkpt lat="43.97541" lon="3.62778">
        <ele>293</ele>
        <time>2010-03-06T00:48:58Z</time>
      </trkpt>
      <trkpt lat="43.9755" lon="3.62781">
        <ele>293</ele>
        <time>2010-03-06T00:49:03Z</time>
      </trkpt>
      <trkpt lat="43.97555" lon="3.62785">
        <ele>293</ele>
        <time>2010-03-06T00:49:08Z</time>
      </trkpt>
      <trkpt lat="43.97563" lon="3.62788">
        <ele>293</ele>
        <time>2010-03-06T00:49:13Z</time>
      </trkpt>
      <trkpt lat="43.97568" lon="3.62791">
        <ele>293</ele>
        <time>2010-03-06T00:49:18Z</time>
      </trkpt>
      <trkpt lat="43.97578" lon="3.62798">
        <ele>294</ele>
        <time>2010-03-06T00:49:23Z</time>
      </trkpt>
      <trkpt lat="43.97584" lon="3.62801">
        <ele>292</ele>
        <time>2010-03-06T00:49:28Z</time>
      </trkpt>
      <trkpt lat="43.97593" lon="3.62806">
        <ele>292</ele>
        <time>2010-03-06T00:49:33Z</time>
      </trkpt>
      <trkpt lat="43.97596" lon="3.62813">
        <ele>293</ele>
        <time>2010-03-06T00:49:38Z</time>
      </trkpt>
      <trkpt lat="43.97599" lon="3.62816">
        <ele>293</ele>
        <time>2010-03-06T00:49:43Z</time>
      </trkpt>
      <trkpt lat="43.976" lon="3.6282">
        <ele>293</ele>
        <time>2010-03-06T00:49:48Z</time>
      </trkpt>
      <trkpt lat="43.97598" lon="3.62825">
        <ele>294</ele>
        <time>2010-03-06T00:49:53Z</time>
      </trkpt>
      <trkpt lat="43.97599" lon="3.6283">
        <ele>294</ele>
        <time>2010-03-06T00:49:58Z</time>
      </trkpt>
      <trkpt lat="43.97598" lon="3.62834">
        <ele>298</ele>
        <time>2010-03-06T00:50:03Z</time>
      </trkpt>
      <trkpt lat="43.97594" lon="3.62837">
        <ele>298</ele>
        <time>2010-03-06T00:50:08Z</time>
      </trkpt>
      <trkpt lat="43.97591" lon="3.62833">
        <ele>295</ele>
        <time>2010-03-06T00:50:13Z</time>
      </trkpt>
      <trkpt lat="43.97586" lon="3.62829">
        <ele>296</ele>
        <time>2010-03-06T00:50:18Z</time>
      </trkpt>
      <trkpt lat="43.97581" lon="3.62824">
        <ele>296</ele>
        <time>2010-03-06T00:50:23Z</time>
      </trkpt>
      <trkpt lat="43.97575" lon="3.62822">
        <ele>296</ele>
        <time>2010-03-06T00:50:28Z</time>
      </trkpt>
      <trkpt lat="43.97569" lon="3.6282">
        <ele>296</ele>
        <time>2010-03-06T00:50:33Z</time>
      </trkpt>
      <trkpt lat="43.97565" lon="3.62818">
        <ele>296</ele>
        <time>2010-03-06T00:50:38Z</time>
      </trkpt>
      <trkpt lat="43.97559" lon="3.62814">
        <ele>296</ele>
        <time>2010-03-06T00:50:43Z</time>
      </trkpt>
      <trkpt lat="43.97553" lon="3.62812">
        <ele>296</ele>
        <time>2010-03-06T00:50:48Z</time>
      </trkpt>
      <trkpt lat="43.97548" lon="3.62812">
        <ele>296</ele>
        <time>2010-03-06T00:50:53Z</time>
      </trkpt>
      <trkpt lat="43.97542" lon="3.62814">
        <ele>296</ele>
        <time>2010-03-06T00:50:58Z</time>
      </trkpt>
      <trkpt lat="43.97537" lon="3.62812">
        <ele>296</ele>
        <time>2010-03-06T00:51:03Z</time>
      </trkpt>
      <trkpt lat="43.97532" lon="3.62809">
        <ele>297</ele>
        <time>2010-03-06T00:51:08Z</time>
      </trkpt>
      <trkpt lat="43.97526" lon="3.62809">
        <ele>297</ele>
        <time>2010-03-06T00:51:13Z</time>
      </trkpt>
      <trkpt lat="43.97521" lon="3.62812">
        <ele>298</ele>
        <time>2010-03-06T00:51:18Z</time>
      </trkpt>
      <trkpt lat="43.97518" lon="3.62818">
        <ele>299</ele>
        <time>2010-03-06T00:51:23Z</time>
      </trkpt>
      <trkpt lat="43.97518" lon="3.62826">
        <ele>300</ele>
        <time>2010-03-06T00:51:28Z</time>
      </trkpt>
      <trkpt lat="43.97523" lon="3.62836">
        <ele>306</ele>
        <time>2010-03-06T00:51:33Z</time>
      </trkpt>
      <trkpt lat="43.97527" lon="3.62846">
        <ele>306</ele>
        <time>2010-03-06T00:51:38Z</time>
      </trkpt>
      <trkpt lat="43.97527" lon="3.62855">
        <ele>306</ele>
        <time>2010-03-06T00:51:43Z</time>
      </trkpt>
      <trkpt lat="43.97527" lon="3.62863">
        <ele>306</ele>
        <time>2010-03-06T00:51:48Z</time>
      </trkpt>
      <trkpt lat="43.97528" lon="3.62874">
        <ele>307</ele>
        <time>2010-03-06T00:51:53Z</time>
      </trkpt>
      <trkpt lat="43.97527" lon="3.62884">
        <ele>308</ele>
        <time>2010-03-06T00:51:58Z</time>
      </trkpt>
      <trkpt lat="43.97527" lon="3.62893">
        <ele>308</ele>
        <time>2010-03-06T00:52:03Z</time>
      </trkpt>
      <trkpt lat="43.97527" lon="3.62899">
        <ele>309</ele>
        <time>2010-03-06T00:52:08Z</time>
      </trkpt>
      <trkpt lat="43.97527" lon="3.62909">
        <ele>310</ele>
        <time>2010-03-06T00:52:13Z</time>
      </trkpt>
      <trkpt lat="43.97526" lon="3.62919">
        <ele>314</ele>
        <time>2010-03-06T00:52:18Z</time>
      </trkpt>
      <trkpt lat="43.97522" lon="3.62928">
        <ele>314</ele>
        <time>2010-03-06T00:52:23Z</time>
      </trkpt>
      <trkpt lat="43.97518" lon="3.62935">
        <ele>314</ele>
        <time>2010-03-06T00:52:28Z</time>
      </trkpt>
      <trkpt lat="43.97516" lon="3.62942">
        <ele>314</ele>
        <time>2010-03-06T00:52:33Z</time>
      </trkpt>
      <trkpt lat="43.97512" lon="3.62951">
        <ele>315</ele>
        <time>2010-03-06T00:52:38Z</time>
      </trkpt>
      <trkpt lat="43.97509" lon="3.62957">
        <ele>315</ele>
        <time>2010-03-06T00:52:43Z</time>
      </trkpt>
      <trkpt lat="43.97503" lon="3.62962">
        <ele>315</ele>
        <time>2010-03-06T00:52:48Z</time>
      </trkpt>
      <trkpt lat="43.97499" lon="3.62967">
        <ele>315</ele>
        <time>2010-03-06T00:52:53Z</time>
      </trkpt>
      <trkpt lat="43.97494" lon="3.62972">
        <ele>315</ele>
        <time>2010-03-06T00:52:58Z</time>
      </trkpt>
      <trkpt lat="43.97487" lon="3.62982">
        <ele>316</ele>
        <time>2010-03-06T00:53:03Z</time>
      </trkpt>
      <trkpt lat="43.9748" lon="3.62992">
        <ele>316</ele>
        <time>2010-03-06T00:53:08Z</time>
      </trkpt>
      <trkpt lat="43.97475" lon="3.62998">
        <ele>315</ele>
        <time>2010-03-06T00:53:13Z</time>
      </trkpt>
      <trkpt lat="43.97473" lon="3.63005">
        <ele>319</ele>
        <time>2010-03-06T00:53:18Z</time>
      </trkpt>
      <trkpt lat="43.9747" lon="3.63015">
        <ele>319</ele>
        <time>2010-03-06T00:53:23Z</time>
      </trkpt>
      <trkpt lat="43.97467" lon="3.63024">
        <ele>318</ele>
        <time>2010-03-06T00:53:28Z</time>
      </trkpt>
      <trkpt lat="43.97466" lon="3.63033">
        <ele>319</ele>
        <time>2010-03-06T00:53:33Z</time>
      </trkpt>
      <trkpt lat="43.97466" lon="3.6304">
        <ele>319</ele>
        <time>2010-03-06T00:53:38Z</time>
      </trkpt>
      <trkpt lat="43.97469" lon="3.63048">
        <ele>320</ele>
        <time>2010-03-06T00:53:43Z</time>
      </trkpt>
      <trkpt lat="43.97475" lon="3.63062">
        <ele>321</ele>
        <time>2010-03-06T00:53:48Z</time>
      </trkpt>
      <trkpt lat="43.9748" lon="3.63076">
        <ele>322</ele>
        <time>2010-03-06T00:53:53Z</time>
      </trkpt>
      <trkpt lat="43.97485" lon="3.63089">
        <ele>327</ele>
        <time>2010-03-06T00:53:58Z</time>
      </trkpt>
      <trkpt lat="43.97489" lon="3.63099">
        <ele>327</ele>
        <time>2010-03-06T00:54:03Z</time>
      </trkpt>
      <trkpt lat="43.9749" lon="3.63113">
        <ele>328</ele>
        <time>2010-03-06T00:54:08Z</time>
      </trkpt>
      <trkpt lat="43.97487" lon="3.63123">
        <ele>328</ele>
        <time>2010-03-06T00:54:13Z</time>
      </trkpt>
      <trkpt lat="43.97484" lon="3.63132">
        <ele>328</ele>
        <time>2010-03-06T00:54:18Z</time>
      </trkpt>
      <trkpt lat="43.97483" lon="3.63139">
        <ele>329</ele>
        <time>2010-03-06T00:54:23Z</time>
      </trkpt>
      <trkpt lat="43.97479" lon="3.63145">
        <ele>329</ele>
        <time>2010-03-06T00:54:28Z</time>
      </trkpt>
      <trkpt lat="43.97474" lon="3.63154">
        <ele>329</ele>
        <time>2010-03-06T00:54:33Z</time>
      </trkpt>
      <trkpt lat="43.97476" lon="3.6317">
        <ele>337</ele>
        <time>2010-03-06T00:54:38Z</time>
      </trkpt>
      <trkpt lat="43.97476" lon="3.63184">
        <ele>338</ele>
        <time>2010-03-06T00:54:43Z</time>
      </trkpt>
      <trkpt lat="43.97472" lon="3.63195">
        <ele>340</ele>
        <time>2010-03-06T00:54:48Z</time>
      </trkpt>
      <trkpt lat="43.97467" lon="3.63209">
        <ele>341</ele>
        <time>2010-03-06T00:54:53Z</time>
      </trkpt>
      <trkpt lat="43.97471" lon="3.63224">
        <ele>343</ele>
        <time>2010-03-06T00:54:58Z</time>
      </trkpt>
      <trkpt lat="43.97473" lon="3.63239">
        <ele>344</ele>
        <time>2010-03-06T00:55:03Z</time>
      </trkpt>
      <trkpt lat="43.97477" lon="3.63247">
        <ele>344</ele>
        <time>2010-03-06T00:55:08Z</time>
      </trkpt>
      <trkpt lat="43.97481" lon="3.63244">
        <ele>344</ele>
        <time>2010-03-06T00:55:13Z</time>
      </trkpt>
      <trkpt lat="43.97486" lon="3.63242">
        <ele>344</ele>
        <time>2010-03-06T00:55:18Z</time>
      </trkpt>
      <trkpt lat="43.97491" lon="3.63239">
        <ele>344</ele>
        <time>2010-03-06T00:55:23Z</time>
      </trkpt>
      <trkpt lat="43.97496" lon="3.63241">
        <ele>344</ele>
        <time>2010-03-06T00:55:28Z</time>
      </trkpt>
      <trkpt lat="43.97501" lon="3.63242">
        <ele>342</ele>
        <time>2010-03-06T00:55:33Z</time>
      </trkpt>
      <trkpt lat="43.97506" lon="3.63241">
        <ele>341</ele>
        <time>2010-03-06T00:55:38Z</time>
      </trkpt>
      <trkpt lat="43.9751" lon="3.6324">
        <ele>340</ele>
        <time>2010-03-06T00:55:43Z</time>
      </trkpt>
      <trkpt lat="43.97515" lon="3.63239">
        <ele>339</ele>
        <time>2010-03-06T00:55:48Z</time>
      </trkpt>
      <trkpt lat="43.9752" lon="3.63238">
        <ele>338</ele>
        <time>2010-03-06T00:55:53Z</time>
      </trkpt>
      <trkpt lat="43.97525" lon="3.63238">
        <ele>337</ele>
        <time>2010-03-06T00:55:58Z</time>
      </trkpt>
      <trkpt lat="43.9753" lon="3.63235">
        <ele>336</ele>
        <time>2010-03-06T00:56:03Z</time>
      </trkpt>
      <trkpt lat="43.97535" lon="3.63234">
        <ele>336</ele>
        <time>2010-03-06T00:56:08Z</time>
      </trkpt>
      <trkpt lat="43.97542" lon="3.63235">
        <ele>336</ele>
        <time>2010-03-06T00:56:13Z</time>
      </trkpt>
      <trkpt lat="43.97547" lon="3.63236">
        <ele>336</ele>
        <time>2010-03-06T00:56:18Z</time>
      </trkpt>
      <trkpt lat="43.97551" lon="3.63239">
        <ele>336</ele>
        <time>2010-03-06T00:56:23Z</time>
      </trkpt>
      <trkpt lat="43.97557" lon="3.63245">
        <ele>336</ele>
        <time>2010-03-06T00:56:28Z</time>
      </trkpt>
      <trkpt lat="43.97562" lon="3.63248">
        <ele>337</ele>
        <time>2010-03-06T00:56:33Z</time>
      </trkpt>
      <trkpt lat="43.97566" lon="3.63253">
        <ele>348</ele>
        <time>2010-03-06T00:56:38Z</time>
      </trkpt>
      <trkpt lat="43.97569" lon="3.63257">
        <ele>347</ele>
        <time>2010-03-06T00:56:43Z</time>
      </trkpt>
      <trkpt lat="43.97575" lon="3.63264">
        <ele>348</ele>
        <time>2010-03-06T00:56:48Z</time>
      </trkpt>
      <trkpt lat="43.97579" lon="3.6327">
        <ele>349</ele>
        <time>2010-03-06T00:56:53Z</time>
      </trkpt>
      <trkpt lat="43.97585" lon="3.63278">
        <ele>345</ele>
        <time>2010-03-06T00:56:58Z</time>
      </trkpt>
      <trkpt lat="43.97588" lon="3.63288">
        <ele>347</ele>
        <time>2010-03-06T00:57:03Z</time>
      </trkpt>
      <trkpt lat="43.97594" lon="3.63303">
        <ele>349</ele>
        <time>2010-03-06T00:57:08Z</time>
      </trkpt>
      <trkpt lat="43.97602" lon="3.63315">
        <ele>351</ele>
        <time>2010-03-06T00:57:13Z</time>
      </trkpt>
      <trkpt lat="43.97608" lon="3.63328">
        <ele>352</ele>
        <time>2010-03-06T00:57:18Z</time>
      </trkpt>
      <trkpt lat="43.97612" lon="3.63341">
        <ele>360</ele>
        <time>2010-03-06T00:57:23Z</time>
      </trkpt>
      <trkpt lat="43.97615" lon="3.63354">
        <ele>360</ele>
        <time>2010-03-06T00:57:28Z</time>
      </trkpt>
      <trkpt lat="43.97616" lon="3.63368">
        <ele>361</ele>
        <time>2010-03-06T00:57:33Z</time>
      </trkpt>
      <trkpt lat="43.97615" lon="3.63386">
        <ele>362</ele>
        <time>2010-03-06T00:57:38Z</time>
      </trkpt>
      <trkpt lat="43.97614" lon="3.63401">
        <ele>364</ele>
        <time>2010-03-06T00:57:43Z</time>
      </trkpt>
      <trkpt lat="43.97614" lon="3.63413">
        <ele>365</ele>
        <time>2010-03-06T00:57:48Z</time>
      </trkpt>
      <trkpt lat="43.97612" lon="3.63423">
        <ele>373</ele>
        <time>2010-03-06T00:57:53Z</time>
      </trkpt>
      <trkpt lat="43.97611" lon="3.63431">
        <ele>373</ele>
        <time>2010-03-06T00:57:58Z</time>
      </trkpt>
      <trkpt lat="43.9761" lon="3.63438">
        <ele>373</ele>
        <time>2010-03-06T00:58:03Z</time>
      </trkpt>
      <trkpt lat="43.97608" lon="3.63444">
        <ele>374</ele>
        <time>2010-03-06T00:58:08Z</time>
      </trkpt>
      <trkpt lat="43.97606" lon="3.63449">
        <ele>374</ele>
        <time>2010-03-06T00:58:13Z</time>
      </trkpt>
      <trkpt lat="43.97606" lon="3.63457">
        <ele>374</ele>
        <time>2010-03-06T00:58:18Z</time>
      </trkpt>
      <trkpt lat="43.97606" lon="3.63466">
        <ele>375</ele>
        <time>2010-03-06T00:58:23Z</time>
      </trkpt>
      <trkpt lat="43.97608" lon="3.63475">
        <ele>376</ele>
        <time>2010-03-06T00:58:28Z</time>
      </trkpt>
      <trkpt lat="43.9761" lon="3.63485">
        <ele>376</ele>
        <time>2010-03-06T00:58:33Z</time>
      </trkpt>
      <trkpt lat="43.97611" lon="3.63492">
        <ele>377</ele>
        <time>2010-03-06T00:58:38Z</time>
      </trkpt>
      <trkpt lat="43.97614" lon="3.63496">
        <ele>376</ele>
        <time>2010-03-06T00:58:43Z</time>
      </trkpt>
      <trkpt lat="43.97619" lon="3.63506">
        <ele>381</ele>
        <time>2010-03-06T00:58:48Z</time>
      </trkpt>
      <trkpt lat="43.97619" lon="3.63513">
        <ele>381</ele>
        <time>2010-03-06T00:58:53Z</time>
      </trkpt>
      <trkpt lat="43.9762" lon="3.63516">
        <ele>381</ele>
        <time>2010-03-06T00:58:58Z</time>
      </trkpt>
      <trkpt lat="43.97622" lon="3.63523">
        <ele>380</ele>
        <time>2010-03-06T00:59:03Z</time>
      </trkpt>
      <trkpt lat="43.97623" lon="3.63529">
        <ele>380</ele>
        <time>2010-03-06T00:59:08Z</time>
      </trkpt>
      <trkpt lat="43.97625" lon="3.63535">
        <ele>380</ele>
        <time>2010-03-06T00:59:13Z</time>
      </trkpt>
      <trkpt lat="43.97626" lon="3.6354">
        <ele>380</ele>
        <time>2010-03-06T00:59:18Z</time>
      </trkpt>
      <trkpt lat="43.97627" lon="3.63544">
        <ele>380</ele>
        <time>2010-03-06T00:59:23Z</time>
      </trkpt>
      <trkpt lat="43.97627" lon="3.63551">
        <ele>380</ele>
        <time>2010-03-06T00:59:28Z</time>
      </trkpt>
      <trkpt lat="43.9763" lon="3.63556">
        <ele>380</ele>
        <time>2010-03-06T00:59:33Z</time>
      </trkpt>
      <trkpt lat="43.97634" lon="3.63557">
        <ele>380</ele>
        <time>2010-03-06T00:59:38Z</time>
      </trkpt>
      <trkpt lat="43.97637" lon="3.63556">
        <ele>379</ele>
        <time>2010-03-06T00:59:43Z</time>
      </trkpt>
      <trkpt lat="43.97645" lon="3.63551">
        <ele>379</ele>
        <time>2010-03-06T00:59:48Z</time>
      </trkpt>
      <trkpt lat="43.97655" lon="3.63543">
        <ele>378</ele>
        <time>2010-03-06T00:59:53Z</time>
      </trkpt>
      <trkpt lat="43.97663" lon="3.63539">
        <ele>378</ele>
        <time>2010-03-06T00:59:58Z</time>
      </trkpt>
      <trkpt lat="43.97673" lon="3.63532">
        <ele>369</ele>
        <time>2010-03-06T01:00:03Z</time>
      </trkpt>
      <trkpt lat="43.9768" lon="3.63527">
        <ele>369</ele>
        <time>2010-03-06T01:00:08Z</time>
      </trkpt>
      <trkpt lat="43.97694" lon="3.63519">
        <ele>368</ele>
        <time>2010-03-06T01:00:13Z</time>
      </trkpt>
      <trkpt lat="43.97704" lon="3.63513">
        <ele>367</ele>
        <time>2010-03-06T01:00:18Z</time>
      </trkpt>
      <trkpt lat="43.97715" lon="3.63507">
        <ele>367</ele>
        <time>2010-03-06T01:00:23Z</time>
      </trkpt>
      <trkpt lat="43.97724" lon="3.63503">
        <ele>366</ele>
        <time>2010-03-06T01:00:28Z</time>
      </trkpt>
      <trkpt lat="43.97735" lon="3.63496">
        <ele>365</ele>
        <time>2010-03-06T01:00:33Z</time>
      </trkpt>
      <trkpt lat="43.97748" lon="3.63488">
        <ele>365</ele>
        <time>2010-03-06T01:00:38Z</time>
      </trkpt>
      <trkpt lat="43.97759" lon="3.63483">
        <ele>363</ele>
        <time>2010-03-06T01:00:43Z</time>
      </trkpt>
      <trkpt lat="43.97771" lon="3.63483">
        <ele>362</ele>
        <time>2010-03-06T01:00:48Z</time>
      </trkpt>
      <trkpt lat="43.9778" lon="3.63485">
        <ele>361</ele>
        <time>2010-03-06T01:00:53Z</time>
      </trkpt>
      <trkpt lat="43.9779" lon="3.63487">
        <ele>360</ele>
        <time>2010-03-06T01:00:58Z</time>
      </trkpt>
      <trkpt lat="43.97802" lon="3.63485">
        <ele>359</ele>
        <time>2010-03-06T01:01:03Z</time>
      </trkpt>
      <trkpt lat="43.97811" lon="3.63478">
        <ele>358</ele>
        <time>2010-03-06T01:01:08Z</time>
      </trkpt>
      <trkpt lat="43.9782" lon="3.63468">
        <ele>359</ele>
        <time>2010-03-06T01:01:13Z</time>
      </trkpt>
      <trkpt lat="43.97826" lon="3.63457">
        <ele>359</ele>
        <time>2010-03-06T01:01:18Z</time>
      </trkpt>
      <trkpt lat="43.97834" lon="3.63443">
        <ele>352</ele>
        <time>2010-03-06T01:01:23Z</time>
      </trkpt>
      <trkpt lat="43.97842" lon="3.63431">
        <ele>354</ele>
        <time>2010-03-06T01:01:28Z</time>
      </trkpt>
      <trkpt lat="43.9785" lon="3.63421">
        <ele>354</ele>
        <time>2010-03-06T01:01:33Z</time>
      </trkpt>
      <trkpt lat="43.97855" lon="3.6341">
        <ele>357</ele>
        <time>2010-03-06T01:01:38Z</time>
      </trkpt>
      <trkpt lat="43.97861" lon="3.63396">
        <ele>356</ele>
        <time>2010-03-06T01:01:43Z</time>
      </trkpt>
      <trkpt lat="43.97866" lon="3.6338">
        <ele>356</ele>
        <time>2010-03-06T01:01:48Z</time>
      </trkpt>
      <trkpt lat="43.97872" lon="3.63366">
        <ele>355</ele>
        <time>2010-03-06T01:01:53Z</time>
      </trkpt>
      <trkpt lat="43.97877" lon="3.63353">
        <ele>356</ele>
        <time>2010-03-06T01:01:58Z</time>
      </trkpt>
      <trkpt lat="43.97881" lon="3.63343">
        <ele>356</ele>
        <time>2010-03-06T01:02:03Z</time>
      </trkpt>
      <trkpt lat="43.97886" lon="3.63328">
        <ele>357</ele>
        <time>2010-03-06T01:02:08Z</time>
      </trkpt>
      <trkpt lat="43.97888" lon="3.63314">
        <ele>357</ele>
        <time>2010-03-06T01:02:13Z</time>
      </trkpt>
      <trkpt lat="43.97889" lon="3.63299">
        <ele>357</ele>
        <time>2010-03-06T01:02:18Z</time>
      </trkpt>
      <trkpt lat="43.97889" lon="3.63287">
        <ele>358</ele>
        <time>2010-03-06T01:02:23Z</time>
      </trkpt>
      <trkpt lat="43.97889" lon="3.63271">
        <ele>358</ele>
        <time>2010-03-06T01:02:28Z</time>
      </trkpt>
      <trkpt lat="43.97895" lon="3.63257">
        <ele>359</ele>
        <time>2010-03-06T01:02:33Z</time>
      </trkpt>
      <trkpt lat="43.97898" lon="3.63247">
        <ele>359</ele>
        <time>2010-03-06T01:02:38Z</time>
      </trkpt>
      <trkpt lat="43.97902" lon="3.63238">
        <ele>359</ele>
        <time>2010-03-06T01:02:43Z</time>
      </trkpt>
      <trkpt lat="43.97904" lon="3.63231">
        <ele>359</ele>
        <time>2010-03-06T01:02:48Z</time>
      </trkpt>
      <trkpt lat="43.97908" lon="3.63221">
        <ele>359</ele>
        <time>2010-03-06T01:02:53Z</time>
      </trkpt>
      <trkpt lat="43.97912" lon="3.63214">
        <ele>359</ele>
        <time>2010-03-06T01:02:58Z</time>
      </trkpt>
      <trkpt lat="43.97918" lon="3.63209">
        <ele>368</ele>
        <time>2010-03-06T01:03:03Z</time>
      </trkpt>
      <trkpt lat="43.97923" lon="3.63208">
        <ele>369</ele>
        <time>2010-03-06T01:03:08Z</time>
      </trkpt>
      <trkpt lat="43.97929" lon="3.63208">
        <ele>369</ele>
        <time>2010-03-06T01:03:13Z</time>
      </trkpt>
      <trkpt lat="43.97937" lon="3.63208">
        <ele>369</ele>
        <time>2010-03-06T01:03:18Z</time>
      </trkpt>
      <trkpt lat="43.97944" lon="3.63208">
        <ele>370</ele>
        <time>2010-03-06T01:03:23Z</time>
      </trkpt>
      <trkpt lat="43.97952" lon="3.63206">
        <ele>371</ele>
        <time>2010-03-06T01:03:28Z</time>
      </trkpt>
      <trkpt lat="43.97958" lon="3.63206">
        <ele>371</ele>
        <time>2010-03-06T01:03:33Z</time>
      </trkpt>
      <trkpt lat="43.97968" lon="3.63206">
        <ele>372</ele>
        <time>2010-03-06T01:03:38Z</time>
      </trkpt>
      <trkpt lat="43.97981" lon="3.63209">
        <ele>373</ele>
        <time>2010-03-06T01:03:43Z</time>
      </trkpt>
      <trkpt lat="43.97991" lon="3.63216">
        <ele>373</ele>
        <time>2010-03-06T01:03:48Z</time>
      </trkpt>
      <trkpt lat="43.97999" lon="3.63221">
        <ele>372</ele>
        <time>2010-03-06T01:03:53Z</time>
      </trkpt>
      <trkpt lat="43.98009" lon="3.6323">
        <ele>376</ele>
        <time>2010-03-06T01:03:58Z</time>
      </trkpt>
      <trkpt lat="43.98023" lon="3.63237">
        <ele>376</ele>
        <time>2010-03-06T01:04:03Z</time>
      </trkpt>
      <trkpt lat="43.98031" lon="3.63248">
        <ele>377</ele>
        <time>2010-03-06T01:04:08Z</time>
      </trkpt>
      <trkpt lat="43.98038" lon="3.63262">
        <ele>369</ele>
        <time>2010-03-06T01:04:13Z</time>
      </trkpt>
      <trkpt lat="43.98044" lon="3.63272">
        <ele>369</ele>
        <time>2010-03-06T01:04:18Z</time>
      </trkpt>
      <trkpt lat="43.9805" lon="3.63285">
        <ele>368</ele>
        <time>2010-03-06T01:04:23Z</time>
      </trkpt>
      <trkpt lat="43.9806" lon="3.63298">
        <ele>368</ele>
        <time>2010-03-06T01:04:28Z</time>
      </trkpt>
      <trkpt lat="43.98068" lon="3.6331">
        <ele>367</ele>
        <time>2010-03-06T01:04:33Z</time>
      </trkpt>
      <trkpt lat="43.98077" lon="3.63319">
        <ele>367</ele>
        <time>2010-03-06T01:04:38Z</time>
      </trkpt>
      <trkpt lat="43.98084" lon="3.63328">
        <ele>369</ele>
        <time>2010-03-06T01:04:43Z</time>
      </trkpt>
      <trkpt lat="43.98095" lon="3.63338">
        <ele>363</ele>
        <time>2010-03-06T01:04:48Z</time>
      </trkpt>
      <trkpt lat="43.98106" lon="3.63342">
        <ele>360</ele>
        <time>2010-03-06T01:04:53Z</time>
      </trkpt>
      <trkpt lat="43.98117" lon="3.63344">
        <ele>359</ele>
        <time>2010-03-06T01:04:58Z</time>
      </trkpt>
      <trkpt lat="43.98125" lon="3.63344">
        <ele>359</ele>
        <time>2010-03-06T01:05:03Z</time>
      </trkpt>
      <trkpt lat="43.98137" lon="3.63343">
        <ele>360</ele>
        <time>2010-03-06T01:05:08Z</time>
      </trkpt>
      <trkpt lat="43.98148" lon="3.6334">
        <ele>362</ele>
        <time>2010-03-06T01:05:13Z</time>
      </trkpt>
      <trkpt lat="43.98158" lon="3.6334">
        <ele>365</ele>
        <time>2010-03-06T01:05:18Z</time>
      </trkpt>
      <trkpt lat="43.98171" lon="3.63336">
        <ele>367</ele>
        <time>2010-03-06T01:05:23Z</time>
      </trkpt>
      <trkpt lat="43.98181" lon="3.6333">
        <ele>367</ele>
        <time>2010-03-06T01:05:28Z</time>
      </trkpt>
      <trkpt lat="43.98193" lon="3.6332">
        <ele>365</ele>
        <time>2010-03-06T01:05:33Z</time>
      </trkpt>
      <trkpt lat="43.98202" lon="3.63309">
        <ele>364</ele>
        <time>2010-03-06T01:05:38Z</time>
      </trkpt>
      <trkpt lat="43.98208" lon="3.63296">
        <ele>363</ele>
        <time>2010-03-06T01:05:43Z</time>
      </trkpt>
      <trkpt lat="43.98211" lon="3.63284">
        <ele>362</ele>
        <time>2010-03-06T01:05:48Z</time>
      </trkpt>
      <trkpt lat="43.98212" lon="3.63269">
        <ele>362</ele>
        <time>2010-03-06T01:05:53Z</time>
      </trkpt>
      <trkpt lat="43.98208" lon="3.63252">
        <ele>363</ele>
        <time>2010-03-06T01:05:58Z</time>
      </trkpt>
      <trkpt lat="43.98208" lon="3.63237">
        <ele>357</ele>
        <time>2010-03-06T01:06:03Z</time>
      </trkpt>
      <trkpt lat="43.98214" lon="3.63243">
        <ele>356</ele>
        <time>2010-03-06T01:06:08Z</time>
      </trkpt>
      <trkpt lat="43.9822" lon="3.63252">
        <ele>360</ele>
        <time>2010-03-06T01:06:13Z</time>
      </trkpt>
      <trkpt lat="43.98227" lon="3.63269">
        <ele>360</ele>
        <time>2010-03-06T01:06:18Z</time>
      </trkpt>
      <trkpt lat="43.98234" lon="3.63283">
        <ele>360</ele>
        <time>2010-03-06T01:06:23Z</time>
      </trkpt>
      <trkpt lat="43.98239" lon="3.63296">
        <ele>360</ele>
        <time>2010-03-06T01:06:28Z</time>
      </trkpt>
      <trkpt lat="43.98246" lon="3.63306">
        <ele>359</ele>
        <time>2010-03-06T01:06:33Z</time>
      </trkpt>
      <trkpt lat="43.98256" lon="3.63316">
        <ele>351</ele>
        <time>2010-03-06T01:06:38Z</time>
      </trkpt>
      <trkpt lat="43.98268" lon="3.63326">
        <ele>351</ele>
        <time>2010-03-06T01:06:43Z</time>
      </trkpt>
      <trkpt lat="43.98281" lon="3.63328">
        <ele>350</ele>
        <time>2010-03-06T01:06:48Z</time>
      </trkpt>
      <trkpt lat="43.98293" lon="3.63333">
        <ele>349</ele>
        <time>2010-03-06T01:06:53Z</time>
      </trkpt>
      <trkpt lat="43.98301" lon="3.63342">
        <ele>346</ele>
        <time>2010-03-06T01:06:58Z</time>
      </trkpt>
      <trkpt lat="43.98309" lon="3.63352">
        <ele>345</ele>
        <time>2010-03-06T01:07:03Z</time>
      </trkpt>
      <trkpt lat="43.98318" lon="3.63349">
        <ele>345</ele>
        <time>2010-03-06T01:07:08Z</time>
      </trkpt>
      <trkpt lat="43.98325" lon="3.63347">
        <ele>345</ele>
        <time>2010-03-06T01:07:13Z</time>
      </trkpt>
      <trkpt lat="43.98331" lon="3.63343">
        <ele>346</ele>
        <time>2010-03-06T01:07:18Z</time>
      </trkpt>
      <trkpt lat="43.98339" lon="3.63341">
        <ele>345</ele>
        <time>2010-03-06T01:07:23Z</time>
      </trkpt>
      <trkpt lat="43.98348" lon="3.63337">
        <ele>344</ele>
        <time>2010-03-06T01:07:28Z</time>
      </trkpt>
      <trkpt lat="43.98352" lon="3.6333">
        <ele>344</ele>
        <time>2010-03-06T01:07:33Z</time>
      </trkpt>
      <trkpt lat="43.98356" lon="3.63327">
        <ele>344</ele>
        <time>2010-03-06T01:07:38Z</time>
      </trkpt>
      <trkpt lat="43.98359" lon="3.63322">
        <ele>343</ele>
        <time>2010-03-06T01:07:43Z</time>
      </trkpt>
      <trkpt lat="43.98364" lon="3.63317">
        <ele>343</ele>
        <time>2010-03-06T01:07:48Z</time>
      </trkpt>
      <trkpt lat="43.98374" lon="3.63317">
        <ele>343</ele>
        <time>2010-03-06T01:07:53Z</time>
      </trkpt>
      <trkpt lat="43.98382" lon="3.63321">
        <ele>343</ele>
        <time>2010-03-06T01:07:58Z</time>
      </trkpt>
      <trkpt lat="43.9839" lon="3.63329">
        <ele>343</ele>
        <time>2010-03-06T01:08:03Z</time>
      </trkpt>
      <trkpt lat="43.98393" lon="3.63337">
        <ele>343</ele>
        <time>2010-03-06T01:08:08Z</time>
      </trkpt>
      <trkpt lat="43.98404" lon="3.63344">
        <ele>343</ele>
        <time>2010-03-06T01:08:13Z</time>
      </trkpt>
      <trkpt lat="43.98413" lon="3.63351">
        <ele>343</ele>
        <time>2010-03-06T01:08:18Z</time>
      </trkpt>
      <trkpt lat="43.98422" lon="3.63358">
        <ele>337</ele>
        <time>2010-03-06T01:08:23Z</time>
      </trkpt>
      <trkpt lat="43.98429" lon="3.63364">
        <ele>336</ele>
        <time>2010-03-06T01:08:28Z</time>
      </trkpt>
      <trkpt lat="43.98435" lon="3.63371">
        <ele>335</ele>
        <time>2010-03-06T01:08:33Z</time>
      </trkpt>
      <trkpt lat="43.98448" lon="3.63378">
        <ele>333</ele>
        <time>2010-03-06T01:08:38Z</time>
      </trkpt>
      <trkpt lat="43.98456" lon="3.63385">
        <ele>333</ele>
        <time>2010-03-06T01:08:43Z</time>
      </trkpt>
      <trkpt lat="43.98465" lon="3.63389">
        <ele>332</ele>
        <time>2010-03-06T01:08:48Z</time>
      </trkpt>
      <trkpt lat="43.98473" lon="3.63395">
        <ele>332</ele>
        <time>2010-03-06T01:08:53Z</time>
      </trkpt>
      <trkpt lat="43.98486" lon="3.63401">
        <ele>331</ele>
        <time>2010-03-06T01:08:58Z</time>
      </trkpt>
      <trkpt lat="43.98494" lon="3.63406">
        <ele>331</ele>
        <time>2010-03-06T01:09:03Z</time>
      </trkpt>
      <trkpt lat="43.98503" lon="3.6341">
        <ele>327</ele>
        <time>2010-03-06T01:09:08Z</time>
      </trkpt>
      <trkpt lat="43.98509" lon="3.63414">
        <ele>326</ele>
        <time>2010-03-06T01:09:13Z</time>
      </trkpt>
      <trkpt lat="43.98519" lon="3.63416">
        <ele>323</ele>
        <time>2010-03-06T01:09:18Z</time>
      </trkpt>
      <trkpt lat="43.9853" lon="3.63424">
        <ele>318</ele>
        <time>2010-03-06T01:09:23Z</time>
      </trkpt>
      <trkpt lat="43.98539" lon="3.6343">
        <ele>316</ele>
        <time>2010-03-06T01:09:28Z</time>
      </trkpt>
      <trkpt lat="43.9855" lon="3.63433">
        <ele>315</ele>
        <time>2010-03-06T01:09:33Z</time>
      </trkpt>
      <trkpt lat="43.98556" lon="3.6344">
        <ele>314</ele>
        <time>2010-03-06T01:09:38Z</time>
      </trkpt>
      <trkpt lat="43.98564" lon="3.6345">
        <ele>313</ele>
        <time>2010-03-06T01:09:43Z</time>
      </trkpt>
      <trkpt lat="43.98568" lon="3.63461">
        <ele>312</ele>
        <time>2010-03-06T01:09:48Z</time>
      </trkpt>
      <trkpt lat="43.98574" lon="3.63469">
        <ele>311</ele>
        <time>2010-03-06T01:09:53Z</time>
      </trkpt>
      <trkpt lat="43.98578" lon="3.63472">
        <ele>311</ele>
        <time>2010-03-06T01:09:58Z</time>
      </trkpt>
      <trkpt lat="43.98583" lon="3.63478">
        <ele>310</ele>
        <time>2010-03-06T01:10:03Z</time>
      </trkpt>
      <trkpt lat="43.98589" lon="3.63485">
        <ele>301</ele>
        <time>2010-03-06T01:10:08Z</time>
      </trkpt>
      <trkpt lat="43.98594" lon="3.6349">
        <ele>301</ele>
        <time>2010-03-06T01:10:13Z</time>
      </trkpt>
      <trkpt lat="43.98601" lon="3.63494">
        <ele>300</ele>
        <time>2010-03-06T01:10:18Z</time>
      </trkpt>
      <trkpt lat="43.98607" lon="3.63499">
        <ele>299</ele>
        <time>2010-03-06T01:10:23Z</time>
      </trkpt>
      <trkpt lat="43.98613" lon="3.63505">
        <ele>294</ele>
        <time>2010-03-06T01:10:28Z</time>
      </trkpt>
      <trkpt lat="43.98624" lon="3.63513">
        <ele>292</ele>
        <time>2010-03-06T01:10:33Z</time>
      </trkpt>
      <trkpt lat="43.98637" lon="3.63517">
        <ele>290</ele>
        <time>2010-03-06T01:10:38Z</time>
      </trkpt>
      <trkpt lat="43.98647" lon="3.63525">
        <ele>289</ele>
        <time>2010-03-06T01:10:43Z</time>
      </trkpt>
      <trkpt lat="43.98656" lon="3.6353">
        <ele>289</ele>
        <time>2010-03-06T01:10:48Z</time>
      </trkpt>
      <trkpt lat="43.98666" lon="3.63542">
        <ele>289</ele>
        <time>2010-03-06T01:10:53Z</time>
      </trkpt>
      <trkpt lat="43.98676" lon="3.63549">
        <ele>284</ele>
        <time>2010-03-06T01:10:58Z</time>
      </trkpt>
      <trkpt lat="43.98686" lon="3.63558">
        <ele>284</ele>
        <time>2010-03-06T01:11:03Z</time>
      </trkpt>
      <trkpt lat="43.98691" lon="3.63568">
        <ele>285</ele>
        <time>2010-03-06T01:11:08Z</time>
      </trkpt>
      <trkpt lat="43.98697" lon="3.63583">
        <ele>285</ele>
        <time>2010-03-06T01:11:13Z</time>
      </trkpt>
      <trkpt lat="43.98704" lon="3.63593">
        <ele>281</ele>
        <time>2010-03-06T01:11:18Z</time>
      </trkpt>
      <trkpt lat="43.98713" lon="3.636">
        <ele>280</ele>
        <time>2010-03-06T01:11:23Z</time>
      </trkpt>
      <trkpt lat="43.98722" lon="3.63601">
        <ele>280</ele>
        <time>2010-03-06T01:11:28Z</time>
      </trkpt>
      <trkpt lat="43.98729" lon="3.63603">
        <ele>280</ele>
        <time>2010-03-06T01:11:33Z</time>
      </trkpt>
      <trkpt lat="43.9874" lon="3.63607">
        <ele>280</ele>
        <time>2010-03-06T01:11:38Z</time>
      </trkpt>
      <trkpt lat="43.9875" lon="3.63606">
        <ele>281</ele>
        <time>2010-03-06T01:11:43Z</time>
      </trkpt>
      <trkpt lat="43.98761" lon="3.63605">
        <ele>284</ele>
        <time>2010-03-06T01:11:48Z</time>
      </trkpt>
      <trkpt lat="43.98767" lon="3.63608">
        <ele>284</ele>
        <time>2010-03-06T01:11:53Z</time>
      </trkpt>
      <trkpt lat="43.98776" lon="3.6361">
        <ele>284</ele>
        <time>2010-03-06T01:11:58Z</time>
      </trkpt>
      <trkpt lat="43.98786" lon="3.6361">
        <ele>284</ele>
        <time>2010-03-06T01:12:03Z</time>
      </trkpt>
      <trkpt lat="43.98793" lon="3.6361">
        <ele>284</ele>
        <time>2010-03-06T01:12:08Z</time>
      </trkpt>
      <trkpt lat="43.98803" lon="3.63604">
        <ele>285</ele>
        <time>2010-03-06T01:12:13Z</time>
      </trkpt>
      <trkpt lat="43.9881" lon="3.63601">
        <ele>285</ele>
        <time>2010-03-06T01:12:18Z</time>
      </trkpt>
      <trkpt lat="43.98818" lon="3.63593">
        <ele>286</ele>
        <time>2010-03-06T01:12:23Z</time>
      </trkpt>
      <trkpt lat="43.98826" lon="3.63585">
        <ele>287</ele>
        <time>2010-03-06T01:12:28Z</time>
      </trkpt>
      <trkpt lat="43.9883" lon="3.63584">
        <ele>288</ele>
        <time>2010-03-06T01:12:33Z</time>
      </trkpt>
      <trkpt lat="43.98835" lon="3.63575">
        <ele>286</ele>
        <time>2010-03-06T01:12:38Z</time>
      </trkpt>
      <trkpt lat="43.9884" lon="3.63569">
        <ele>285</ele>
        <time>2010-03-06T01:12:43Z</time>
      </trkpt>
      <trkpt lat="43.98847" lon="3.63561">
        <ele>284</ele>
        <time>2010-03-06T01:12:48Z</time>
      </trkpt>
      <trkpt lat="43.98853" lon="3.63549">
        <ele>283</ele>
        <time>2010-03-06T01:12:53Z</time>
      </trkpt>
      <trkpt lat="43.9886" lon="3.63544">
        <ele>283</ele>
        <time>2010-03-06T01:12:58Z</time>
      </trkpt>
      <trkpt lat="43.98867" lon="3.63542">
        <ele>282</ele>
        <time>2010-03-06T01:13:03Z</time>
      </trkpt>
      <trkpt lat="43.98874" lon="3.63536">
        <ele>282</ele>
        <time>2010-03-06T01:13:08Z</time>
      </trkpt>
      <trkpt lat="43.98885" lon="3.63535">
        <ele>281</ele>
        <time>2010-03-06T01:13:13Z</time>
      </trkpt>
      <trkpt lat="43.98895" lon="3.63528">
        <ele>281</ele>
        <time>2010-03-06T01:13:18Z</time>
      </trkpt>
      <trkpt lat="43.98904" lon="3.63525">
        <ele>280</ele>
        <time>2010-03-06T01:13:23Z</time>
      </trkpt>
      <trkpt lat="43.98917" lon="3.63527">
        <ele>280</ele>
        <time>2010-03-06T01:13:28Z</time>
      </trkpt>
      <trkpt lat="43.98927" lon="3.63534">
        <ele>272</ele>
        <time>2010-03-06T01:13:33Z</time>
      </trkpt>
      <trkpt lat="43.98937" lon="3.63533">
        <ele>272</ele>
        <time>2010-03-06T01:13:38Z</time>
      </trkpt>
      <trkpt lat="43.98948" lon="3.63536">
        <ele>271</ele>
        <time>2010-03-06T01:13:43Z</time>
      </trkpt>
      <trkpt lat="43.98956" lon="3.63542">
        <ele>270</ele>
        <time>2010-03-06T01:13:48Z</time>
      </trkpt>
      <trkpt lat="43.98963" lon="3.63552">
        <ele>269</ele>
        <time>2010-03-06T01:13:53Z</time>
      </trkpt>
      <trkpt lat="43.9897" lon="3.63555">
        <ele>268</ele>
        <time>2010-03-06T01:13:58Z</time>
      </trkpt>
      <trkpt lat="43.98979" lon="3.63557">
        <ele>268</ele>
        <time>2010-03-06T01:14:03Z</time>
      </trkpt>
      <trkpt lat="43.98985" lon="3.6356">
        <ele>267</ele>
        <time>2010-03-06T01:14:08Z</time>
      </trkpt>
      <trkpt lat="43.98989" lon="3.63566">
        <ele>266</ele>
        <time>2010-03-06T01:14:13Z</time>
      </trkpt>
      <trkpt lat="43.98987" lon="3.63577">
        <ele>265</ele>
        <time>2010-03-06T01:14:18Z</time>
      </trkpt>
      <trkpt lat="43.98992" lon="3.63581">
        <ele>264</ele>
        <time>2010-03-06T01:14:23Z</time>
      </trkpt>
      <trkpt lat="43.99" lon="3.63585">
        <ele>261</ele>
        <time>2010-03-06T01:14:28Z</time>
      </trkpt>
      <trkpt lat="43.99004" lon="3.63592">
        <ele>258</ele>
        <time>2010-03-06T01:14:33Z</time>
      </trkpt>
      <trkpt lat="43.9901" lon="3.636">
        <ele>256</ele>
        <time>2010-03-06T01:14:38Z</time>
      </trkpt>
      <trkpt lat="43.99019" lon="3.63606">
        <ele>254</ele>
        <time>2010-03-06T01:14:43Z</time>
      </trkpt>
      <trkpt lat="43.99025" lon="3.63611">
        <ele>253</ele>
        <time>2010-03-06T01:14:48Z</time>
      </trkpt>
      <trkpt lat="43.99033" lon="3.63617">
        <ele>251</ele>
        <time>2010-03-06T01:14:53Z</time>
      </trkpt>
      <trkpt lat="43.99039" lon="3.63618">
        <ele>251</ele>
        <time>2010-03-06T01:14:58Z</time>
      </trkpt>
      <trkpt lat="43.99048" lon="3.63617">
        <ele>250</ele>
        <time>2010-03-06T01:15:03Z</time>
      </trkpt>
      <trkpt lat="43.99057" lon="3.63618">
        <ele>250</ele>
        <time>2010-03-06T01:15:08Z</time>
      </trkpt>
      <trkpt lat="43.99066" lon="3.63622">
        <ele>249</ele>
        <time>2010-03-06T01:15:13Z</time>
      </trkpt>
      <trkpt lat="43.99073" lon="3.63623">
        <ele>248</ele>
        <time>2010-03-06T01:15:18Z</time>
      </trkpt>
      <trkpt lat="43.99077" lon="3.6363">
        <ele>248</ele>
        <time>2010-03-06T01:15:23Z</time>
      </trkpt>
      <trkpt lat="43.99079" lon="3.6363">
        <ele>248</ele>
        <time>2010-03-06T01:15:28Z</time>
      </trkpt>
      <trkpt lat="43.99079" lon="3.63632">
        <ele>247</ele>
        <time>2010-03-06T01:15:33Z</time>
      </trkpt>
      <trkpt lat="43.99079" lon="3.6363">
        <ele>248</ele>
        <time>2010-03-06T01:15:38Z</time>
      </trkpt>
      <trkpt lat="43.99079" lon="3.6363">
        <ele>248</ele>
        <time>2010-03-06T01:15:43Z</time>
      </trkpt>
      <trkpt lat="43.99079" lon="3.6363">
        <ele>248</ele>
        <time>2010-03-06T01:15:48Z</time>
      </trkpt>
      <trkpt lat="43.99079" lon="3.6363">
        <ele>248</ele>
        <time>2010-03-06T01:15:53Z</time>
      </trkpt>
      <trkpt lat="43.99079" lon="3.6363">
        <ele>248</ele>
        <time>2010-03-06T01:15:58Z</time>
      </trkpt>
      <trkpt lat="43.99079" lon="3.6363">
        <ele>248</ele>
        <time>2010-03-06T01:16:03Z</time>
      </trkpt>
      <trkpt lat="43.99079" lon="3.6363">
        <ele>248</ele>
        <time>2010-03-06T01:16:08Z</time>
      </trkpt>
      <trkpt lat="43.99079" lon="3.6363">
        <ele>248</ele>
        <time>2010-03-06T01:16:13Z</time>
      </trkpt>
      <trkpt lat="43.99079" lon="3.6363">
        <ele>248</ele>
        <time>2010-03-06T01:16:18Z</time>
      </trkpt>
      <trkpt lat="43.99079" lon="3.6363">
        <ele>248</ele>
        <time>2010-03-06T01:16:23Z</time>
      </trkpt>
      <trkpt lat="43.99079" lon="3.6363">
        <ele>248</ele>
        <time>2010-03-06T01:16:28Z</time>
      </trkpt>
      <trkpt lat="43.99079" lon="3.6363">
        <ele>248</ele>
        <time>2010-03-06T01:16:33Z</time>
      </trkpt>
      <trkpt lat="43.99079" lon="3.6363">
        <ele>248</ele>
        <time>2010-03-06T01:16:38Z</time>
      </trkpt>
      <trkpt lat="43.99079" lon="3.6363">
        <ele>248</ele>
        <time>2010-03-06T01:16:43Z</time>
      </trkpt>
      <trkpt lat="43.99078" lon="3.63631">
        <ele>247</ele>
        <time>2010-03-06T01:16:48Z</time>
      </trkpt>
      <trkpt lat="43.99078" lon="3.63638">
        <ele>247</ele>
        <time>2010-03-06T01:16:53Z</time>
      </trkpt>
      <trkpt lat="43.99069" lon="3.63644">
        <ele>246</ele>
        <time>2010-03-06T01:16:58Z</time>
      </trkpt>
      <trkpt lat="43.99061" lon="3.63641">
        <ele>247</ele>
        <time>2010-03-06T01:17:03Z</time>
      </trkpt>
      <trkpt lat="43.99053" lon="3.63643">
        <ele>248</ele>
        <time>2010-03-06T01:17:08Z</time>
      </trkpt>
      <trkpt lat="43.99046" lon="3.63646">
        <ele>249</ele>
        <time>2010-03-06T01:17:13Z</time>
      </trkpt>
      <trkpt lat="43.99039" lon="3.63651">
        <ele>249</ele>
        <time>2010-03-06T01:17:18Z</time>
      </trkpt>
      <trkpt lat="43.9903" lon="3.63656">
        <ele>250</ele>
        <time>2010-03-06T01:17:23Z</time>
      </trkpt>
      <trkpt lat="43.99021" lon="3.63663">
        <ele>250</ele>
        <time>2010-03-06T01:17:28Z</time>
      </trkpt>
      <trkpt lat="43.99019" lon="3.63672">
        <ele>248</ele>
        <time>2010-03-06T01:17:33Z</time>
      </trkpt>
      <trkpt lat="43.99027" lon="3.63673">
        <ele>247</ele>
        <time>2010-03-06T01:17:38Z</time>
      </trkpt>
      <trkpt lat="43.99031" lon="3.63673">
        <ele>246</ele>
        <time>2010-03-06T01:17:43Z</time>
      </trkpt>
      <trkpt lat="43.99036" lon="3.63669">
        <ele>245</ele>
        <time>2010-03-06T01:17:48Z</time>
      </trkpt>
      <trkpt lat="43.99045" lon="3.63668">
        <ele>244</ele>
        <time>2010-03-06T01:17:53Z</time>
      </trkpt>
      <trkpt lat="43.99053" lon="3.63671">
        <ele>244</ele>
        <time>2010-03-06T01:17:58Z</time>
      </trkpt>
      <trkpt lat="43.99061" lon="3.63679">
        <ele>243</ele>
        <time>2010-03-06T01:18:03Z</time>
      </trkpt>
      <trkpt lat="43.99071" lon="3.6369">
        <ele>242</ele>
        <time>2010-03-06T01:18:08Z</time>
      </trkpt>
      <trkpt lat="43.99079" lon="3.63699">
        <ele>242</ele>
        <time>2010-03-06T01:18:13Z</time>
      </trkpt>
      <trkpt lat="43.99087" lon="3.63703">
        <ele>231</ele>
        <time>2010-03-06T01:18:18Z</time>
      </trkpt>
      <trkpt lat="43.99095" lon="3.63706">
        <ele>231</ele>
        <time>2010-03-06T01:18:23Z</time>
      </trkpt>
      <trkpt lat="43.99106" lon="3.63708">
        <ele>230</ele>
        <time>2010-03-06T01:18:28Z</time>
      </trkpt>
      <trkpt lat="43.99114" lon="3.6371">
        <ele>229</ele>
        <time>2010-03-06T01:18:33Z</time>
      </trkpt>
      <trkpt lat="43.99124" lon="3.63717">
        <ele>227</ele>
        <time>2010-03-06T01:18:38Z</time>
      </trkpt>
      <trkpt lat="43.9913" lon="3.63722">
        <ele>226</ele>
        <time>2010-03-06T01:18:43Z</time>
      </trkpt>
      <trkpt lat="43.9914" lon="3.6373">
        <ele>224</ele>
        <time>2010-03-06T01:18:48Z</time>
      </trkpt>
      <trkpt lat="43.99148" lon="3.63724">
        <ele>224</ele>
        <time>2010-03-06T01:18:53Z</time>
      </trkpt>
      <trkpt lat="43.99158" lon="3.63717">
        <ele>223</ele>
        <time>2010-03-06T01:18:58Z</time>
      </trkpt>
      <trkpt lat="43.99167" lon="3.63708">
        <ele>215</ele>
        <time>2010-03-06T01:19:03Z</time>
      </trkpt>
      <trkpt lat="43.99175" lon="3.63702">
        <ele>216</ele>
        <time>2010-03-06T01:19:08Z</time>
      </trkpt>
      <trkpt lat="43.99185" lon="3.63693">
        <ele>216</ele>
        <time>2010-03-06T01:19:13Z</time>
      </trkpt>
      <trkpt lat="43.99195" lon="3.63683">
        <ele>216</ele>
        <time>2010-03-06T01:19:18Z</time>
      </trkpt>
      <trkpt lat="43.99204" lon="3.63673">
        <ele>215</ele>
        <time>2010-03-06T01:19:23Z</time>
      </trkpt>
      <trkpt lat="43.99211" lon="3.63666">
        <ele>219</ele>
        <time>2010-03-06T01:19:28Z</time>
      </trkpt>
      <trkpt lat="43.99222" lon="3.63655">
        <ele>218</ele>
        <time>2010-03-06T01:19:33Z</time>
      </trkpt>
      <trkpt lat="43.99232" lon="3.63647">
        <ele>217</ele>
        <time>2010-03-06T01:19:38Z</time>
      </trkpt>
      <trkpt lat="43.99241" lon="3.63639">
        <ele>217</ele>
        <time>2010-03-06T01:19:43Z</time>
      </trkpt>
      <trkpt lat="43.9925" lon="3.63631">
        <ele>211</ele>
        <time>2010-03-06T01:19:48Z</time>
      </trkpt>
      <trkpt lat="43.99258" lon="3.63625">
        <ele>211</ele>
        <time>2010-03-06T01:19:53Z</time>
      </trkpt>
      <trkpt lat="43.99266" lon="3.63615">
        <ele>211</ele>
        <time>2010-03-06T01:19:58Z</time>
      </trkpt>
      <trkpt lat="43.99276" lon="3.63602">
        <ele>211</ele>
        <time>2010-03-06T01:20:03Z</time>
      </trkpt>
      <trkpt lat="43.99285" lon="3.63594">
        <ele>211</ele>
        <time>2010-03-06T01:20:08Z</time>
      </trkpt>
      <trkpt lat="43.99297" lon="3.63589">
        <ele>211</ele>
        <time>2010-03-06T01:20:13Z</time>
      </trkpt>
      <trkpt lat="43.99306" lon="3.6359">
        <ele>211</ele>
        <time>2010-03-06T01:20:18Z</time>
      </trkpt>
      <trkpt lat="43.99317" lon="3.63591">
        <ele>211</ele>
        <time>2010-03-06T01:20:23Z</time>
      </trkpt>
      <trkpt lat="43.99328" lon="3.63592">
        <ele>211</ele>
        <time>2010-03-06T01:20:28Z</time>
      </trkpt>
      <trkpt lat="43.99339" lon="3.63592">
        <ele>215</ele>
        <time>2010-03-06T01:20:33Z</time>
      </trkpt>
      <trkpt lat="43.99347" lon="3.63592">
        <ele>216</ele>
        <time>2010-03-06T01:20:38Z</time>
      </trkpt>
      <trkpt lat="43.99349" lon="3.63579">
        <ele>219</ele>
        <time>2010-03-06T01:20:43Z</time>
      </trkpt>
      <trkpt lat="43.99351" lon="3.63561">
        <ele>221</ele>
        <time>2010-03-06T01:20:48Z</time>
      </trkpt>
      <trkpt lat="43.99353" lon="3.63545">
        <ele>223</ele>
        <time>2010-03-06T01:20:53Z</time>
      </trkpt>
      <trkpt lat="43.99356" lon="3.63532">
        <ele>223</ele>
        <time>2010-03-06T01:20:58Z</time>
      </trkpt>
      <trkpt lat="43.99359" lon="3.63523">
        <ele>223</ele>
        <time>2010-03-06T01:21:03Z</time>
      </trkpt>
      <trkpt lat="43.99361" lon="3.63508">
        <ele>223</ele>
        <time>2010-03-06T01:21:08Z</time>
      </trkpt>
      <trkpt lat="43.99365" lon="3.63491">
        <ele>224</ele>
        <time>2010-03-06T01:21:13Z</time>
      </trkpt>
      <trkpt lat="43.99367" lon="3.63475">
        <ele>225</ele>
        <time>2010-03-06T01:21:18Z</time>
      </trkpt>
      <trkpt lat="43.99369" lon="3.63463">
        <ele>226</ele>
        <time>2010-03-06T01:21:23Z</time>
      </trkpt>
      <trkpt lat="43.9937" lon="3.6345">
        <ele>226</ele>
        <time>2010-03-06T01:21:28Z</time>
      </trkpt>
      <trkpt lat="43.99374" lon="3.63434">
        <ele>226</ele>
        <time>2010-03-06T01:21:33Z</time>
      </trkpt>
      <trkpt lat="43.99376" lon="3.63423">
        <ele>227</ele>
        <time>2010-03-06T01:21:38Z</time>
      </trkpt>
      <trkpt lat="43.99377" lon="3.63414">
        <ele>227</ele>
        <time>2010-03-06T01:21:43Z</time>
      </trkpt>
      <trkpt lat="43.99378" lon="3.63406">
        <ele>227</ele>
        <time>2010-03-06T01:21:48Z</time>
      </trkpt>
      <trkpt lat="43.9938" lon="3.63396">
        <ele>228</ele>
        <time>2010-03-06T01:21:53Z</time>
      </trkpt>
      <trkpt lat="43.99381" lon="3.63387">
        <ele>228</ele>
        <time>2010-03-06T01:21:58Z</time>
      </trkpt>
      <trkpt lat="43.99385" lon="3.63378">
        <ele>229</ele>
        <time>2010-03-06T01:22:03Z</time>
      </trkpt>
      <trkpt lat="43.9939" lon="3.63371">
        <ele>230</ele>
        <time>2010-03-06T01:22:08Z</time>
      </trkpt>
      <trkpt lat="43.99393" lon="3.6337">
        <ele>230</ele>
        <time>2010-03-06T01:22:13Z</time>
      </trkpt>
      <trkpt lat="43.99396" lon="3.63366">
        <ele>231</ele>
        <time>2010-03-06T01:22:18Z</time>
      </trkpt>
      <trkpt lat="43.99399" lon="3.6337">
        <ele>231</ele>
        <time>2010-03-06T01:22:23Z</time>
      </trkpt>
      <trkpt lat="43.99397" lon="3.63372">
        <ele>231</ele>
        <time>2010-03-06T01:22:28Z</time>
      </trkpt>
      <trkpt lat="43.99396" lon="3.63375">
        <ele>231</ele>
        <time>2010-03-06T01:22:33Z</time>
      </trkpt>
      <trkpt lat="43.99398" lon="3.63377">
        <ele>231</ele>
        <time>2010-03-06T01:22:38Z</time>
      </trkpt>
      <trkpt lat="43.99399" lon="3.63382">
        <ele>231</ele>
        <time>2010-03-06T01:22:43Z</time>
      </trkpt>
      <trkpt lat="43.99399" lon="3.63389">
        <ele>231</ele>
        <time>2010-03-06T01:22:48Z</time>
      </trkpt>
      <trkpt lat="43.99401" lon="3.63398">
        <ele>233</ele>
        <time>2010-03-06T01:22:53Z</time>
      </trkpt>
      <trkpt lat="43.99402" lon="3.63405">
        <ele>234</ele>
        <time>2010-03-06T01:22:58Z</time>
      </trkpt>
      <trkpt lat="43.99402" lon="3.63423">
        <ele>234</ele>
        <time>2010-03-06T01:23:03Z</time>
      </trkpt>
      <trkpt lat="43.994" lon="3.63439">
        <ele>232</ele>
        <time>2010-03-06T01:23:08Z</time>
      </trkpt>
      <trkpt lat="43.99399" lon="3.63454">
        <ele>231</ele>
        <time>2010-03-06T01:23:13Z</time>
      </trkpt>
      <trkpt lat="43.99397" lon="3.63465">
        <ele>231</ele>
        <time>2010-03-06T01:23:18Z</time>
      </trkpt>
      <trkpt lat="43.99395" lon="3.6348">
        <ele>232</ele>
        <time>2010-03-06T01:23:23Z</time>
      </trkpt>
      <trkpt lat="43.99393" lon="3.63498">
        <ele>233</ele>
        <time>2010-03-06T01:23:28Z</time>
      </trkpt>
      <trkpt lat="43.9939" lon="3.63514">
        <ele>231</ele>
        <time>2010-03-06T01:23:33Z</time>
      </trkpt>
      <trkpt lat="43.99388" lon="3.6353">
        <ele>229</ele>
        <time>2010-03-06T01:23:38Z</time>
      </trkpt>
      <trkpt lat="43.99385" lon="3.63542">
        <ele>228</ele>
        <time>2010-03-06T01:23:43Z</time>
      </trkpt>
      <trkpt lat="43.99381" lon="3.6356">
        <ele>228</ele>
        <time>2010-03-06T01:23:48Z</time>
      </trkpt>
      <trkpt lat="43.99378" lon="3.63576">
        <ele>227</ele>
        <time>2010-03-06T01:23:53Z</time>
      </trkpt>
      <trkpt lat="43.99378" lon="3.63591">
        <ele>223</ele>
        <time>2010-03-06T01:23:58Z</time>
      </trkpt>
      <trkpt lat="43.99378" lon="3.63602">
        <ele>223</ele>
        <time>2010-03-06T01:24:03Z</time>
      </trkpt>
      <trkpt lat="43.99378" lon="3.63615">
        <ele>222</ele>
        <time>2010-03-06T01:24:08Z</time>
      </trkpt>
      <trkpt lat="43.99377" lon="3.63633">
        <ele>221</ele>
        <time>2010-03-06T01:24:13Z</time>
      </trkpt>
      <trkpt lat="43.99378" lon="3.63648">
        <ele>221</ele>
        <time>2010-03-06T01:24:18Z</time>
      </trkpt>
      <trkpt lat="43.99379" lon="3.63662">
        <ele>220</ele>
        <time>2010-03-06T01:24:23Z</time>
      </trkpt>
      <trkpt lat="43.99379" lon="3.63674">
        <ele>219</ele>
        <time>2010-03-06T01:24:28Z</time>
      </trkpt>
      <trkpt lat="43.9938" lon="3.63692">
        <ele>219</ele>
        <time>2010-03-06T01:24:33Z</time>
      </trkpt>
      <trkpt lat="43.99381" lon="3.63707">
        <ele>220</ele>
        <time>2010-03-06T01:24:38Z</time>
      </trkpt>
      <trkpt lat="43.99383" lon="3.63721">
        <ele>220</ele>
        <time>2010-03-06T01:24:43Z</time>
      </trkpt>
      <trkpt lat="43.99385" lon="3.63733">
        <ele>221</ele>
        <time>2010-03-06T01:24:48Z</time>
      </trkpt>
      <trkpt lat="43.99389" lon="3.63747">
        <ele>223</ele>
        <time>2010-03-06T01:24:53Z</time>
      </trkpt>
      <trkpt lat="43.99393" lon="3.63765">
        <ele>225</ele>
        <time>2010-03-06T01:24:58Z</time>
      </trkpt>
      <trkpt lat="43.99397" lon="3.63779">
        <ele>225</ele>
        <time>2010-03-06T01:25:03Z</time>
      </trkpt>
      <trkpt lat="43.99401" lon="3.63793">
        <ele>225</ele>
        <time>2010-03-06T01:25:08Z</time>
      </trkpt>
      <trkpt lat="43.99404" lon="3.63803">
        <ele>226</ele>
        <time>2010-03-06T01:25:13Z</time>
      </trkpt>
      <trkpt lat="43.9941" lon="3.63816">
        <ele>229</ele>
        <time>2010-03-06T01:25:18Z</time>
      </trkpt>
      <trkpt lat="43.99415" lon="3.63828">
        <ele>233</ele>
        <time>2010-03-06T01:25:23Z</time>
      </trkpt>
      <trkpt lat="43.99422" lon="3.63839">
        <ele>239</ele>
        <time>2010-03-06T01:25:28Z</time>
      </trkpt>
      <trkpt lat="43.99428" lon="3.63848">
        <ele>241</ele>
        <time>2010-03-06T01:25:33Z</time>
      </trkpt>
      <trkpt lat="43.99434" lon="3.63855">
        <ele>243</ele>
        <time>2010-03-06T01:25:38Z</time>
      </trkpt>
      <trkpt lat="43.99446" lon="3.63856">
        <ele>245</ele>
        <time>2010-03-06T01:25:43Z</time>
      </trkpt>
      <trkpt lat="43.99453" lon="3.63856">
        <ele>247</ele>
        <time>2010-03-06T01:25:48Z</time>
      </trkpt>
      <trkpt lat="43.99453" lon="3.63856">
        <ele>247</ele>
        <time>2010-03-06T01:25:53Z</time>
      </trkpt>
      <trkpt lat="43.99453" lon="3.63856">
        <ele>247</ele>
        <time>2010-03-06T01:25:58Z</time>
      </trkpt>
      <trkpt lat="43.99453" lon="3.63856">
        <ele>247</ele>
        <time>2010-03-06T01:26:03Z</time>
      </trkpt>
      <trkpt lat="43.99453" lon="3.63856">
        <ele>247</ele>
        <time>2010-03-06T01:26:08Z</time>
      </trkpt>
      <trkpt lat="43.99453" lon="3.63856">
        <ele>247</ele>
        <time>2010-03-06T01:26:13Z</time>
      </trkpt>
      <trkpt lat="43.99453" lon="3.63856">
        <ele>247</ele>
        <time>2010-03-06T01:26:18Z</time>
      </trkpt>
      <trkpt lat="43.99453" lon="3.63856">
        <ele>247</ele>
        <time>2010-03-06T01:26:23Z</time>
      </trkpt>
      <trkpt lat="43.99526" lon="3.63947">
        <ele>243</ele>
        <time>2010-03-06T01:26:28Z</time>
      </trkpt>
      <trkpt lat="43.99536" lon="3.63953">
        <ele>242</ele>
        <time>2010-03-06T01:26:33Z</time>
      </trkpt>
      <trkpt lat="43.99545" lon="3.6396">
        <ele>241</ele>
        <time>2010-03-06T01:26:38Z</time>
      </trkpt>
      <trkpt lat="43.99553" lon="3.63965">
        <ele>241</ele>
        <time>2010-03-06T01:26:43Z</time>
      </trkpt>
      <trkpt lat="43.99562" lon="3.63972">
        <ele>239</ele>
        <time>2010-03-06T01:26:48Z</time>
      </trkpt>
      <trkpt lat="43.99573" lon="3.63981">
        <ele>236</ele>
        <time>2010-03-06T01:26:53Z</time>
      </trkpt>
      <trkpt lat="43.99583" lon="3.63987">
        <ele>233</ele>
        <time>2010-03-06T01:26:58Z</time>
      </trkpt>
      <trkpt lat="43.99594" lon="3.63995">
        <ele>242</ele>
        <time>2010-03-06T01:27:03Z</time>
      </trkpt>
      <trkpt lat="43.99601" lon="3.64001">
        <ele>231</ele>
        <time>2010-03-06T01:27:08Z</time>
      </trkpt>
      <trkpt lat="43.99611" lon="3.64009">
        <ele>234</ele>
        <time>2010-03-06T01:27:13Z</time>
      </trkpt>
      <trkpt lat="43.99622" lon="3.6402">
        <ele>236</ele>
        <time>2010-03-06T01:27:18Z</time>
      </trkpt>
      <trkpt lat="43.99631" lon="3.64029">
        <ele>236</ele>
        <time>2010-03-06T01:27:23Z</time>
      </trkpt>
      <trkpt lat="43.99638" lon="3.64035">
        <ele>237</ele>
        <time>2010-03-06T01:27:28Z</time>
      </trkpt>
      <trkpt lat="43.99647" lon="3.64045">
        <ele>236</ele>
        <time>2010-03-06T01:27:33Z</time>
      </trkpt>
      <trkpt lat="43.99657" lon="3.64059">
        <ele>234</ele>
        <time>2010-03-06T01:27:38Z</time>
      </trkpt>
      <trkpt lat="43.99665" lon="3.64072">
        <ele>233</ele>
        <time>2010-03-06T01:27:43Z</time>
      </trkpt>
      <trkpt lat="43.99674" lon="3.64083">
        <ele>241</ele>
        <time>2010-03-06T01:27:48Z</time>
      </trkpt>
      <trkpt lat="43.9968" lon="3.64091">
        <ele>235</ele>
        <time>2010-03-06T01:27:53Z</time>
      </trkpt>
      <trkpt lat="43.9969" lon="3.64103">
        <ele>236</ele>
        <time>2010-03-06T01:27:58Z</time>
      </trkpt>
      <trkpt lat="43.99697" lon="3.64114">
        <ele>236</ele>
        <time>2010-03-06T01:28:03Z</time>
      </trkpt>
      <trkpt lat="43.99705" lon="3.64125">
        <ele>236</ele>
        <time>2010-03-06T01:28:08Z</time>
      </trkpt>
      <trkpt lat="43.9971" lon="3.64136">
        <ele>235</ele>
        <time>2010-03-06T01:28:13Z</time>
      </trkpt>
      <trkpt lat="43.99716" lon="3.6415">
        <ele>234</ele>
        <time>2010-03-06T01:28:18Z</time>
      </trkpt>
      <trkpt lat="43.99724" lon="3.64165">
        <ele>234</ele>
        <time>2010-03-06T01:28:23Z</time>
      </trkpt>
      <trkpt lat="43.99731" lon="3.64177">
        <ele>225</ele>
        <time>2010-03-06T01:28:28Z</time>
      </trkpt>
      <trkpt lat="43.99737" lon="3.64191">
        <ele>224</ele>
        <time>2010-03-06T01:28:33Z</time>
      </trkpt>
      <trkpt lat="43.99742" lon="3.64201">
        <ele>222</ele>
        <time>2010-03-06T01:28:38Z</time>
      </trkpt>
      <trkpt lat="43.99745" lon="3.6422">
        <ele>220</ele>
        <time>2010-03-06T01:28:43Z</time>
      </trkpt>
      <trkpt lat="43.99748" lon="3.64235">
        <ele>219</ele>
        <time>2010-03-06T01:28:48Z</time>
      </trkpt>
      <trkpt lat="43.99752" lon="3.64251">
        <ele>219</ele>
        <time>2010-03-06T01:28:53Z</time>
      </trkpt>
      <trkpt lat="43.99755" lon="3.64263">
        <ele>225</ele>
        <time>2010-03-06T01:28:58Z</time>
      </trkpt>
      <trkpt lat="43.99758" lon="3.64281">
        <ele>230</ele>
        <time>2010-03-06T01:29:03Z</time>
      </trkpt>
      <trkpt lat="43.9976" lon="3.64297">
        <ele>230</ele>
        <time>2010-03-06T01:29:08Z</time>
      </trkpt>
      <trkpt lat="43.99762" lon="3.64312">
        <ele>229</ele>
        <time>2010-03-06T01:29:13Z</time>
      </trkpt>
      <trkpt lat="43.99763" lon="3.64327">
        <ele>227</ele>
        <time>2010-03-06T01:29:18Z</time>
      </trkpt>
      <trkpt lat="43.99762" lon="3.64339">
        <ele>228</ele>
        <time>2010-03-06T01:29:23Z</time>
      </trkpt>
      <trkpt lat="43.99763" lon="3.64354">
        <ele>231</ele>
        <time>2010-03-06T01:29:28Z</time>
      </trkpt>
      <trkpt lat="43.99762" lon="3.64372">
        <ele>232</ele>
        <time>2010-03-06T01:29:33Z</time>
      </trkpt>
      <trkpt lat="43.99762" lon="3.64387">
        <ele>232</ele>
        <time>2010-03-06T01:29:38Z</time>
      </trkpt>
      <trkpt lat="43.99763" lon="3.64402">
        <ele>230</ele>
        <time>2010-03-06T01:29:43Z</time>
      </trkpt>
      <trkpt lat="43.99763" lon="3.64414">
        <ele>228</ele>
        <time>2010-03-06T01:29:48Z</time>
      </trkpt>
      <trkpt lat="43.99762" lon="3.64432">
        <ele>231</ele>
        <time>2010-03-06T01:29:53Z</time>
      </trkpt>
      <trkpt lat="43.99762" lon="3.64448">
        <ele>234</ele>
        <time>2010-03-06T01:29:58Z</time>
      </trkpt>
      <trkpt lat="43.99761" lon="3.64462">
        <ele>234</ele>
        <time>2010-03-06T01:30:03Z</time>
      </trkpt>
      <trkpt lat="43.9976" lon="3.64474">
        <ele>234</ele>
        <time>2010-03-06T01:30:08Z</time>
      </trkpt>
      <trkpt lat="43.99759" lon="3.6448">
        <ele>233</ele>
        <time>2010-03-06T01:30:13Z</time>
      </trkpt>
      <trkpt lat="43.99759" lon="3.6448">
        <ele>233</ele>
        <time>2010-03-06T01:30:18Z</time>
      </trkpt>
      <trkpt lat="43.99759" lon="3.6448">
        <ele>233</ele>
        <time>2010-03-06T01:30:23Z</time>
      </trkpt>
      <trkpt lat="43.99759" lon="3.6448">
        <ele>233</ele>
        <time>2010-03-06T01:30:28Z</time>
      </trkpt>
      <trkpt lat="43.99759" lon="3.6448">
        <ele>233</ele>
        <time>2010-03-06T01:30:33Z</time>
      </trkpt>
      <trkpt lat="43.99759" lon="3.6448">
        <ele>233</ele>
        <time>2010-03-06T01:30:38Z</time>
      </trkpt>
      <trkpt lat="43.99759" lon="3.6448">
        <ele>233</ele>
        <time>2010-03-06T01:30:43Z</time>
      </trkpt>
      <trkpt lat="43.99764" lon="3.64609">
        <ele>224</ele>
        <time>2010-03-06T01:30:48Z</time>
      </trkpt>
      <trkpt lat="43.99779" lon="3.64618">
        <ele>225</ele>
        <time>2010-03-06T01:30:53Z</time>
      </trkpt>
      <trkpt lat="43.99785" lon="3.64631">
        <ele>224</ele>
        <time>2010-03-06T01:30:58Z</time>
      </trkpt>
      <trkpt lat="43.9979" lon="3.64648">
        <ele>224</ele>
        <time>2010-03-06T01:31:03Z</time>
      </trkpt>
      <trkpt lat="43.99795" lon="3.64661">
        <ele>223</ele>
        <time>2010-03-06T01:31:08Z</time>
      </trkpt>
      <trkpt lat="43.99801" lon="3.64674">
        <ele>216</ele>
        <time>2010-03-06T01:31:13Z</time>
      </trkpt>
      <trkpt lat="43.99805" lon="3.64683">
        <ele>215</ele>
        <time>2010-03-06T01:31:18Z</time>
      </trkpt>
      <trkpt lat="43.99814" lon="3.64697">
        <ele>215</ele>
        <time>2010-03-06T01:31:23Z</time>
      </trkpt>
      <trkpt lat="43.99822" lon="3.64707">
        <ele>214</ele>
        <time>2010-03-06T01:31:28Z</time>
      </trkpt>
      <trkpt lat="43.9983" lon="3.64719">
        <ele>213</ele>
        <time>2010-03-06T01:31:33Z</time>
      </trkpt>
      <trkpt lat="43.99837" lon="3.64727">
        <ele>218</ele>
        <time>2010-03-06T01:31:38Z</time>
      </trkpt>
      <trkpt lat="43.99848" lon="3.64739">
        <ele>217</ele>
        <time>2010-03-06T01:31:43Z</time>
      </trkpt>
      <trkpt lat="43.99857" lon="3.64748">
        <ele>219</ele>
        <time>2010-03-06T01:31:48Z</time>
      </trkpt>
      <trkpt lat="43.99867" lon="3.64757">
        <ele>213</ele>
        <time>2010-03-06T01:31:53Z</time>
      </trkpt>
      <trkpt lat="43.99876" lon="3.64766">
        <ele>214</ele>
        <time>2010-03-06T01:31:58Z</time>
      </trkpt>
      <trkpt lat="43.99884" lon="3.64772">
        <ele>215</ele>
        <time>2010-03-06T01:32:03Z</time>
      </trkpt>
      <trkpt lat="43.99894" lon="3.6478">
        <ele>215</ele>
        <time>2010-03-06T01:32:08Z</time>
      </trkpt>
      <trkpt lat="43.99906" lon="3.64788">
        <ele>214</ele>
        <time>2010-03-06T01:32:13Z</time>
      </trkpt>
      <trkpt lat="43.99916" lon="3.64794">
        <ele>213</ele>
        <time>2010-03-06T01:32:18Z</time>
      </trkpt>
      <trkpt lat="43.99927" lon="3.64799">
        <ele>225</ele>
        <time>2010-03-06T01:32:23Z</time>
      </trkpt>
      <trkpt lat="43.99935" lon="3.64804">
        <ele>225</ele>
        <time>2010-03-06T01:32:28Z</time>
      </trkpt>
      <trkpt lat="43.99949" lon="3.64809">
        <ele>227</ele>
        <time>2010-03-06T01:32:33Z</time>
      </trkpt>
      <trkpt lat="43.9996" lon="3.64817">
        <ele>228</ele>
        <time>2010-03-06T01:32:38Z</time>
      </trkpt>
      <trkpt lat="43.9997" lon="3.64825">
        <ele>229</ele>
        <time>2010-03-06T01:32:43Z</time>
      </trkpt>
      <trkpt lat="43.99977" lon="3.64835">
        <ele>219</ele>
        <time>2010-03-06T01:32:48Z</time>
      </trkpt>
      <trkpt lat="43.99985" lon="3.64841">
        <ele>221</ele>
        <time>2010-03-06T01:32:53Z</time>
      </trkpt>
      <trkpt lat="43.99998" lon="3.64854">
        <ele>220</ele>
        <time>2010-03-06T01:32:58Z</time>
      </trkpt>
      <trkpt lat="44.00009" lon="3.64864">
        <ele>229</ele>
        <time>2010-03-06T01:33:03Z</time>
      </trkpt>
      <trkpt lat="44.00016" lon="3.64874">
        <ele>228</ele>
        <time>2010-03-06T01:33:08Z</time>
      </trkpt>
      <trkpt lat="44.00024" lon="3.64883">
        <ele>227</ele>
        <time>2010-03-06T01:33:13Z</time>
      </trkpt>
      <trkpt lat="44.00033" lon="3.64896">
        <ele>226</ele>
        <time>2010-03-06T01:33:18Z</time>
      </trkpt>
      <trkpt lat="44.00039" lon="3.64911">
        <ele>226</ele>
        <time>2010-03-06T01:33:23Z</time>
      </trkpt>
      <trkpt lat="44.00048" lon="3.64922">
        <ele>218</ele>
        <time>2010-03-06T01:33:28Z</time>
      </trkpt>
      <trkpt lat="44.00051" lon="3.64934">
        <ele>218</ele>
        <time>2010-03-06T01:33:33Z</time>
      </trkpt>
      <trkpt lat="44.00058" lon="3.64947">
        <ele>218</ele>
        <time>2010-03-06T01:33:38Z</time>
      </trkpt>
      <trkpt lat="44.00064" lon="3.64964">
        <ele>218</ele>
        <time>2010-03-06T01:33:43Z</time>
      </trkpt>
      <trkpt lat="44.0007" lon="3.64979">
        <ele>219</ele>
        <time>2010-03-06T01:33:48Z</time>
      </trkpt>
      <trkpt lat="44.00075" lon="3.64993">
        <ele>221</ele>
        <time>2010-03-06T01:33:53Z</time>
      </trkpt>
      <trkpt lat="44.00079" lon="3.65004">
        <ele>222</ele>
        <time>2010-03-06T01:33:58Z</time>
      </trkpt>
      <trkpt lat="44.00085" lon="3.6502">
        <ele>232</ele>
        <time>2010-03-06T01:34:03Z</time>
      </trkpt>
      <trkpt lat="44.00088" lon="3.65036">
        <ele>234</ele>
        <time>2010-03-06T01:34:08Z</time>
      </trkpt>
      <trkpt lat="44.00094" lon="3.65049">
        <ele>234</ele>
        <time>2010-03-06T01:34:13Z</time>
      </trkpt>
      <trkpt lat="44.00099" lon="3.65059">
        <ele>233</ele>
        <time>2010-03-06T01:34:18Z</time>
      </trkpt>
      <trkpt lat="44.00104" lon="3.65073">
        <ele>232</ele>
        <time>2010-03-06T01:34:23Z</time>
      </trkpt>
      <trkpt lat="44.00109" lon="3.65089">
        <ele>226</ele>
        <time>2010-03-06T01:34:28Z</time>
      </trkpt>
      <trkpt lat="44.00115" lon="3.65102">
        <ele>227</ele>
        <time>2010-03-06T01:34:33Z</time>
      </trkpt>
      <trkpt lat="44.0012" lon="3.65118">
        <ele>227</ele>
        <time>2010-03-06T01:34:38Z</time>
      </trkpt>
      <trkpt lat="44.00124" lon="3.65129">
        <ele>227</ele>
        <time>2010-03-06T01:34:43Z</time>
      </trkpt>
      <trkpt lat="44.00127" lon="3.65149">
        <ele>225</ele>
        <time>2010-03-06T01:34:48Z</time>
      </trkpt>
      <trkpt lat="44.0013" lon="3.65164">
        <ele>225</ele>
        <time>2010-03-06T01:34:53Z</time>
      </trkpt>
      <trkpt lat="44.00138" lon="3.65177">
        <ele>216</ele>
        <time>2010-03-06T01:34:58Z</time>
      </trkpt>
      <trkpt lat="44.00141" lon="3.65189">
        <ele>216</ele>
        <time>2010-03-06T01:35:03Z</time>
      </trkpt>
      <trkpt lat="44.00147" lon="3.65202">
        <ele>215</ele>
        <time>2010-03-06T01:35:08Z</time>
      </trkpt>
      <trkpt lat="44.00154" lon="3.65218">
        <ele>213</ele>
        <time>2010-03-06T01:35:13Z</time>
      </trkpt>
      <trkpt lat="44.00159" lon="3.65233">
        <ele>212</ele>
        <time>2010-03-06T01:35:18Z</time>
      </trkpt>
      <trkpt lat="44.00164" lon="3.65248">
        <ele>212</ele>
        <time>2010-03-06T01:35:23Z</time>
      </trkpt>
      <trkpt lat="44.00163" lon="3.65263">
        <ele>208</ele>
        <time>2010-03-06T01:35:28Z</time>
      </trkpt>
      <trkpt lat="44.00169" lon="3.65274">
        <ele>217</ele>
        <time>2010-03-06T01:35:33Z</time>
      </trkpt>
      <trkpt lat="44.00177" lon="3.65287">
        <ele>218</ele>
        <time>2010-03-06T01:35:38Z</time>
      </trkpt>
      <trkpt lat="44.00183" lon="3.65294">
        <ele>219</ele>
        <time>2010-03-06T01:35:43Z</time>
      </trkpt>
      <trkpt lat="44.00183" lon="3.65286">
        <ele>219</ele>
        <time>2010-03-06T01:35:48Z</time>
      </trkpt>
      <trkpt lat="44.00184" lon="3.65278">
        <ele>219</ele>
        <time>2010-03-06T01:35:53Z</time>
      </trkpt>
      <trkpt lat="44.0019" lon="3.65266">
        <ele>219</ele>
        <time>2010-03-06T01:35:58Z</time>
      </trkpt>
      <trkpt lat="44.00196" lon="3.65261">
        <ele>220</ele>
        <time>2010-03-06T01:36:03Z</time>
      </trkpt>
      <trkpt lat="44.00201" lon="3.65255">
        <ele>221</ele>
        <time>2010-03-06T01:36:08Z</time>
      </trkpt>
      <trkpt lat="44.00207" lon="3.65251">
        <ele>222</ele>
        <time>2010-03-06T01:36:13Z</time>
      </trkpt>
      <trkpt lat="44.00212" lon="3.65247">
        <ele>228</ele>
        <time>2010-03-06T01:36:18Z</time>
      </trkpt>
      <trkpt lat="44.00217" lon="3.65242">
        <ele>229</ele>
        <time>2010-03-06T01:36:23Z</time>
      </trkpt>
      <trkpt lat="44.00221" lon="3.65236">
        <ele>230</ele>
        <time>2010-03-06T01:36:28Z</time>
      </trkpt>
      <trkpt lat="44.00226" lon="3.6523">
        <ele>230</ele>
        <time>2010-03-06T01:36:33Z</time>
      </trkpt>
      <trkpt lat="44.0023" lon="3.65225">
        <ele>231</ele>
        <time>2010-03-06T01:36:38Z</time>
      </trkpt>
      <trkpt lat="44.00234" lon="3.65216">
        <ele>231</ele>
        <time>2010-03-06T01:36:43Z</time>
      </trkpt>
      <trkpt lat="44.00236" lon="3.65209">
        <ele>232</ele>
        <time>2010-03-06T01:36:48Z</time>
      </trkpt>
      <trkpt lat="44.00232" lon="3.65207">
        <ele>232</ele>
        <time>2010-03-06T01:36:53Z</time>
      </trkpt>
      <trkpt lat="44.00227" lon="3.65207">
        <ele>231</ele>
        <time>2010-03-06T01:36:58Z</time>
      </trkpt>
      <trkpt lat="44.00221" lon="3.6521">
        <ele>231</ele>
        <time>2010-03-06T01:37:03Z</time>
      </trkpt>
      <trkpt lat="44.00215" lon="3.65211">
        <ele>230</ele>
        <time>2010-03-06T01:37:08Z</time>
      </trkpt>
      <trkpt lat="44.00208" lon="3.65212">
        <ele>229</ele>
        <time>2010-03-06T01:37:13Z</time>
      </trkpt>
      <trkpt lat="44.00199" lon="3.65212">
        <ele>228</ele>
        <time>2010-03-06T01:37:18Z</time>
      </trkpt>
      <trkpt lat="44.00191" lon="3.6521">
        <ele>228</ele>
        <time>2010-03-06T01:37:23Z</time>
      </trkpt>
      <trkpt lat="44.00184" lon="3.65203">
        <ele>228</ele>
        <time>2010-03-06T01:37:28Z</time>
      </trkpt>
      <trkpt lat="44.00187" lon="3.65194">
        <ele>229</ele>
        <time>2010-03-06T01:37:33Z</time>
      </trkpt>
      <trkpt lat="44.00195" lon="3.65194">
        <ele>229</ele>
        <time>2010-03-06T01:37:38Z</time>
      </trkpt>
      <trkpt lat="44.00201" lon="3.65193">
        <ele>230</ele>
        <time>2010-03-06T01:37:43Z</time>
      </trkpt>
      <trkpt lat="44.00207" lon="3.65191">
        <ele>231</ele>
        <time>2010-03-06T01:37:48Z</time>
      </trkpt>
      <trkpt lat="44.00212" lon="3.65186">
        <ele>231</ele>
        <time>2010-03-06T01:37:53Z</time>
      </trkpt>
      <trkpt lat="44.00218" lon="3.65181">
        <ele>232</ele>
        <time>2010-03-06T01:37:58Z</time>
      </trkpt>
      <trkpt lat="44.00225" lon="3.65177">
        <ele>233</ele>
        <time>2010-03-06T01:38:03Z</time>
      </trkpt>
      <trkpt lat="44.00229" lon="3.65173">
        <ele>234</ele>
        <time>2010-03-06T01:38:08Z</time>
      </trkpt>
      <trkpt lat="44.00234" lon="3.65168">
        <ele>235</ele>
        <time>2010-03-06T01:38:13Z</time>
      </trkpt>
      <trkpt lat="44.00241" lon="3.65166">
        <ele>242</ele>
        <time>2010-03-06T01:38:18Z</time>
      </trkpt>
      <trkpt lat="44.00248" lon="3.65169">
        <ele>239</ele>
        <time>2010-03-06T01:38:23Z</time>
      </trkpt>
      <trkpt lat="44.00255" lon="3.65164">
        <ele>244</ele>
        <time>2010-03-06T01:38:28Z</time>
      </trkpt>
      <trkpt lat="44.00253" lon="3.65161">
        <ele>244</ele>
        <time>2010-03-06T01:38:33Z</time>
      </trkpt>
      <trkpt lat="44.00247" lon="3.65162">
        <ele>241</ele>
        <time>2010-03-06T01:38:38Z</time>
      </trkpt>
      <trkpt lat="44.00243" lon="3.65167">
        <ele>237</ele>
        <time>2010-03-06T01:38:43Z</time>
      </trkpt>
      <trkpt lat="44.00235" lon="3.65171">
        <ele>235</ele>
        <time>2010-03-06T01:38:48Z</time>
      </trkpt>
      <trkpt lat="44.00229" lon="3.65172">
        <ele>234</ele>
        <time>2010-03-06T01:38:53Z</time>
      </trkpt>
      <trkpt lat="44.00223" lon="3.65174">
        <ele>233</ele>
        <time>2010-03-06T01:38:58Z</time>
      </trkpt>
      <trkpt lat="44.00216" lon="3.65173">
        <ele>232</ele>
        <time>2010-03-06T01:39:03Z</time>
      </trkpt>
      <trkpt lat="44.00207" lon="3.65174">
        <ele>231</ele>
        <time>2010-03-06T01:39:08Z</time>
      </trkpt>
      <trkpt lat="44.00198" lon="3.65172">
        <ele>231</ele>
        <time>2010-03-06T01:39:13Z</time>
      </trkpt>
      <trkpt lat="44.00195" lon="3.65168">
        <ele>231</ele>
        <time>2010-03-06T01:39:18Z</time>
      </trkpt>
      <trkpt lat="44.00188" lon="3.65161">
        <ele>240</ele>
        <time>2010-03-06T01:39:23Z</time>
      </trkpt>
      <trkpt lat="44.00183" lon="3.65155">
        <ele>240</ele>
        <time>2010-03-06T01:39:28Z</time>
      </trkpt>
      <trkpt lat="44.00179" lon="3.65148">
        <ele>241</ele>
        <time>2010-03-06T01:39:33Z</time>
      </trkpt>
      <trkpt lat="44.00175" lon="3.65144">
        <ele>241</ele>
        <time>2010-03-06T01:39:38Z</time>
      </trkpt>
      <trkpt lat="44.00172" lon="3.65136">
        <ele>243</ele>
        <time>2010-03-06T01:39:43Z</time>
      </trkpt>
      <trkpt lat="44.00167" lon="3.65127">
        <ele>233</ele>
        <time>2010-03-06T01:39:48Z</time>
      </trkpt>
      <trkpt lat="44.00163" lon="3.65119">
        <ele>234</ele>
        <time>2010-03-06T01:39:53Z</time>
      </trkpt>
      <trkpt lat="44.00158" lon="3.65112">
        <ele>235</ele>
        <time>2010-03-06T01:39:58Z</time>
      </trkpt>
      <trkpt lat="44.00155" lon="3.65107">
        <ele>236</ele>
        <time>2010-03-06T01:40:03Z</time>
      </trkpt>
      <trkpt lat="44.00152" lon="3.65095">
        <ele>239</ele>
        <time>2010-03-06T01:40:08Z</time>
      </trkpt>
      <trkpt lat="44.0015" lon="3.65086">
        <ele>240</ele>
        <time>2010-03-06T01:40:13Z</time>
      </trkpt>
      <trkpt lat="44.00146" lon="3.65077">
        <ele>245</ele>
        <time>2010-03-06T01:40:18Z</time>
      </trkpt>
      <trkpt lat="44.00144" lon="3.6507">
        <ele>244</ele>
        <time>2010-03-06T01:40:23Z</time>
      </trkpt>
      <trkpt lat="44.0014" lon="3.65063">
        <ele>243</ele>
        <time>2010-03-06T01:40:28Z</time>
      </trkpt>
      <trkpt lat="44.00138" lon="3.65052">
        <ele>242</ele>
        <time>2010-03-06T01:40:33Z</time>
      </trkpt>
      <trkpt lat="44.00137" lon="3.65043">
        <ele>242</ele>
        <time>2010-03-06T01:40:38Z</time>
      </trkpt>
      <trkpt lat="44.00135" lon="3.65034">
        <ele>242</ele>
        <time>2010-03-06T01:40:43Z</time>
      </trkpt>
      <trkpt lat="44.00134" lon="3.65027">
        <ele>243</ele>
        <time>2010-03-06T01:40:48Z</time>
      </trkpt>
      <trkpt lat="44.00132" lon="3.65017">
        <ele>243</ele>
        <time>2010-03-06T01:40:53Z</time>
      </trkpt>
      <trkpt lat="44.00131" lon="3.65008">
        <ele>243</ele>
        <time>2010-03-06T01:40:58Z</time>
      </trkpt>
      <trkpt lat="44.00129" lon="3.64999">
        <ele>244</ele>
        <time>2010-03-06T01:41:03Z</time>
      </trkpt>
      <trkpt lat="44.0013" lon="3.64992">
        <ele>245</ele>
        <time>2010-03-06T01:41:08Z</time>
      </trkpt>
      <trkpt lat="44.00133" lon="3.64982">
        <ele>245</ele>
        <time>2010-03-06T01:41:13Z</time>
      </trkpt>
      <trkpt lat="44.00138" lon="3.64972">
        <ele>246</ele>
        <time>2010-03-06T01:41:18Z</time>
      </trkpt>
      <trkpt lat="44.00143" lon="3.64963">
        <ele>246</ele>
        <time>2010-03-06T01:41:23Z</time>
      </trkpt>
      <trkpt lat="44.00149" lon="3.6496">
        <ele>247</ele>
        <time>2010-03-06T01:41:28Z</time>
      </trkpt>
      <trkpt lat="44.00154" lon="3.64956">
        <ele>247</ele>
        <time>2010-03-06T01:41:33Z</time>
      </trkpt>
      <trkpt lat="44.00159" lon="3.64955">
        <ele>248</ele>
        <time>2010-03-06T01:41:38Z</time>
      </trkpt>
      <trkpt lat="44.00166" lon="3.64953">
        <ele>248</ele>
        <time>2010-03-06T01:41:43Z</time>
      </trkpt>
      <trkpt lat="44.00173" lon="3.64951">
        <ele>262</ele>
        <time>2010-03-06T01:41:48Z</time>
      </trkpt>
      <trkpt lat="44.00178" lon="3.64947">
        <ele>262</ele>
        <time>2010-03-06T01:41:53Z</time>
      </trkpt>
      <trkpt lat="44.00183" lon="3.64945">
        <ele>262</ele>
        <time>2010-03-06T01:41:58Z</time>
      </trkpt>
      <trkpt lat="44.0019" lon="3.6494">
        <ele>262</ele>
        <time>2010-03-06T01:42:03Z</time>
      </trkpt>
      <trkpt lat="44.00195" lon="3.64936">
        <ele>263</ele>
        <time>2010-03-06T01:42:08Z</time>
      </trkpt>
      <trkpt lat="44.00201" lon="3.64931">
        <ele>263</ele>
        <time>2010-03-06T01:42:13Z</time>
      </trkpt>
      <trkpt lat="44.00206" lon="3.64926">
        <ele>264</ele>
        <time>2010-03-06T01:42:18Z</time>
      </trkpt>
      <trkpt lat="44.00215" lon="3.6492">
        <ele>265</ele>
        <time>2010-03-06T01:42:23Z</time>
      </trkpt>
      <trkpt lat="44.00226" lon="3.64912">
        <ele>264</ele>
        <time>2010-03-06T01:42:28Z</time>
      </trkpt>
      <trkpt lat="44.00232" lon="3.64904">
        <ele>264</ele>
        <time>2010-03-06T01:42:33Z</time>
      </trkpt>
      <trkpt lat="44.00238" lon="3.64897">
        <ele>264</ele>
        <time>2010-03-06T01:42:38Z</time>
      </trkpt>
      <trkpt lat="44.00245" lon="3.6489">
        <ele>264</ele>
        <time>2010-03-06T01:42:43Z</time>
      </trkpt>
      <trkpt lat="44.00256" lon="3.64881">
        <ele>274</ele>
        <time>2010-03-06T01:42:48Z</time>
      </trkpt>
      <trkpt lat="44.00264" lon="3.64873">
        <ele>274</ele>
        <time>2010-03-06T01:42:53Z</time>
      </trkpt>
      <trkpt lat="44.00272" lon="3.64865">
        <ele>274</ele>
        <time>2010-03-06T01:42:58Z</time>
      </trkpt>
      <trkpt lat="44.00277" lon="3.64861">
        <ele>275</ele>
        <time>2010-03-06T01:43:03Z</time>
      </trkpt>
      <trkpt lat="44.00283" lon="3.64855">
        <ele>275</ele>
        <time>2010-03-06T01:43:08Z</time>
      </trkpt>
      <trkpt lat="44.00291" lon="3.64851">
        <ele>276</ele>
        <time>2010-03-06T01:43:13Z</time>
      </trkpt>
      <trkpt lat="44.00298" lon="3.64848">
        <ele>277</ele>
        <time>2010-03-06T01:43:18Z</time>
      </trkpt>
      <trkpt lat="44.00306" lon="3.64843">
        <ele>279</ele>
        <time>2010-03-06T01:43:23Z</time>
      </trkpt>
      <trkpt lat="44.00308" lon="3.64835">
        <ele>279</ele>
        <time>2010-03-06T01:43:28Z</time>
      </trkpt>
      <trkpt lat="44.00301" lon="3.64829">
        <ele>278</ele>
        <time>2010-03-06T01:43:33Z</time>
      </trkpt>
      <trkpt lat="44.00299" lon="3.64821">
        <ele>278</ele>
        <time>2010-03-06T01:43:38Z</time>
      </trkpt>
      <trkpt lat="44.003" lon="3.64811">
        <ele>278</ele>
        <time>2010-03-06T01:43:43Z</time>
      </trkpt>
      <trkpt lat="44.00302" lon="3.64805">
        <ele>279</ele>
        <time>2010-03-06T01:43:48Z</time>
      </trkpt>
      <trkpt lat="44.00305" lon="3.64797">
        <ele>279</ele>
        <time>2010-03-06T01:43:53Z</time>
      </trkpt>
      <trkpt lat="44.0031" lon="3.64789">
        <ele>280</ele>
        <time>2010-03-06T01:43:58Z</time>
      </trkpt>
      <trkpt lat="44.00314" lon="3.64782">
        <ele>280</ele>
        <time>2010-03-06T01:44:03Z</time>
      </trkpt>
      <trkpt lat="44.00318" lon="3.64776">
        <ele>281</ele>
        <time>2010-03-06T01:44:08Z</time>
      </trkpt>
      <trkpt lat="44.00321" lon="3.6477">
        <ele>281</ele>
        <time>2010-03-06T01:44:13Z</time>
      </trkpt>
      <trkpt lat="44.00323" lon="3.64761">
        <ele>282</ele>
        <time>2010-03-06T01:44:18Z</time>
      </trkpt>
      <trkpt lat="44.00327" lon="3.64752">
        <ele>283</ele>
        <time>2010-03-06T01:44:23Z</time>
      </trkpt>
      <trkpt lat="44.00331" lon="3.64744">
        <ele>286</ele>
        <time>2010-03-06T01:44:28Z</time>
      </trkpt>
      <trkpt lat="44.00335" lon="3.64735">
        <ele>294</ele>
        <time>2010-03-06T01:44:33Z</time>
      </trkpt>
      <trkpt lat="44.00338" lon="3.64725">
        <ele>298</ele>
        <time>2010-03-06T01:44:38Z</time>
      </trkpt>
      <trkpt lat="44.00334" lon="3.64719">
        <ele>299</ele>
        <time>2010-03-06T01:44:43Z</time>
      </trkpt>
      <trkpt lat="44.00328" lon="3.64718">
        <ele>291</ele>
        <time>2010-03-06T01:44:48Z</time>
      </trkpt>
      <trkpt lat="44.00325" lon="3.64713">
        <ele>292</ele>
        <time>2010-03-06T01:44:53Z</time>
      </trkpt>
      <trkpt lat="44.00322" lon="3.64712">
        <ele>292</ele>
        <time>2010-03-06T01:44:58Z</time>
      </trkpt>
      <trkpt lat="44.00319" lon="3.64712">
        <ele>292</ele>
        <time>2010-03-06T01:45:03Z</time>
      </trkpt>
      <trkpt lat="44.00314" lon="3.64716">
        <ele>292</ele>
        <time>2010-03-06T01:45:08Z</time>
      </trkpt>
      <trkpt lat="44.00311" lon="3.6472">
        <ele>291</ele>
        <time>2010-03-06T01:45:13Z</time>
      </trkpt>
      <trkpt lat="44.00309" lon="3.64724">
        <ele>291</ele>
        <time>2010-03-06T01:45:18Z</time>
      </trkpt>
      <trkpt lat="44.00304" lon="3.64728">
        <ele>291</ele>
        <time>2010-03-06T01:45:23Z</time>
      </trkpt>
      <trkpt lat="44.00297" lon="3.64734">
        <ele>290</ele>
        <time>2010-03-06T01:45:28Z</time>
      </trkpt>
      <trkpt lat="44.00289" lon="3.64738">
        <ele>290</ele>
        <time>2010-03-06T01:45:33Z</time>
      </trkpt>
      <trkpt lat="44.00282" lon="3.64742">
        <ele>289</ele>
        <time>2010-03-06T01:45:38Z</time>
      </trkpt>
      <trkpt lat="44.00278" lon="3.64743">
        <ele>289</ele>
        <time>2010-03-06T01:45:43Z</time>
      </trkpt>
      <trkpt lat="44.00272" lon="3.64745">
        <ele>288</ele>
        <time>2010-03-06T01:45:48Z</time>
      </trkpt>
      <trkpt lat="44.00265" lon="3.64747">
        <ele>287</ele>
        <time>2010-03-06T01:45:53Z</time>
      </trkpt>
      <trkpt lat="44.0026" lon="3.64749">
        <ele>286</ele>
        <time>2010-03-06T01:45:58Z</time>
      </trkpt>
      <trkpt lat="44.00256" lon="3.64748">
        <ele>285</ele>
        <time>2010-03-06T01:46:03Z</time>
      </trkpt>
      <trkpt lat="44.00251" lon="3.64747">
        <ele>284</ele>
        <time>2010-03-06T01:46:08Z</time>
      </trkpt>
      <trkpt lat="44.00242" lon="3.64749">
        <ele>286</ele>
        <time>2010-03-06T01:46:13Z</time>
      </trkpt>
      <trkpt lat="44.00238" lon="3.64748">
        <ele>288</ele>
        <time>2010-03-06T01:46:18Z</time>
      </trkpt>
      <trkpt lat="44.00233" lon="3.64748">
        <ele>289</ele>
        <time>2010-03-06T01:46:23Z</time>
      </trkpt>
      <trkpt lat="44.00228" lon="3.64747">
        <ele>290</ele>
        <time>2010-03-06T01:46:28Z</time>
      </trkpt>
      <trkpt lat="44.00222" lon="3.64745">
        <ele>291</ele>
        <time>2010-03-06T01:46:33Z</time>
      </trkpt>
      <trkpt lat="44.00215" lon="3.64743">
        <ele>292</ele>
        <time>2010-03-06T01:46:38Z</time>
      </trkpt>
      <trkpt lat="44.00209" lon="3.64742">
        <ele>292</ele>
        <time>2010-03-06T01:46:43Z</time>
      </trkpt>
      <trkpt lat="44.00203" lon="3.64743">
        <ele>292</ele>
        <time>2010-03-06T01:46:48Z</time>
      </trkpt>
      <trkpt lat="44.00198" lon="3.64743">
        <ele>292</ele>
        <time>2010-03-06T01:46:53Z</time>
      </trkpt>
      <trkpt lat="44.0019" lon="3.64744">
        <ele>293</ele>
        <time>2010-03-06T01:46:58Z</time>
      </trkpt>
      <trkpt lat="44.00184" lon="3.64742">
        <ele>293</ele>
        <time>2010-03-06T01:47:03Z</time>
      </trkpt>
      <trkpt lat="44.00178" lon="3.64738">
        <ele>293</ele>
        <time>2010-03-06T01:47:08Z</time>
      </trkpt>
      <trkpt lat="44.00173" lon="3.64733">
        <ele>293</ele>
        <time>2010-03-06T01:47:13Z</time>
      </trkpt>
      <trkpt lat="44.00168" lon="3.64725">
        <ele>294</ele>
        <time>2010-03-06T01:47:18Z</time>
      </trkpt>
      <trkpt lat="44.00166" lon="3.64718">
        <ele>294</ele>
        <time>2010-03-06T01:47:23Z</time>
      </trkpt>
      <trkpt lat="44.00163" lon="3.64711">
        <ele>295</ele>
        <time>2010-03-06T01:47:28Z</time>
      </trkpt>
      <trkpt lat="44.00159" lon="3.64705">
        <ele>295</ele>
        <time>2010-03-06T01:47:33Z</time>
      </trkpt>
      <trkpt lat="44.00159" lon="3.64698">
        <ele>296</ele>
        <time>2010-03-06T01:47:38Z</time>
      </trkpt>
      <trkpt lat="44.00166" lon="3.64691">
        <ele>297</ele>
        <time>2010-03-06T01:47:43Z</time>
      </trkpt>
      <trkpt lat="44.00173" lon="3.64689">
        <ele>297</ele>
        <time>2010-03-06T01:47:48Z</time>
      </trkpt>
      <trkpt lat="44.00176" lon="3.64689">
        <ele>297</ele>
        <time>2010-03-06T01:47:53Z</time>
      </trkpt>
      <trkpt lat="44.00183" lon="3.64686">
        <ele>297</ele>
        <time>2010-03-06T01:47:58Z</time>
      </trkpt>
      <trkpt lat="44.00189" lon="3.64682">
        <ele>297</ele>
        <time>2010-03-06T01:48:03Z</time>
      </trkpt>
      <trkpt lat="44.00197" lon="3.64677">
        <ele>297</ele>
        <time>2010-03-06T01:48:08Z</time>
      </trkpt>
      <trkpt lat="44.00202" lon="3.64671">
        <ele>298</ele>
        <time>2010-03-06T01:48:13Z</time>
      </trkpt>
      <trkpt lat="44.00207" lon="3.64666">
        <ele>304</ele>
        <time>2010-03-06T01:48:18Z</time>
      </trkpt>
      <trkpt lat="44.00211" lon="3.6466">
        <ele>304</ele>
        <time>2010-03-06T01:48:23Z</time>
      </trkpt>
      <trkpt lat="44.00214" lon="3.64651">
        <ele>305</ele>
        <time>2010-03-06T01:48:28Z</time>
      </trkpt>
      <trkpt lat="44.00219" lon="3.64639">
        <ele>305</ele>
        <time>2010-03-06T01:48:33Z</time>
      </trkpt>
      <trkpt lat="44.00225" lon="3.64632">
        <ele>306</ele>
        <time>2010-03-06T01:48:38Z</time>
      </trkpt>
      <trkpt lat="44.00233" lon="3.64631">
        <ele>306</ele>
        <time>2010-03-06T01:48:43Z</time>
      </trkpt>
      <trkpt lat="44.00237" lon="3.64633">
        <ele>306</ele>
        <time>2010-03-06T01:48:48Z</time>
      </trkpt>
      <trkpt lat="44.00246" lon="3.64637">
        <ele>306</ele>
        <time>2010-03-06T01:48:53Z</time>
      </trkpt>
      <trkpt lat="44.00253" lon="3.6464">
        <ele>308</ele>
        <time>2010-03-06T01:48:58Z</time>
      </trkpt>
      <trkpt lat="44.00261" lon="3.64641">
        <ele>308</ele>
        <time>2010-03-06T01:49:03Z</time>
      </trkpt>
      <trkpt lat="44.00267" lon="3.6464">
        <ele>308</ele>
        <time>2010-03-06T01:49:08Z</time>
      </trkpt>
      <trkpt lat="44.00273" lon="3.64638">
        <ele>309</ele>
        <time>2010-03-06T01:49:13Z</time>
      </trkpt>
      <trkpt lat="44.0028" lon="3.64635">
        <ele>309</ele>
        <time>2010-03-06T01:49:18Z</time>
      </trkpt>
      <trkpt lat="44.00286" lon="3.64632">
        <ele>309</ele>
        <time>2010-03-06T01:49:23Z</time>
      </trkpt>
      <trkpt lat="44.00294" lon="3.64628">
        <ele>310</ele>
        <time>2010-03-06T01:49:28Z</time>
      </trkpt>
      <trkpt lat="44.00299" lon="3.64626">
        <ele>310</ele>
        <time>2010-03-06T01:49:33Z</time>
      </trkpt>
      <trkpt lat="44.00304" lon="3.6462">
        <ele>311</ele>
        <time>2010-03-06T01:49:38Z</time>
      </trkpt>
      <trkpt lat="44.00301" lon="3.64615">
        <ele>311</ele>
        <time>2010-03-06T01:49:43Z</time>
      </trkpt>
      <trkpt lat="44.00298" lon="3.64614">
        <ele>311</ele>
        <time>2010-03-06T01:49:48Z</time>
      </trkpt>
      <trkpt lat="44.00296" lon="3.64615">
        <ele>311</ele>
        <time>2010-03-06T01:49:53Z</time>
      </trkpt>
      <trkpt lat="44.00293" lon="3.64615">
        <ele>311</ele>
        <time>2010-03-06T01:49:58Z</time>
      </trkpt>
      <trkpt lat="44.00289" lon="3.6461">
        <ele>311</ele>
        <time>2010-03-06T01:50:03Z</time>
      </trkpt>
      <trkpt lat="44.00285" lon="3.64606">
        <ele>312</ele>
        <time>2010-03-06T01:50:08Z</time>
      </trkpt>
      <trkpt lat="44.00278" lon="3.64602">
        <ele>312</ele>
        <time>2010-03-06T01:50:13Z</time>
      </trkpt>
      <trkpt lat="44.00273" lon="3.64599">
        <ele>312</ele>
        <time>2010-03-06T01:50:18Z</time>
      </trkpt>
      <trkpt lat="44.00264" lon="3.64591">
        <ele>313</ele>
        <time>2010-03-06T01:50:23Z</time>
      </trkpt>
      <trkpt lat="44.00261" lon="3.64584">
        <ele>314</ele>
        <time>2010-03-06T01:50:28Z</time>
      </trkpt>
      <trkpt lat="44.0026" lon="3.64577">
        <ele>317</ele>
        <time>2010-03-06T01:50:33Z</time>
      </trkpt>
      <trkpt lat="44.00263" lon="3.64571">
        <ele>318</ele>
        <time>2010-03-06T01:50:38Z</time>
      </trkpt>
      <trkpt lat="44.00268" lon="3.64569">
        <ele>318</ele>
        <time>2010-03-06T01:50:43Z</time>
      </trkpt>
      <trkpt lat="44.00275" lon="3.6457">
        <ele>318</ele>
        <time>2010-03-06T01:50:48Z</time>
      </trkpt>
      <trkpt lat="44.0028" lon="3.64571">
        <ele>319</ele>
        <time>2010-03-06T01:50:53Z</time>
      </trkpt>
      <trkpt lat="44.00286" lon="3.64572">
        <ele>319</ele>
        <time>2010-03-06T01:50:58Z</time>
      </trkpt>
      <trkpt lat="44.00289" lon="3.64571">
        <ele>319</ele>
        <time>2010-03-06T01:51:03Z</time>
      </trkpt>
      <trkpt lat="44.00294" lon="3.64569">
        <ele>320</ele>
        <time>2010-03-06T01:51:08Z</time>
      </trkpt>
      <trkpt lat="44.00302" lon="3.6457">
        <ele>320</ele>
        <time>2010-03-06T01:51:13Z</time>
      </trkpt>
      <trkpt lat="44.00309" lon="3.64569">
        <ele>320</ele>
        <time>2010-03-06T01:51:18Z</time>
      </trkpt>
      <trkpt lat="44.00319" lon="3.6457">
        <ele>320</ele>
        <time>2010-03-06T01:51:23Z</time>
      </trkpt>
      <trkpt lat="44.00329" lon="3.64571">
        <ele>320</ele>
        <time>2010-03-06T01:51:28Z</time>
      </trkpt>
      <trkpt lat="44.00342" lon="3.6457">
        <ele>327</ele>
        <time>2010-03-06T01:51:33Z</time>
      </trkpt>
      <trkpt lat="44.00354" lon="3.64566">
        <ele>330</ele>
        <time>2010-03-06T01:51:38Z</time>
      </trkpt>
      <trkpt lat="44.00365" lon="3.64561">
        <ele>333</ele>
        <time>2010-03-06T01:51:43Z</time>
      </trkpt>
      <trkpt lat="44.00374" lon="3.64557">
        <ele>334</ele>
        <time>2010-03-06T01:51:48Z</time>
      </trkpt>
      <trkpt lat="44.00384" lon="3.6455">
        <ele>336</ele>
        <time>2010-03-06T01:51:53Z</time>
      </trkpt>
      <trkpt lat="44.00396" lon="3.64548">
        <ele>337</ele>
        <time>2010-03-06T01:51:58Z</time>
      </trkpt>
      <trkpt lat="44.00401" lon="3.64546">
        <ele>338</ele>
        <time>2010-03-06T01:52:03Z</time>
      </trkpt>
      <trkpt lat="44.00406" lon="3.64542">
        <ele>338</ele>
        <time>2010-03-06T01:52:08Z</time>
      </trkpt>
      <trkpt lat="44.0041" lon="3.64542">
        <ele>339</ele>
        <time>2010-03-06T01:52:13Z</time>
      </trkpt>
      <trkpt lat="44.00414" lon="3.64543">
        <ele>339</ele>
        <time>2010-03-06T01:52:18Z</time>
      </trkpt>
      <trkpt lat="44.00418" lon="3.64549">
        <ele>353</ele>
        <time>2010-03-06T01:52:23Z</time>
      </trkpt>
      <trkpt lat="44.00419" lon="3.64558">
        <ele>351</ele>
        <time>2010-03-06T01:52:28Z</time>
      </trkpt>
      <trkpt lat="44.0042" lon="3.64566">
        <ele>348</ele>
        <time>2010-03-06T01:52:33Z</time>
      </trkpt>
      <trkpt lat="44.0042" lon="3.64577">
        <ele>343</ele>
        <time>2010-03-06T01:52:38Z</time>
      </trkpt>
      <trkpt lat="44.00422" lon="3.64589">
        <ele>340</ele>
        <time>2010-03-06T01:52:43Z</time>
      </trkpt>
      <trkpt lat="44.00424" lon="3.64597">
        <ele>342</ele>
        <time>2010-03-06T01:52:48Z</time>
      </trkpt>
      <trkpt lat="44.00426" lon="3.64605">
        <ele>343</ele>
        <time>2010-03-06T01:52:53Z</time>
      </trkpt>
      <trkpt lat="44.00428" lon="3.64611">
        <ele>344</ele>
        <time>2010-03-06T01:52:58Z</time>
      </trkpt>
      <trkpt lat="44.00429" lon="3.64621">
        <ele>344</ele>
        <time>2010-03-06T01:53:03Z</time>
      </trkpt>
      <trkpt lat="44.00434" lon="3.64627">
        <ele>344</ele>
        <time>2010-03-06T01:53:08Z</time>
      </trkpt>
      <trkpt lat="44.00436" lon="3.64638">
        <ele>343</ele>
        <time>2010-03-06T01:53:13Z</time>
      </trkpt>
      <trkpt lat="44.00438" lon="3.6465">
        <ele>341</ele>
        <time>2010-03-06T01:53:18Z</time>
      </trkpt>
      <trkpt lat="44.00445" lon="3.64663">
        <ele>342</ele>
        <time>2010-03-06T01:53:23Z</time>
      </trkpt>
      <trkpt lat="44.00454" lon="3.64676">
        <ele>339</ele>
        <time>2010-03-06T01:53:28Z</time>
      </trkpt>
      <trkpt lat="44.00461" lon="3.64686">
        <ele>341</ele>
        <time>2010-03-06T01:53:33Z</time>
      </trkpt>
      <trkpt lat="44.00471" lon="3.64694">
        <ele>343</ele>
        <time>2010-03-06T01:53:38Z</time>
      </trkpt>
      <trkpt lat="44.00476" lon="3.64702">
        <ele>344</ele>
        <time>2010-03-06T01:53:43Z</time>
      </trkpt>
      <trkpt lat="44.0048" lon="3.64719">
        <ele>344</ele>
        <time>2010-03-06T01:53:48Z</time>
      </trkpt>
      <trkpt lat="44.00479" lon="3.64729">
        <ele>344</ele>
        <time>2010-03-06T01:53:53Z</time>
      </trkpt>
      <trkpt lat="44.00479" lon="3.64738">
        <ele>345</ele>
        <time>2010-03-06T01:53:58Z</time>
      </trkpt>
      <trkpt lat="44.00478" lon="3.64745">
        <ele>344</ele>
        <time>2010-03-06T01:54:03Z</time>
      </trkpt>
      <trkpt lat="44.00476" lon="3.64754">
        <ele>342</ele>
        <time>2010-03-06T01:54:08Z</time>
      </trkpt>
      <trkpt lat="44.00473" lon="3.64764">
        <ele>340</ele>
        <time>2010-03-06T01:54:13Z</time>
      </trkpt>
      <trkpt lat="44.00472" lon="3.64772">
        <ele>340</ele>
        <time>2010-03-06T01:54:18Z</time>
      </trkpt>
      <trkpt lat="44.0047" lon="3.6478">
        <ele>339</ele>
        <time>2010-03-06T01:54:23Z</time>
      </trkpt>
      <trkpt lat="44.00471" lon="3.64786">
        <ele>339</ele>
        <time>2010-03-06T01:54:28Z</time>
      </trkpt>
      <trkpt lat="44.0047" lon="3.64794">
        <ele>339</ele>
        <time>2010-03-06T01:54:33Z</time>
      </trkpt>
      <trkpt lat="44.0047" lon="3.64805">
        <ele>339</ele>
        <time>2010-03-06T01:54:38Z</time>
      </trkpt>
      <trkpt lat="44.0047" lon="3.64813">
        <ele>339</ele>
        <time>2010-03-06T01:54:43Z</time>
      </trkpt>
      <trkpt lat="44.00471" lon="3.64822">
        <ele>340</ele>
        <time>2010-03-06T01:54:48Z</time>
      </trkpt>
      <trkpt lat="44.00473" lon="3.6483">
        <ele>341</ele>
        <time>2010-03-06T01:54:53Z</time>
      </trkpt>
      <trkpt lat="44.00476" lon="3.64841">
        <ele>343</ele>
        <time>2010-03-06T01:54:58Z</time>
      </trkpt>
      <trkpt lat="44.00479" lon="3.64849">
        <ele>343</ele>
        <time>2010-03-06T01:55:03Z</time>
      </trkpt>
      <trkpt lat="44.00483" lon="3.64858">
        <ele>343</ele>
        <time>2010-03-06T01:55:08Z</time>
      </trkpt>
      <trkpt lat="44.00485" lon="3.64864">
        <ele>343</ele>
        <time>2010-03-06T01:55:13Z</time>
      </trkpt>
      <trkpt lat="44.00489" lon="3.64873">
        <ele>343</ele>
        <time>2010-03-06T01:55:18Z</time>
      </trkpt>
      <trkpt lat="44.0049" lon="3.64885">
        <ele>344</ele>
        <time>2010-03-06T01:55:23Z</time>
      </trkpt>
      <trkpt lat="44.00489" lon="3.64894">
        <ele>345</ele>
        <time>2010-03-06T01:55:28Z</time>
      </trkpt>
      <trkpt lat="44.00487" lon="3.64903">
        <ele>346</ele>
        <time>2010-03-06T01:55:33Z</time>
      </trkpt>
      <trkpt lat="44.00485" lon="3.6491">
        <ele>347</ele>
        <time>2010-03-06T01:55:38Z</time>
      </trkpt>
      <trkpt lat="44.00483" lon="3.64922">
        <ele>345</ele>
        <time>2010-03-06T01:55:43Z</time>
      </trkpt>
      <trkpt lat="44.00482" lon="3.64931">
        <ele>343</ele>
        <time>2010-03-06T01:55:48Z</time>
      </trkpt>
      <trkpt lat="44.00482" lon="3.64942">
        <ele>341</ele>
        <time>2010-03-06T01:55:53Z</time>
      </trkpt>
      <trkpt lat="44.00481" lon="3.6495">
        <ele>340</ele>
        <time>2010-03-06T01:55:58Z</time>
      </trkpt>
      <trkpt lat="44.00483" lon="3.64961">
        <ele>339</ele>
        <time>2010-03-06T01:56:03Z</time>
      </trkpt>
      <trkpt lat="44.00488" lon="3.64963">
        <ele>340</ele>
        <time>2010-03-06T01:56:08Z</time>
      </trkpt>
      <trkpt lat="44.00491" lon="3.64956">
        <ele>341</ele>
        <time>2010-03-06T01:56:13Z</time>
      </trkpt>
      <trkpt lat="44.00494" lon="3.6495">
        <ele>342</ele>
        <time>2010-03-06T01:56:18Z</time>
      </trkpt>
      <trkpt lat="44.00496" lon="3.64943">
        <ele>343</ele>
        <time>2010-03-06T01:56:23Z</time>
      </trkpt>
      <trkpt lat="44.00498" lon="3.64935">
        <ele>346</ele>
        <time>2010-03-06T01:56:28Z</time>
      </trkpt>
      <trkpt lat="44.00502" lon="3.64926">
        <ele>359</ele>
        <time>2010-03-06T01:56:33Z</time>
      </trkpt>
      <trkpt lat="44.00504" lon="3.64918">
        <ele>357</ele>
        <time>2010-03-06T01:56:38Z</time>
      </trkpt>
      <trkpt lat="44.00506" lon="3.64911">
        <ele>360</ele>
        <time>2010-03-06T01:56:43Z</time>
      </trkpt>
      <trkpt lat="44.00508" lon="3.649">
        <ele>363</ele>
        <time>2010-03-06T01:56:48Z</time>
      </trkpt>
      <trkpt lat="44.00511" lon="3.64892">
        <ele>364</ele>
        <time>2010-03-06T01:56:53Z</time>
      </trkpt>
      <trkpt lat="44.00512" lon="3.64882">
        <ele>365</ele>
        <time>2010-03-06T01:56:58Z</time>
      </trkpt>
      <trkpt lat="44.00511" lon="3.64874">
        <ele>365</ele>
        <time>2010-03-06T01:57:03Z</time>
      </trkpt>
      <trkpt lat="44.00512" lon="3.64868">
        <ele>365</ele>
        <time>2010-03-06T01:57:08Z</time>
      </trkpt>
      <trkpt lat="44.00514" lon="3.6486">
        <ele>364</ele>
        <time>2010-03-06T01:57:13Z</time>
      </trkpt>
      <trkpt lat="44.00516" lon="3.6485">
        <ele>364</ele>
        <time>2010-03-06T01:57:18Z</time>
      </trkpt>
      <trkpt lat="44.00517" lon="3.64843">
        <ele>363</ele>
        <time>2010-03-06T01:57:23Z</time>
      </trkpt>
      <trkpt lat="44.00518" lon="3.64834">
        <ele>363</ele>
        <time>2010-03-06T01:57:28Z</time>
      </trkpt>
      <trkpt lat="44.00519" lon="3.64828">
        <ele>363</ele>
        <time>2010-03-06T01:57:33Z</time>
      </trkpt>
      <trkpt lat="44.0052" lon="3.64816">
        <ele>365</ele>
        <time>2010-03-06T01:57:38Z</time>
      </trkpt>
      <trkpt lat="44.0052" lon="3.64806">
        <ele>366</ele>
        <time>2010-03-06T01:57:43Z</time>
      </trkpt>
      <trkpt lat="44.0052" lon="3.64795">
        <ele>366</ele>
        <time>2010-03-06T01:57:48Z</time>
      </trkpt>
      <trkpt lat="44.00521" lon="3.64788">
        <ele>366</ele>
        <time>2010-03-06T01:57:53Z</time>
      </trkpt>
      <trkpt lat="44.00524" lon="3.6478">
        <ele>366</ele>
        <time>2010-03-06T01:57:58Z</time>
      </trkpt>
      <trkpt lat="44.00528" lon="3.6477">
        <ele>367</ele>
        <time>2010-03-06T01:58:03Z</time>
      </trkpt>
      <trkpt lat="44.00531" lon="3.64762">
        <ele>367</ele>
        <time>2010-03-06T01:58:08Z</time>
      </trkpt>
      <trkpt lat="44.00535" lon="3.64757">
        <ele>368</ele>
        <time>2010-03-06T01:58:13Z</time>
      </trkpt>
      <trkpt lat="44.00537" lon="3.64762">
        <ele>369</ele>
        <time>2010-03-06T01:58:18Z</time>
      </trkpt>
      <trkpt lat="44.00536" lon="3.64772">
        <ele>369</ele>
        <time>2010-03-06T01:58:23Z</time>
      </trkpt>
      <trkpt lat="44.00537" lon="3.6478">
        <ele>369</ele>
        <time>2010-03-06T01:58:28Z</time>
      </trkpt>
      <trkpt lat="44.00537" lon="3.64788">
        <ele>369</ele>
        <time>2010-03-06T01:58:33Z</time>
      </trkpt>
      <trkpt lat="44.00537" lon="3.64795">
        <ele>369</ele>
        <time>2010-03-06T01:58:38Z</time>
      </trkpt>
      <trkpt lat="44.00536" lon="3.64805">
        <ele>369</ele>
        <time>2010-03-06T01:58:43Z</time>
      </trkpt>
      <trkpt lat="44.00536" lon="3.64817">
        <ele>368</ele>
        <time>2010-03-06T01:58:48Z</time>
      </trkpt>
      <trkpt lat="44.00536" lon="3.64831">
        <ele>368</ele>
        <time>2010-03-06T01:58:53Z</time>
      </trkpt>
      <trkpt lat="44.00537" lon="3.64844">
        <ele>368</ele>
        <time>2010-03-06T01:58:58Z</time>
      </trkpt>
      <trkpt lat="44.0054" lon="3.64854">
        <ele>369</ele>
        <time>2010-03-06T01:59:03Z</time>
      </trkpt>
      <trkpt lat="44.0054" lon="3.64871">
        <ele>369</ele>
        <time>2010-03-06T01:59:08Z</time>
      </trkpt>
      <trkpt lat="44.00539" lon="3.64887">
        <ele>369</ele>
        <time>2010-03-06T01:59:13Z</time>
      </trkpt>
      <trkpt lat="44.00541" lon="3.649">
        <ele>369</ele>
        <time>2010-03-06T01:59:18Z</time>
      </trkpt>
      <trkpt lat="44.00542" lon="3.64911">
        <ele>369</ele>
        <time>2010-03-06T01:59:23Z</time>
      </trkpt>
      <trkpt lat="44.00542" lon="3.64927">
        <ele>366</ele>
        <time>2010-03-06T01:59:28Z</time>
      </trkpt>
      <trkpt lat="44.00542" lon="3.64941">
        <ele>366</ele>
        <time>2010-03-06T01:59:33Z</time>
      </trkpt>
      <trkpt lat="44.00544" lon="3.64955">
        <ele>366</ele>
        <time>2010-03-06T01:59:38Z</time>
      </trkpt>
      <trkpt lat="44.00547" lon="3.64969">
        <ele>366</ele>
        <time>2010-03-06T01:59:43Z</time>
      </trkpt>
      <trkpt lat="44.00548" lon="3.64979">
        <ele>366</ele>
        <time>2010-03-06T01:59:48Z</time>
      </trkpt>
      <trkpt lat="44.00549" lon="3.64989">
        <ele>366</ele>
        <time>2010-03-06T01:59:53Z</time>
      </trkpt>
      <trkpt lat="44.00551" lon="3.65">
        <ele>367</ele>
        <time>2010-03-06T01:59:58Z</time>
      </trkpt>
      <trkpt lat="44.00554" lon="3.65007">
        <ele>362</ele>
        <time>2010-03-06T02:00:03Z</time>
      </trkpt>
      <trkpt lat="44.00557" lon="3.6501">
        <ele>363</ele>
        <time>2010-03-06T02:00:08Z</time>
      </trkpt>
      <trkpt lat="44.00561" lon="3.65007">
        <ele>365</ele>
        <time>2010-03-06T02:00:13Z</time>
      </trkpt>
      <trkpt lat="44.00561" lon="3.64996">
        <ele>369</ele>
        <time>2010-03-06T02:00:18Z</time>
      </trkpt>
      <trkpt lat="44.00561" lon="3.64989">
        <ele>369</ele>
        <time>2010-03-06T02:00:23Z</time>
      </trkpt>
      <trkpt lat="44.00562" lon="3.64982">
        <ele>369</ele>
        <time>2010-03-06T02:00:28Z</time>
      </trkpt>
      <trkpt lat="44.00563" lon="3.64976">
        <ele>369</ele>
        <time>2010-03-06T02:00:33Z</time>
      </trkpt>
      <trkpt lat="44.00564" lon="3.64968">
        <ele>369</ele>
        <time>2010-03-06T02:00:38Z</time>
      </trkpt>
      <trkpt lat="44.00566" lon="3.64959">
        <ele>369</ele>
        <time>2010-03-06T02:00:43Z</time>
      </trkpt>
      <trkpt lat="44.00568" lon="3.6495">
        <ele>370</ele>
        <time>2010-03-06T02:00:48Z</time>
      </trkpt>
      <trkpt lat="44.00569" lon="3.64942">
        <ele>371</ele>
        <time>2010-03-06T02:00:53Z</time>
      </trkpt>
      <trkpt lat="44.0057" lon="3.64935">
        <ele>372</ele>
        <time>2010-03-06T02:00:58Z</time>
      </trkpt>
      <trkpt lat="44.00572" lon="3.64926">
        <ele>375</ele>
        <time>2010-03-06T02:01:03Z</time>
      </trkpt>
      <trkpt lat="44.00575" lon="3.64917">
        <ele>378</ele>
        <time>2010-03-06T02:01:08Z</time>
      </trkpt>
      <trkpt lat="44.00576" lon="3.64908">
        <ele>378</ele>
        <time>2010-03-06T02:01:13Z</time>
      </trkpt>
      <trkpt lat="44.00578" lon="3.64902">
        <ele>376</ele>
        <time>2010-03-06T02:01:18Z</time>
      </trkpt>
      <trkpt lat="44.00579" lon="3.64893">
        <ele>375</ele>
        <time>2010-03-06T02:01:23Z</time>
      </trkpt>
      <trkpt lat="44.00582" lon="3.64885">
        <ele>375</ele>
        <time>2010-03-06T02:01:28Z</time>
      </trkpt>
      <trkpt lat="44.00583" lon="3.64877">
        <ele>374</ele>
        <time>2010-03-06T02:01:33Z</time>
      </trkpt>
      <trkpt lat="44.00584" lon="3.6487">
        <ele>377</ele>
        <time>2010-03-06T02:01:38Z</time>
      </trkpt>
      <trkpt lat="44.00585" lon="3.64864">
        <ele>377</ele>
        <time>2010-03-06T02:01:43Z</time>
      </trkpt>
      <trkpt lat="44.00587" lon="3.64855">
        <ele>378</ele>
        <time>2010-03-06T02:01:48Z</time>
      </trkpt>
      <trkpt lat="44.00589" lon="3.64847">
        <ele>379</ele>
        <time>2010-03-06T02:01:53Z</time>
      </trkpt>
      <trkpt lat="44.00592" lon="3.64839">
        <ele>380</ele>
        <time>2010-03-06T02:01:58Z</time>
      </trkpt>
      <trkpt lat="44.00594" lon="3.64833">
        <ele>382</ele>
        <time>2010-03-06T02:02:03Z</time>
      </trkpt>
      <trkpt lat="44.00596" lon="3.64824">
        <ele>381</ele>
        <time>2010-03-06T02:02:08Z</time>
      </trkpt>
      <trkpt lat="44.00599" lon="3.64814">
        <ele>381</ele>
        <time>2010-03-06T02:02:13Z</time>
      </trkpt>
      <trkpt lat="44.00601" lon="3.64806">
        <ele>381</ele>
        <time>2010-03-06T02:02:18Z</time>
      </trkpt>
      <trkpt lat="44.00602" lon="3.64797">
        <ele>380</ele>
        <time>2010-03-06T02:02:23Z</time>
      </trkpt>
      <trkpt lat="44.00604" lon="3.6479">
        <ele>380</ele>
        <time>2010-03-06T02:02:28Z</time>
      </trkpt>
      <trkpt lat="44.00606" lon="3.64781">
        <ele>381</ele>
        <time>2010-03-06T02:02:33Z</time>
      </trkpt>
      <trkpt lat="44.00608" lon="3.64773">
        <ele>381</ele>
        <time>2010-03-06T02:02:38Z</time>
      </trkpt>
      <trkpt lat="44.0061" lon="3.64767">
        <ele>381</ele>
        <time>2010-03-06T02:02:43Z</time>
      </trkpt>
      <trkpt lat="44.00612" lon="3.64762">
        <ele>381</ele>
        <time>2010-03-06T02:02:48Z</time>
      </trkpt>
      <trkpt lat="44.00613" lon="3.64755">
        <ele>381</ele>
        <time>2010-03-06T02:02:53Z</time>
      </trkpt>
      <trkpt lat="44.00616" lon="3.64746">
        <ele>386</ele>
        <time>2010-03-06T02:02:58Z</time>
      </trkpt>
      <trkpt lat="44.00616" lon="3.64739">
        <ele>386</ele>
        <time>2010-03-06T02:03:03Z</time>
      </trkpt>
      <trkpt lat="44.00618" lon="3.64731">
        <ele>387</ele>
        <time>2010-03-06T02:03:08Z</time>
      </trkpt>
      <trkpt lat="44.0062" lon="3.64727">
        <ele>387</ele>
        <time>2010-03-06T02:03:13Z</time>
      </trkpt>
      <trkpt lat="44.00624" lon="3.64731">
        <ele>386</ele>
        <time>2010-03-06T02:03:18Z</time>
      </trkpt>
      <trkpt lat="44.00628" lon="3.64738">
        <ele>386</ele>
        <time>2010-03-06T02:03:23Z</time>
      </trkpt>
      <trkpt lat="44.00627" lon="3.64748">
        <ele>385</ele>
        <time>2010-03-06T02:03:28Z</time>
      </trkpt>
      <trkpt lat="44.00626" lon="3.6476">
        <ele>380</ele>
        <time>2010-03-06T02:03:33Z</time>
      </trkpt>
      <trkpt lat="44.00626" lon="3.6477">
        <ele>380</ele>
        <time>2010-03-06T02:03:38Z</time>
      </trkpt>
      <trkpt lat="44.00623" lon="3.64785">
        <ele>379</ele>
        <time>2010-03-06T02:03:43Z</time>
      </trkpt>
      <trkpt lat="44.00619" lon="3.64793">
        <ele>379</ele>
        <time>2010-03-06T02:03:48Z</time>
      </trkpt>
      <trkpt lat="44.00617" lon="3.64805">
        <ele>379</ele>
        <time>2010-03-06T02:03:53Z</time>
      </trkpt>
      <trkpt lat="44.00614" lon="3.64816">
        <ele>379</ele>
        <time>2010-03-06T02:03:58Z</time>
      </trkpt>
      <trkpt lat="44.00614" lon="3.64826">
        <ele>380</ele>
        <time>2010-03-06T02:04:03Z</time>
      </trkpt>
      <trkpt lat="44.00612" lon="3.64842">
        <ele>376</ele>
        <time>2010-03-06T02:04:08Z</time>
      </trkpt>
      <trkpt lat="44.0061" lon="3.64852">
        <ele>376</ele>
        <time>2010-03-06T02:04:13Z</time>
      </trkpt>
      <trkpt lat="44.0061" lon="3.64863">
        <ele>375</ele>
        <time>2010-03-06T02:04:18Z</time>
      </trkpt>
      <trkpt lat="44.0061" lon="3.64872">
        <ele>375</ele>
        <time>2010-03-06T02:04:23Z</time>
      </trkpt>
      <trkpt lat="44.00607" lon="3.64884">
        <ele>375</ele>
        <time>2010-03-06T02:04:28Z</time>
      </trkpt>
      <trkpt lat="44.00606" lon="3.649">
        <ele>375</ele>
        <time>2010-03-06T02:04:33Z</time>
      </trkpt>
      <trkpt lat="44.00607" lon="3.64912">
        <ele>375</ele>
        <time>2010-03-06T02:04:38Z</time>
      </trkpt>
      <trkpt lat="44.00604" lon="3.64922">
        <ele>373</ele>
        <time>2010-03-06T02:04:43Z</time>
      </trkpt>
      <trkpt lat="44.00603" lon="3.64937">
        <ele>372</ele>
        <time>2010-03-06T02:04:48Z</time>
      </trkpt>
      <trkpt lat="44.00601" lon="3.64951">
        <ele>371</ele>
        <time>2010-03-06T02:04:53Z</time>
      </trkpt>
      <trkpt lat="44.00602" lon="3.6496">
        <ele>370</ele>
        <time>2010-03-06T02:04:58Z</time>
      </trkpt>
      <trkpt lat="44.006" lon="3.64969">
        <ele>370</ele>
        <time>2010-03-06T02:05:03Z</time>
      </trkpt>
      <trkpt lat="44.00599" lon="3.64977">
        <ele>371</ele>
        <time>2010-03-06T02:05:08Z</time>
      </trkpt>
      <trkpt lat="44.00595" lon="3.64992">
        <ele>373</ele>
        <time>2010-03-06T02:05:13Z</time>
      </trkpt>
      <trkpt lat="44.00597" lon="3.65005">
        <ele>370</ele>
        <time>2010-03-06T02:05:18Z</time>
      </trkpt>
      <trkpt lat="44.00595" lon="3.6502">
        <ele>367</ele>
        <time>2010-03-06T02:05:23Z</time>
      </trkpt>
      <trkpt lat="44.00593" lon="3.65033">
        <ele>365</ele>
        <time>2010-03-06T02:05:28Z</time>
      </trkpt>
      <trkpt lat="44.0059" lon="3.6505">
        <ele>364</ele>
        <time>2010-03-06T02:05:33Z</time>
      </trkpt>
      <trkpt lat="44.00585" lon="3.65066">
        <ele>365</ele>
        <time>2010-03-06T02:05:38Z</time>
      </trkpt>
      <trkpt lat="44.00583" lon="3.65071">
        <ele>365</ele>
        <time>2010-03-06T02:05:43Z</time>
      </trkpt>
      <trkpt lat="44.00582" lon="3.6507">
        <ele>365</ele>
        <time>2010-03-06T02:05:48Z</time>
      </trkpt>
      <trkpt lat="44.00583" lon="3.65071">
        <ele>365</ele>
        <time>2010-03-06T02:05:53Z</time>
      </trkpt>
      <trkpt lat="44.00581" lon="3.65085">
        <ele>367</ele>
        <time>2010-03-06T02:05:58Z</time>
      </trkpt>
      <trkpt lat="44.00578" lon="3.65099">
        <ele>359</ele>
        <time>2010-03-06T02:06:03Z</time>
      </trkpt>
      <trkpt lat="44.00575" lon="3.6511">
        <ele>356</ele>
        <time>2010-03-06T02:06:08Z</time>
      </trkpt>
      <trkpt lat="44.00573" lon="3.6512">
        <ele>353</ele>
        <time>2010-03-06T02:06:13Z</time>
      </trkpt>
      <trkpt lat="44.00568" lon="3.65129">
        <ele>352</ele>
        <time>2010-03-06T02:06:18Z</time>
      </trkpt>
      <trkpt lat="44.00567" lon="3.6514">
        <ele>351</ele>
        <time>2010-03-06T02:06:23Z</time>
      </trkpt>
      <trkpt lat="44.00565" lon="3.65154">
        <ele>350</ele>
        <time>2010-03-06T02:06:28Z</time>
      </trkpt>
      <trkpt lat="44.00562" lon="3.65169">
        <ele>345</ele>
        <time>2010-03-06T02:06:33Z</time>
      </trkpt>
      <trkpt lat="44.00559" lon="3.65182">
        <ele>344</ele>
        <time>2010-03-06T02:06:38Z</time>
      </trkpt>
      <trkpt lat="44.00557" lon="3.65188">
        <ele>344</ele>
        <time>2010-03-06T02:06:43Z</time>
      </trkpt>
      <trkpt lat="44.00554" lon="3.65204">
        <ele>342</ele>
        <time>2010-03-06T02:06:48Z</time>
      </trkpt>
      <trkpt lat="44.00553" lon="3.65219">
        <ele>342</ele>
        <time>2010-03-06T02:06:53Z</time>
      </trkpt>
      <trkpt lat="44.00551" lon="3.65233">
        <ele>341</ele>
        <time>2010-03-06T02:06:58Z</time>
      </trkpt>
      <trkpt lat="44.00547" lon="3.65245">
        <ele>341</ele>
        <time>2010-03-06T02:07:03Z</time>
      </trkpt>
      <trkpt lat="44.00543" lon="3.6526">
        <ele>336</ele>
        <time>2010-03-06T02:07:08Z</time>
      </trkpt>
      <trkpt lat="44.00542" lon="3.65274">
        <ele>336</ele>
        <time>2010-03-06T02:07:13Z</time>
      </trkpt>
      <trkpt lat="44.00542" lon="3.65279">
        <ele>336</ele>
        <time>2010-03-06T02:07:18Z</time>
      </trkpt>
      <trkpt lat="44.00541" lon="3.65278">
        <ele>336</ele>
        <time>2010-03-06T02:07:23Z</time>
      </trkpt>
      <trkpt lat="44.0054" lon="3.65276">
        <ele>336</ele>
        <time>2010-03-06T02:07:28Z</time>
      </trkpt>
      <trkpt lat="44.0054" lon="3.65276">
        <ele>336</ele>
        <time>2010-03-06T02:07:33Z</time>
      </trkpt>
      <trkpt lat="44.00543" lon="3.65279">
        <ele>336</ele>
        <time>2010-03-06T02:07:38Z</time>
      </trkpt>
      <trkpt lat="44.00549" lon="3.65277">
        <ele>336</ele>
        <time>2010-03-06T02:07:43Z</time>
      </trkpt>
      <trkpt lat="44.00552" lon="3.65268">
        <ele>336</ele>
        <time>2010-03-06T02:07:48Z</time>
      </trkpt>
      <trkpt lat="44.00558" lon="3.65262">
        <ele>336</ele>
        <time>2010-03-06T02:07:53Z</time>
      </trkpt>
      <trkpt lat="44.00563" lon="3.65252">
        <ele>337</ele>
        <time>2010-03-06T02:07:58Z</time>
      </trkpt>
      <trkpt lat="44.00565" lon="3.65245">
        <ele>340</ele>
        <time>2010-03-06T02:08:03Z</time>
      </trkpt>
      <trkpt lat="44.00568" lon="3.65238">
        <ele>341</ele>
        <time>2010-03-06T02:08:08Z</time>
      </trkpt>
      <trkpt lat="44.00573" lon="3.65229">
        <ele>341</ele>
        <time>2010-03-06T02:08:13Z</time>
      </trkpt>
      <trkpt lat="44.00574" lon="3.65225">
        <ele>341</ele>
        <time>2010-03-06T02:08:18Z</time>
      </trkpt>
      <trkpt lat="44.00571" lon="3.65222">
        <ele>342</ele>
        <time>2010-03-06T02:08:23Z</time>
      </trkpt>
      <trkpt lat="44.00573" lon="3.65221">
        <ele>342</ele>
        <time>2010-03-06T02:08:28Z</time>
      </trkpt>
      <trkpt lat="44.00576" lon="3.65219">
        <ele>342</ele>
        <time>2010-03-06T02:08:33Z</time>
      </trkpt>
      <trkpt lat="44.00582" lon="3.65207">
        <ele>343</ele>
        <time>2010-03-06T02:08:38Z</time>
      </trkpt>
      <trkpt lat="44.00586" lon="3.65199">
        <ele>334</ele>
        <time>2010-03-06T02:08:43Z</time>
      </trkpt>
      <trkpt lat="44.00593" lon="3.65191">
        <ele>335</ele>
        <time>2010-03-06T02:08:48Z</time>
      </trkpt>
      <trkpt lat="44.00598" lon="3.65184">
        <ele>336</ele>
        <time>2010-03-06T02:08:53Z</time>
      </trkpt>
      <trkpt lat="44.00604" lon="3.65176">
        <ele>335</ele>
        <time>2010-03-06T02:08:58Z</time>
      </trkpt>
      <trkpt lat="44.00612" lon="3.65167">
        <ele>333</ele>
        <time>2010-03-06T02:09:03Z</time>
      </trkpt>
      <trkpt lat="44.00616" lon="3.65156">
        <ele>343</ele>
        <time>2010-03-06T02:09:08Z</time>
      </trkpt>
      <trkpt lat="44.00626" lon="3.6515">
        <ele>341</ele>
        <time>2010-03-06T02:09:13Z</time>
      </trkpt>
      <trkpt lat="44.00633" lon="3.65142">
        <ele>340</ele>
        <time>2010-03-06T02:09:18Z</time>
      </trkpt>
      <trkpt lat="44.00645" lon="3.65134">
        <ele>338</ele>
        <time>2010-03-06T02:09:23Z</time>
      </trkpt>
      <trkpt lat="44.0065" lon="3.6512">
        <ele>341</ele>
        <time>2010-03-06T02:09:28Z</time>
      </trkpt>
      <trkpt lat="44.00653" lon="3.65112">
        <ele>342</ele>
        <time>2010-03-06T02:09:33Z</time>
      </trkpt>
      <trkpt lat="44.00663" lon="3.65104">
        <ele>342</ele>
        <time>2010-03-06T02:09:38Z</time>
      </trkpt>
      <trkpt lat="44.0067" lon="3.65099">
        <ele>329</ele>
        <time>2010-03-06T02:09:43Z</time>
      </trkpt>
      <trkpt lat="44.00682" lon="3.65091">
        <ele>328</ele>
        <time>2010-03-06T02:09:48Z</time>
      </trkpt>
      <trkpt lat="44.00689" lon="3.65086">
        <ele>325</ele>
        <time>2010-03-06T02:09:53Z</time>
      </trkpt>
      <trkpt lat="44.0069" lon="3.65085">
        <ele>325</ele>
        <time>2010-03-06T02:09:58Z</time>
      </trkpt>
      <trkpt lat="44.00695" lon="3.65086">
        <ele>322</ele>
        <time>2010-03-06T02:10:03Z</time>
      </trkpt>
      <trkpt lat="44.00702" lon="3.65084">
        <ele>320</ele>
        <time>2010-03-06T02:10:08Z</time>
      </trkpt>
      <trkpt lat="44.00707" lon="3.65082">
        <ele>328</ele>
        <time>2010-03-06T02:10:13Z</time>
      </trkpt>
      <trkpt lat="44.00707" lon="3.65085">
        <ele>318</ele>
        <time>2010-03-06T02:10:18Z</time>
      </trkpt>
      <trkpt lat="44.007" lon="3.65086">
        <ele>320</ele>
        <time>2010-03-06T02:10:23Z</time>
      </trkpt>
      <trkpt lat="44.00699" lon="3.65085">
        <ele>321</ele>
        <time>2010-03-06T02:10:28Z</time>
      </trkpt>
      <trkpt lat="44.00696" lon="3.65082">
        <ele>331</ele>
        <time>2010-03-06T02:10:33Z</time>
      </trkpt>
      <trkpt lat="44.00696" lon="3.65084">
        <ele>322</ele>
        <time>2010-03-06T02:10:38Z</time>
      </trkpt>
      <trkpt lat="44.00698" lon="3.65086">
        <ele>321</ele>
        <time>2010-03-06T02:10:43Z</time>
      </trkpt>
      <trkpt lat="44.007" lon="3.65092">
        <ele>320</ele>
        <time>2010-03-06T02:10:48Z</time>
      </trkpt>
      <trkpt lat="44.00701" lon="3.65102">
        <ele>318</ele>
        <time>2010-03-06T02:10:53Z</time>
      </trkpt>
      <trkpt lat="44.00701" lon="3.65115">
        <ele>316</ele>
        <time>2010-03-06T02:10:58Z</time>
      </trkpt>
      <trkpt lat="44.00709" lon="3.65112">
        <ele>315</ele>
        <time>2010-03-06T02:11:03Z</time>
      </trkpt>
      <trkpt lat="44.00716" lon="3.65112">
        <ele>314</ele>
        <time>2010-03-06T02:11:08Z</time>
      </trkpt>
      <trkpt lat="44.00717" lon="3.65113">
        <ele>313</ele>
        <time>2010-03-06T02:11:13Z</time>
      </trkpt>
      <trkpt lat="44.00727" lon="3.65115">
        <ele>312</ele>
        <time>2010-03-06T02:11:18Z</time>
      </trkpt>
      <trkpt lat="44.00735" lon="3.65114">
        <ele>311</ele>
        <time>2010-03-06T02:11:23Z</time>
      </trkpt>
      <trkpt lat="44.0074" lon="3.65115">
        <ele>310</ele>
        <time>2010-03-06T02:11:28Z</time>
      </trkpt>
      <trkpt lat="44.00748" lon="3.65117">
        <ele>309</ele>
        <time>2010-03-06T02:11:33Z</time>
      </trkpt>
      <trkpt lat="44.00755" lon="3.65117">
        <ele>289</ele>
        <time>2010-03-06T02:11:38Z</time>
      </trkpt>
      <trkpt lat="44.0076" lon="3.65116">
        <ele>289</ele>
        <time>2010-03-06T02:11:43Z</time>
      </trkpt>
      <trkpt lat="44.0076" lon="3.65118">
        <ele>288</ele>
        <time>2010-03-06T02:11:48Z</time>
      </trkpt>
      <trkpt lat="44.00757" lon="3.65118">
        <ele>289</ele>
        <time>2010-03-06T02:11:53Z</time>
      </trkpt>
      <trkpt lat="44.00758" lon="3.65118">
        <ele>289</ele>
        <time>2010-03-06T02:11:58Z</time>
      </trkpt>
      <trkpt lat="44.00772" lon="3.65119">
        <ele>286</ele>
        <time>2010-03-06T02:12:03Z</time>
      </trkpt>
      <trkpt lat="44.0078" lon="3.65124">
        <ele>284</ele>
        <time>2010-03-06T02:12:08Z</time>
      </trkpt>
      <trkpt lat="44.00786" lon="3.65125">
        <ele>283</ele>
        <time>2010-03-06T02:12:13Z</time>
      </trkpt>
      <trkpt lat="44.00789" lon="3.65126">
        <ele>282</ele>
        <time>2010-03-06T02:12:18Z</time>
      </trkpt>
      <trkpt lat="44.00794" lon="3.65127">
        <ele>281</ele>
        <time>2010-03-06T02:12:23Z</time>
      </trkpt>
      <trkpt lat="44.00805" lon="3.65128">
        <ele>279</ele>
        <time>2010-03-06T02:12:28Z</time>
      </trkpt>
      <trkpt lat="44.00806" lon="3.65137">
        <ele>278</ele>
        <time>2010-03-06T02:12:33Z</time>
      </trkpt>
      <trkpt lat="44.00797" lon="3.65148">
        <ele>279</ele>
        <time>2010-03-06T02:12:38Z</time>
      </trkpt>
      <trkpt lat="44.00794" lon="3.65151">
        <ele>279</ele>
        <time>2010-03-06T02:12:43Z</time>
      </trkpt>
      <trkpt lat="44.00794" lon="3.65152">
        <ele>279</ele>
        <time>2010-03-06T02:12:48Z</time>
      </trkpt>
      <trkpt lat="44.00794" lon="3.65155">
        <ele>279</ele>
        <time>2010-03-06T02:12:53Z</time>
      </trkpt>
      <trkpt lat="44.00787" lon="3.65165">
        <ele>280</ele>
        <time>2010-03-06T02:12:58Z</time>
      </trkpt>
      <trkpt lat="44.0078" lon="3.65176">
        <ele>272</ele>
        <time>2010-03-06T02:13:03Z</time>
      </trkpt>
      <trkpt lat="44.00774" lon="3.65185">
        <ele>272</ele>
        <time>2010-03-06T02:13:08Z</time>
      </trkpt>
      <trkpt lat="44.00766" lon="3.65194">
        <ele>272</ele>
        <time>2010-03-06T02:13:13Z</time>
      </trkpt>
      <trkpt lat="44.0077" lon="3.65206">
        <ele>269</ele>
        <time>2010-03-06T02:13:18Z</time>
      </trkpt>
      <trkpt lat="44.00766" lon="3.65225">
        <ele>266</ele>
        <time>2010-03-06T02:13:23Z</time>
      </trkpt>
      <trkpt lat="44.00762" lon="3.65238">
        <ele>265</ele>
        <time>2010-03-06T02:13:28Z</time>
      </trkpt>
      <trkpt lat="44.00765" lon="3.65248">
        <ele>265</ele>
        <time>2010-03-06T02:13:33Z</time>
      </trkpt>
      <trkpt lat="44.00773" lon="3.65259">
        <ele>253</ele>
        <time>2010-03-06T02:13:38Z</time>
      </trkpt>
      <trkpt lat="44.00777" lon="3.65265">
        <ele>251</ele>
        <time>2010-03-06T02:13:43Z</time>
      </trkpt>
      <trkpt lat="44.00787" lon="3.65264">
        <ele>250</ele>
        <time>2010-03-06T02:13:48Z</time>
      </trkpt>
      <trkpt lat="44.00796" lon="3.65265">
        <ele>248</ele>
        <time>2010-03-06T02:13:53Z</time>
      </trkpt>
      <trkpt lat="44.00806" lon="3.65267">
        <ele>247</ele>
        <time>2010-03-06T02:13:58Z</time>
      </trkpt>
      <trkpt lat="44.00803" lon="3.65269">
        <ele>247</ele>
        <time>2010-03-06T02:14:03Z</time>
      </trkpt>
      <trkpt lat="44.00801" lon="3.65266">
        <ele>247</ele>
        <time>2010-03-06T02:14:08Z</time>
      </trkpt>
      <trkpt lat="44.008" lon="3.65269">
        <ele>247</ele>
        <time>2010-03-06T02:14:13Z</time>
      </trkpt>
      <trkpt lat="44.00796" lon="3.65269">
        <ele>248</ele>
        <time>2010-03-06T02:14:18Z</time>
      </trkpt>
      <trkpt lat="44.00795" lon="3.65272">
        <ele>248</ele>
        <time>2010-03-06T02:14:23Z</time>
      </trkpt>
      <trkpt lat="44.00794" lon="3.65273">
        <ele>248</ele>
        <time>2010-03-06T02:14:28Z</time>
      </trkpt>
      <trkpt lat="44.00795" lon="3.65272">
        <ele>248</ele>
        <time>2010-03-06T02:14:33Z</time>
      </trkpt>
      <trkpt lat="44.00797" lon="3.65269">
        <ele>248</ele>
        <time>2010-03-06T02:14:38Z</time>
      </trkpt>
      <trkpt lat="44.00801" lon="3.65267">
        <ele>247</ele>
        <time>2010-03-06T02:14:43Z</time>
      </trkpt>
      <trkpt lat="44.00803" lon="3.65268">
        <ele>247</ele>
        <time>2010-03-06T02:14:48Z</time>
      </trkpt>
      <trkpt lat="44.00807" lon="3.6527">
        <ele>247</ele>
        <time>2010-03-06T02:14:53Z</time>
      </trkpt>
      <trkpt lat="44.00806" lon="3.65267">
        <ele>247</ele>
        <time>2010-03-06T02:14:58Z</time>
      </trkpt>
      <trkpt lat="44.00807" lon="3.65264">
        <ele>247</ele>
        <time>2010-03-06T02:15:03Z</time>
      </trkpt>
      <trkpt lat="44.00819" lon="3.65261">
        <ele>246</ele>
        <time>2010-03-06T02:15:08Z</time>
      </trkpt>
      <trkpt lat="44.00822" lon="3.65256">
        <ele>246</ele>
        <time>2010-03-06T02:15:13Z</time>
      </trkpt>
      <trkpt lat="44.00821" lon="3.65248">
        <ele>253</ele>
        <time>2010-03-06T02:15:18Z</time>
      </trkpt>
      <trkpt lat="44.00823" lon="3.65242">
        <ele>253</ele>
        <time>2010-03-06T02:15:23Z</time>
      </trkpt>
      <trkpt lat="44.00823" lon="3.65235">
        <ele>255</ele>
        <time>2010-03-06T02:15:28Z</time>
      </trkpt>
      <trkpt lat="44.00827" lon="3.6523">
        <ele>256</ele>
        <time>2010-03-06T02:15:33Z</time>
      </trkpt>
      <trkpt lat="44.00832" lon="3.65225">
        <ele>258</ele>
        <time>2010-03-06T02:15:38Z</time>
      </trkpt>
      <trkpt lat="44.00835" lon="3.6522">
        <ele>248</ele>
        <time>2010-03-06T02:15:43Z</time>
      </trkpt>
      <trkpt lat="44.00838" lon="3.65215">
        <ele>249</ele>
        <time>2010-03-06T02:15:48Z</time>
      </trkpt>
      <trkpt lat="44.00842" lon="3.65207">
        <ele>249</ele>
        <time>2010-03-06T02:15:53Z</time>
      </trkpt>
      <trkpt lat="44.00847" lon="3.65203">
        <ele>250</ele>
        <time>2010-03-06T02:15:58Z</time>
      </trkpt>
      <trkpt lat="44.00851" lon="3.65198">
        <ele>250</ele>
        <time>2010-03-06T02:16:03Z</time>
      </trkpt>
      <trkpt lat="44.00855" lon="3.65193">
        <ele>251</ele>
        <time>2010-03-06T02:16:08Z</time>
      </trkpt>
      <trkpt lat="44.00857" lon="3.65185">
        <ele>251</ele>
        <time>2010-03-06T02:16:13Z</time>
      </trkpt>
      <trkpt lat="44.00861" lon="3.65176">
        <ele>252</ele>
        <time>2010-03-06T02:16:18Z</time>
      </trkpt>
      <trkpt lat="44.00866" lon="3.65166">
        <ele>254</ele>
        <time>2010-03-06T02:16:23Z</time>
      </trkpt>
      <trkpt lat="44.00868" lon="3.65153">
        <ele>254</ele>
        <time>2010-03-06T02:16:28Z</time>
      </trkpt>
      <trkpt lat="44.00869" lon="3.65141">
        <ele>253</ele>
        <time>2010-03-06T02:16:33Z</time>
      </trkpt>
      <trkpt lat="44.0087" lon="3.65122">
        <ele>253</ele>
        <time>2010-03-06T02:16:38Z</time>
      </trkpt>
      <trkpt lat="44.00871" lon="3.65108">
        <ele>253</ele>
        <time>2010-03-06T02:16:43Z</time>
      </trkpt>
      <trkpt lat="44.00867" lon="3.65095">
        <ele>254</ele>
        <time>2010-03-06T02:16:48Z</time>
      </trkpt>
      <trkpt lat="44.00864" lon="3.65084">
        <ele>255</ele>
        <time>2010-03-06T02:16:53Z</time>
      </trkpt>
      <trkpt lat="44.00857" lon="3.65071">
        <ele>255</ele>
        <time>2010-03-06T02:16:58Z</time>
      </trkpt>
      <trkpt lat="44.00852" lon="3.65054">
        <ele>254</ele>
        <time>2010-03-06T02:17:03Z</time>
      </trkpt>
      <trkpt lat="44.0085" lon="3.65041">
        <ele>253</ele>
        <time>2010-03-06T02:17:08Z</time>
      </trkpt>
      <trkpt lat="44.00846" lon="3.6503">
        <ele>253</ele>
        <time>2010-03-06T02:17:13Z</time>
      </trkpt>
      <trkpt lat="44.00844" lon="3.6502">
        <ele>253</ele>
        <time>2010-03-06T02:17:18Z</time>
      </trkpt>
      <trkpt lat="44.00842" lon="3.65008">
        <ele>254</ele>
        <time>2010-03-06T02:17:23Z</time>
      </trkpt>
      <trkpt lat="44.0084" lon="3.64999">
        <ele>254</ele>
        <time>2010-03-06T02:17:28Z</time>
      </trkpt>
      <trkpt lat="44.00834" lon="3.64992">
        <ele>254</ele>
        <time>2010-03-06T02:17:33Z</time>
      </trkpt>
      <trkpt lat="44.00833" lon="3.64984">
        <ele>268</ele>
        <time>2010-03-06T02:17:38Z</time>
      </trkpt>
      <trkpt lat="44.00831" lon="3.64967">
        <ele>273</ele>
        <time>2010-03-06T02:17:43Z</time>
      </trkpt>
      <trkpt lat="44.00829" lon="3.64953">
        <ele>274</ele>
        <time>2010-03-06T02:17:48Z</time>
      </trkpt>
      <trkpt lat="44.00827" lon="3.64938">
        <ele>271</ele>
        <time>2010-03-06T02:17:53Z</time>
      </trkpt>
      <trkpt lat="44.00828" lon="3.64922">
        <ele>264</ele>
        <time>2010-03-06T02:17:58Z</time>
      </trkpt>
      <trkpt lat="44.00832" lon="3.64911">
        <ele>263</ele>
        <time>2010-03-06T02:18:03Z</time>
      </trkpt>
      <trkpt lat="44.00838" lon="3.64895">
        <ele>254</ele>
        <time>2010-03-06T02:18:08Z</time>
      </trkpt>
      <trkpt lat="44.00846" lon="3.64882">
        <ele>253</ele>
        <time>2010-03-06T02:18:13Z</time>
      </trkpt>
      <trkpt lat="44.00855" lon="3.64868">
        <ele>253</ele>
        <time>2010-03-06T02:18:18Z</time>
      </trkpt>
      <trkpt lat="44.00862" lon="3.64859">
        <ele>252</ele>
        <time>2010-03-06T02:18:23Z</time>
      </trkpt>
      <trkpt lat="44.00872" lon="3.64844">
        <ele>251</ele>
        <time>2010-03-06T02:18:28Z</time>
      </trkpt>
      <trkpt lat="44.00881" lon="3.64833">
        <ele>252</ele>
        <time>2010-03-06T02:18:33Z</time>
      </trkpt>
      <trkpt lat="44.00887" lon="3.6482">
        <ele>251</ele>
        <time>2010-03-06T02:18:38Z</time>
      </trkpt>
      <trkpt lat="44.00892" lon="3.64809">
        <ele>251</ele>
        <time>2010-03-06T02:18:43Z</time>
      </trkpt>
      <trkpt lat="44.00896" lon="3.64801">
        <ele>252</ele>
        <time>2010-03-06T02:18:48Z</time>
      </trkpt>
      <trkpt lat="44.009" lon="3.64805">
        <ele>251</ele>
        <time>2010-03-06T02:18:53Z</time>
      </trkpt>
      <trkpt lat="44.00896" lon="3.64814">
        <ele>250</ele>
        <time>2010-03-06T02:18:58Z</time>
      </trkpt>
      <trkpt lat="44.00893" lon="3.64818">
        <ele>250</ele>
        <time>2010-03-06T02:19:03Z</time>
      </trkpt>
      <trkpt lat="44.00895" lon="3.64821">
        <ele>250</ele>
        <time>2010-03-06T02:19:08Z</time>
      </trkpt>
      <trkpt lat="44.00897" lon="3.64821">
        <ele>249</ele>
        <time>2010-03-06T02:19:13Z</time>
      </trkpt>
      <trkpt lat="44.00899" lon="3.64816">
        <ele>249</ele>
        <time>2010-03-06T02:19:18Z</time>
      </trkpt>
      <trkpt lat="44.00909" lon="3.64811">
        <ele>249</ele>
        <time>2010-03-06T02:19:23Z</time>
      </trkpt>
      <trkpt lat="44.00921" lon="3.648">
        <ele>245</ele>
        <time>2010-03-06T02:19:28Z</time>
      </trkpt>
      <trkpt lat="44.00933" lon="3.64793">
        <ele>246</ele>
        <time>2010-03-06T02:19:33Z</time>
      </trkpt>
      <trkpt lat="44.00941" lon="3.64785">
        <ele>247</ele>
        <time>2010-03-06T02:19:38Z</time>
      </trkpt>
      <trkpt lat="44.00944" lon="3.64778">
        <ele>247</ele>
        <time>2010-03-06T02:19:43Z</time>
      </trkpt>
      <trkpt lat="44.00944" lon="3.64781">
        <ele>247</ele>
        <time>2010-03-06T02:19:48Z</time>
      </trkpt>
      <trkpt lat="44.00934" lon="3.64791">
        <ele>246</ele>
        <time>2010-03-06T02:19:53Z</time>
      </trkpt>
      <trkpt lat="44.00931" lon="3.64788">
        <ele>246</ele>
        <time>2010-03-06T02:19:58Z</time>
      </trkpt>
      <trkpt lat="44.00894" lon="3.64783">
        <ele>253</ele>
        <time>2010-03-06T02:20:03Z</time>
      </trkpt>
      <trkpt lat="44.00863" lon="3.64795">
        <ele>256</ele>
        <time>2010-03-06T02:20:08Z</time>
      </trkpt>
      <trkpt lat="44.0088" lon="3.64827">
        <ele>253</ele>
        <time>2010-03-06T02:20:13Z</time>
      </trkpt>
      <trkpt lat="44.00879" lon="3.64827">
        <ele>253</ele>
        <time>2010-03-06T02:20:18Z</time>
      </trkpt>
      <trkpt lat="44.00878" lon="3.6481">
        <ele>254</ele>
        <time>2010-03-06T02:20:23Z</time>
      </trkpt>
      <trkpt lat="44.00877" lon="3.64813">
        <ele>254</ele>
        <time>2010-03-06T02:20:28Z</time>
      </trkpt>
      <trkpt lat="44.00888" lon="3.64819">
        <ele>251</ele>
        <time>2010-03-06T02:20:33Z</time>
      </trkpt>
      <trkpt lat="44.00886" lon="3.64817">
        <ele>252</ele>
        <time>2010-03-06T02:20:38Z</time>
      </trkpt>
      <trkpt lat="44.00879" lon="3.64815">
        <ele>253</ele>
        <time>2010-03-06T02:20:43Z</time>
      </trkpt>
      <trkpt lat="44.00883" lon="3.64809">
        <ele>253</ele>
        <time>2010-03-06T02:20:48Z</time>
      </trkpt>
      <trkpt lat="44.00887" lon="3.64815">
        <ele>252</ele>
        <time>2010-03-06T02:20:53Z</time>
      </trkpt>
      <trkpt lat="44.00907" lon="3.6483">
        <ele>245</ele>
        <time>2010-03-06T02:20:58Z</time>
      </trkpt>
      <trkpt lat="44.00921" lon="3.64823">
        <ele>242</ele>
        <time>2010-03-06T02:21:03Z</time>
      </trkpt>
      <trkpt lat="44.00909" lon="3.64819">
        <ele>247</ele>
        <time>2010-03-06T02:21:08Z</time>
      </trkpt>
      <trkpt lat="44.00896" lon="3.64813">
        <ele>250</ele>
        <time>2010-03-06T02:21:13Z</time>
      </trkpt>
      <trkpt lat="44.00888" lon="3.64818">
        <ele>251</ele>
        <time>2010-03-06T02:21:18Z</time>
      </trkpt>
      <trkpt lat="44.00859" lon="3.64808">
        <ele>256</ele>
        <time>2010-03-06T02:21:23Z</time>
      </trkpt>
      <trkpt lat="44.00853" lon="3.64803">
        <ele>257</ele>
        <time>2010-03-06T02:21:28Z</time>
      </trkpt>
      <trkpt lat="44.00877" lon="3.64812">
        <ele>254</ele>
        <time>2010-03-06T02:21:33Z</time>
      </trkpt>
      <trkpt lat="44.00883" lon="3.64817">
        <ele>253</ele>
        <time>2010-03-06T02:21:38Z</time>
      </trkpt>
      <trkpt lat="44.0089" lon="3.64807">
        <ele>252</ele>
        <time>2010-03-06T02:21:43Z</time>
      </trkpt>
      <trkpt lat="44.00907" lon="3.6481">
        <ele>249</ele>
        <time>2010-03-06T02:21:48Z</time>
      </trkpt>
      <trkpt lat="44.00918" lon="3.6481">
        <ele>244</ele>
        <time>2010-03-06T02:21:53Z</time>
      </trkpt>
      <trkpt lat="44.00926" lon="3.64804">
        <ele>245</ele>
        <time>2010-03-06T02:21:58Z</time>
      </trkpt>
      <trkpt lat="44.00918" lon="3.64806">
        <ele>244</ele>
        <time>2010-03-06T02:22:03Z</time>
      </trkpt>
      <trkpt lat="44.00914" lon="3.64808">
        <ele>249</ele>
        <time>2010-03-06T02:22:08Z</time>
      </trkpt>
      <trkpt lat="44.00917" lon="3.64797">
        <ele>245</ele>
        <time>2010-03-06T02:22:13Z</time>
      </trkpt>
      <trkpt lat="44.00908" lon="3.64786">
        <ele>252</ele>
        <time>2010-03-06T02:22:18Z</time>
      </trkpt>
      <trkpt lat="44.0093" lon="3.64796">
        <ele>246</ele>
        <time>2010-03-06T02:22:23Z</time>
      </trkpt>
      <trkpt lat="44.00912" lon="3.64797">
        <ele>251</ele>
        <time>2010-03-06T02:22:28Z</time>
      </trkpt>
      <trkpt lat="44.00914" lon="3.64797">
        <ele>250</ele>
        <time>2010-03-06T02:22:33Z</time>
      </trkpt>
      <trkpt lat="44.00916" lon="3.64801">
        <ele>250</ele>
        <time>2010-03-06T02:22:38Z</time>
      </trkpt>
      <trkpt lat="44.00909" lon="3.64807">
        <ele>249</ele>
        <time>2010-03-06T02:22:43Z</time>
      </trkpt>
      <trkpt lat="44.009" lon="3.64811">
        <ele>250</ele>
        <time>2010-03-06T02:22:48Z</time>
      </trkpt>
      <trkpt lat="44.00902" lon="3.64811">
        <ele>250</ele>
        <time>2010-03-06T02:22:53Z</time>
      </trkpt>
      <trkpt lat="44.00909" lon="3.64812">
        <ele>249</ele>
        <time>2010-03-06T02:22:58Z</time>
      </trkpt>
      <trkpt lat="44.00914" lon="3.64818">
        <ele>247</ele>
        <time>2010-03-06T02:23:03Z</time>
      </trkpt>
      <trkpt lat="44.00904" lon="3.64808">
        <ele>250</ele>
        <time>2010-03-06T02:23:08Z</time>
      </trkpt>
      <trkpt lat="44.00893" lon="3.6481">
        <ele>251</ele>
        <time>2010-03-06T02:23:13Z</time>
      </trkpt>
      <trkpt lat="44.00903" lon="3.64817">
        <ele>249</ele>
        <time>2010-03-06T02:23:18Z</time>
      </trkpt>
      <trkpt lat="44.00903" lon="3.64818">
        <ele>248</ele>
        <time>2010-03-06T02:23:23Z</time>
      </trkpt>
      <trkpt lat="44.00897" lon="3.64817">
        <ele>250</ele>
        <time>2010-03-06T02:23:28Z</time>
      </trkpt>
      <trkpt lat="44.00916" lon="3.6482">
        <ele>246</ele>
        <time>2010-03-06T02:23:33Z</time>
      </trkpt>
      <trkpt lat="44.00919" lon="3.64821">
        <ele>243</ele>
        <time>2010-03-06T02:23:38Z</time>
      </trkpt>
      <trkpt lat="44.00916" lon="3.64828">
        <ele>243</ele>
        <time>2010-03-06T02:23:43Z</time>
      </trkpt>
      <trkpt lat="44.00923" lon="3.64819">
        <ele>243</ele>
        <time>2010-03-06T02:23:48Z</time>
      </trkpt>
      <trkpt lat="44.00926" lon="3.64818">
        <ele>243</ele>
        <time>2010-03-06T02:23:53Z</time>
      </trkpt>
      <trkpt lat="44.00928" lon="3.64818">
        <ele>244</ele>
        <time>2010-03-06T02:23:58Z</time>
      </trkpt>
      <trkpt lat="44.00925" lon="3.64814">
        <ele>244</ele>
        <time>2010-03-06T02:24:03Z</time>
      </trkpt>
      <trkpt lat="44.00927" lon="3.64814">
        <ele>244</ele>
        <time>2010-03-06T02:24:08Z</time>
      </trkpt>
      <trkpt lat="44.00927" lon="3.64813">
        <ele>244</ele>
        <time>2010-03-06T02:24:13Z</time>
      </trkpt>
      <trkpt lat="44.00926" lon="3.64812">
        <ele>244</ele>
        <time>2010-03-06T02:24:18Z</time>
      </trkpt>
      <trkpt lat="44.00928" lon="3.64816">
        <ele>244</ele>
        <time>2010-03-06T02:24:23Z</time>
      </trkpt>
      <trkpt lat="44.00928" lon="3.64817">
        <ele>244</ele>
        <time>2010-03-06T02:24:28Z</time>
      </trkpt>
      <trkpt lat="44.00929" lon="3.6481">
        <ele>244</ele>
        <time>2010-03-06T02:24:33Z</time>
      </trkpt>
      <trkpt lat="44.00923" lon="3.64804">
        <ele>245</ele>
        <time>2010-03-06T02:24:38Z</time>
      </trkpt>
    </trkseg>
  </trk>
</gpx>